<?xml version='1.0' encoding='UTF-8'?><gpx version="1.1" creator="JPX - https://github.com/jenetics/jpx" xmlns="http://www.topografix.com/GPX/1/1"><trk><trkseg><trkpt lat="44.2856292" lon="8.2029688"><ele>651.7142857142857</ele><time>2026-04-06T07:14:39.865Z</time></trkpt><trkpt lat="44.2855768" lon="8.2030456"><ele>652.4285714285714</ele><time>2026-04-06T07:19:45.87Z</time></trkpt><trkpt lat="44.2855211" lon="8.2029702"><ele>653.1428571428571</ele><time>2026-04-06T07:19:49.829Z</time></trkpt><trkpt lat="44.2854617" lon="8.2029033"><ele>653.8571428571429</ele><time>2026-04-06T07:19:53.583Z</time></trkpt><trkpt lat="44.2853883" lon="8.202915"><ele>654.5714285714286</ele><time>2026-04-06T07:19:57.582Z</time></trkpt><trkpt lat="44.2853217" lon="8.202945"><ele>655.2857142857142</ele><time>2026-04-06T07:20:00.583Z</time></trkpt><trkpt lat="44.2852517" lon="8.2029767"><ele>656.0</ele><time>2026-04-06T07:20:03.583Z</time></trkpt><trkpt lat="44.2851817" lon="8.203"><ele>656.0</ele><time>2026-04-06T07:20:06.583Z</time></trkpt><trkpt lat="44.2851017" lon="8.2030333"><ele>656.0</ele><time>2026-04-06T07:20:09.583Z</time></trkpt><trkpt lat="44.2850133" lon="8.2030817"><ele>656.0</ele><time>2026-04-06T07:20:14.582Z</time></trkpt><trkpt lat="44.2849383" lon="8.2031033"><ele>656.0</ele><time>2026-04-06T07:20:17.582Z</time></trkpt><trkpt lat="44.284865" lon="8.2031217"><ele>656.0</ele><time>2026-04-06T07:20:22.583Z</time></trkpt><trkpt lat="44.2848167" lon="8.20306"><ele>656.0</ele><time>2026-04-06T07:20:26.583Z</time></trkpt><trkpt lat="44.2847517" lon="8.2030067"><ele>656.0</ele><time>2026-04-06T07:20:29.583Z</time></trkpt><trkpt lat="44.2846817" lon="8.2029567"><ele>656.0</ele><time>2026-04-06T07:20:32.582Z</time></trkpt><trkpt lat="44.28462" lon="8.202935"><ele>656.0</ele><time>2026-04-06T07:20:34.583Z</time></trkpt><trkpt lat="44.28455" lon="8.202915"><ele>656.0</ele><time>2026-04-06T07:20:36.583Z</time></trkpt><trkpt lat="44.2844567" lon="8.2029083"><ele>656.0</ele><time>2026-04-06T07:20:39.583Z</time></trkpt><trkpt lat="44.2843733" lon="8.2029117"><ele>656.0</ele><time>2026-04-06T07:20:42.583Z</time></trkpt><trkpt lat="44.2843" lon="8.20292"><ele>656.0</ele><time>2026-04-06T07:20:45.583Z</time></trkpt><trkpt lat="44.2841883" lon="8.20295"><ele>656.0</ele><time>2026-04-06T07:25:04.583Z</time></trkpt><trkpt lat="44.2841217" lon="8.202945"><ele>656.0</ele><time>2026-04-06T07:25:06.582Z</time></trkpt><trkpt lat="44.2840517" lon="8.202925"><ele>656.0</ele><time>2026-04-06T07:25:08.583Z</time></trkpt><trkpt lat="44.28398" lon="8.2029"><ele>656.0</ele><time>2026-04-06T07:25:10.583Z</time></trkpt><trkpt lat="44.28391" lon="8.2028817"><ele>656.0</ele><time>2026-04-06T07:25:12.583Z</time></trkpt><trkpt lat="44.2838317" lon="8.2028717"><ele>655.7142857142857</ele><time>2026-04-06T07:25:14.583Z</time></trkpt><trkpt lat="44.28376" lon="8.2028617"><ele>655.4285714285714</ele><time>2026-04-06T07:25:16.583Z</time></trkpt><trkpt lat="44.2836683" lon="8.20283"><ele>655.1428571428571</ele><time>2026-04-06T07:25:19.583Z</time></trkpt><trkpt lat="44.2836017" lon="8.2028067"><ele>654.8571428571429</ele><time>2026-04-06T07:25:21.583Z</time></trkpt><trkpt lat="44.2835383" lon="8.20279"><ele>654.5714285714286</ele><time>2026-04-06T07:25:23.583Z</time></trkpt><trkpt lat="44.2834783" lon="8.2027467"><ele>654.2857142857142</ele><time>2026-04-06T07:25:25.583Z</time></trkpt><trkpt lat="44.2834217" lon="8.2026933"><ele>654.0</ele><time>2026-04-06T07:25:27.583Z</time></trkpt><trkpt lat="44.283345" lon="8.20264"><ele>654.0</ele><time>2026-04-06T07:25:30.583Z</time></trkpt><trkpt lat="44.2832783" lon="8.2025683"><ele>654.0</ele><time>2026-04-06T07:25:33.583Z</time></trkpt><trkpt lat="44.2832117" lon="8.202505"><ele>654.0</ele><time>2026-04-06T07:25:36.584Z</time></trkpt><trkpt lat="44.2831317" lon="8.2024367"><ele>654.0</ele><time>2026-04-06T07:25:39.584Z</time></trkpt><trkpt lat="44.2830533" lon="8.2023767"><ele>654.0</ele><time>2026-04-06T07:25:42.584Z</time></trkpt><trkpt lat="44.2829767" lon="8.20231"><ele>654.0</ele><time>2026-04-06T07:25:45.584Z</time></trkpt><trkpt lat="44.28291" lon="8.2022483"><ele>655.1666666666666</ele><time>2026-04-06T07:25:48.584Z</time></trkpt><trkpt lat="44.282845" lon="8.2021967"><ele>656.3333333333334</ele><time>2026-04-06T07:25:51.584Z</time></trkpt><trkpt lat="44.2827667" lon="8.2021483"><ele>657.5</ele><time>2026-04-06T07:25:54.584Z</time></trkpt><trkpt lat="44.2826917" lon="8.202105"><ele>658.6666666666667</ele><time>2026-04-06T07:25:57.584Z</time></trkpt><trkpt lat="44.2826117" lon="8.202065"><ele>659.8333333333334</ele><time>2026-04-06T07:26:00.584Z</time></trkpt><trkpt lat="44.2825333" lon="8.2020333"><ele>661.0</ele><time>2026-04-06T07:26:03.584Z</time></trkpt><trkpt lat="44.2824633" lon="8.202005"><ele>661.0</ele><time>2026-04-06T07:26:06.584Z</time></trkpt><trkpt lat="44.2823883" lon="8.20197"><ele>661.0</ele><time>2026-04-06T07:26:09.583Z</time></trkpt><trkpt lat="44.282315" lon="8.201935"><ele>661.0</ele><time>2026-04-06T07:26:12.584Z</time></trkpt><trkpt lat="44.2822183" lon="8.2018867"><ele>661.0</ele><time>2026-04-06T07:26:16.584Z</time></trkpt><trkpt lat="44.2821333" lon="8.2018433"><ele>661.0</ele><time>2026-04-06T07:26:19.584Z</time></trkpt><trkpt lat="44.2820467" lon="8.20181"><ele>661.0</ele><time>2026-04-06T07:26:22.583Z</time></trkpt><trkpt lat="44.2819383" lon="8.2017667"><ele>660.4</ele><time>2026-04-06T07:26:26.584Z</time></trkpt><trkpt lat="44.2818583" lon="8.2017267"><ele>659.8</ele><time>2026-04-06T07:26:29.584Z</time></trkpt><trkpt lat="44.281785" lon="8.20168"><ele>659.1999999999999</ele><time>2026-04-06T07:26:32.584Z</time></trkpt><trkpt lat="44.281685" lon="8.201605"><ele>658.5999999999999</ele><time>2026-04-06T07:26:36.584Z</time></trkpt><trkpt lat="44.281605" lon="8.2015417"><ele>658.0</ele><time>2026-04-06T07:26:39.584Z</time></trkpt><trkpt lat="44.2815317" lon="8.2014767"><ele>658.1666666666667</ele><time>2026-04-06T07:26:42.584Z</time></trkpt><trkpt lat="44.2814583" lon="8.2014017"><ele>658.3333333333334</ele><time>2026-04-06T07:26:45.584Z</time></trkpt><trkpt lat="44.2813867" lon="8.2013267"><ele>658.5</ele><time>2026-04-06T07:26:48.584Z</time></trkpt><trkpt lat="44.281315" lon="8.201245"><ele>658.6666666666666</ele><time>2026-04-06T07:26:51.584Z</time></trkpt><trkpt lat="44.2812417" lon="8.2011617"><ele>658.8333333333333</ele><time>2026-04-06T07:26:54.584Z</time></trkpt><trkpt lat="44.2811917" lon="8.2011067"><ele>659.0</ele><time>2026-04-06T07:26:56.584Z</time></trkpt><trkpt lat="44.2811383" lon="8.2010467"><ele>659.0</ele><time>2026-04-06T07:26:58.584Z</time></trkpt><trkpt lat="44.2810817" lon="8.2009917"><ele>659.0</ele><time>2026-04-06T07:27:00.584Z</time></trkpt><trkpt lat="44.2810283" lon="8.2009383"><ele>659.0</ele><time>2026-04-06T07:27:02.584Z</time></trkpt><trkpt lat="44.2809533" lon="8.2008617"><ele>659.0</ele><time>2026-04-06T07:27:05.584Z</time></trkpt><trkpt lat="44.280875" lon="8.2007933"><ele>659.0</ele><time>2026-04-06T07:27:08.584Z</time></trkpt><trkpt lat="44.2808067" lon="8.20072"><ele>659.0</ele><time>2026-04-06T07:27:11.583Z</time></trkpt><trkpt lat="44.280735" lon="8.200655"><ele>658.8571428571429</ele><time>2026-04-06T07:27:14.584Z</time></trkpt><trkpt lat="44.2806517" lon="8.2005917"><ele>658.7142857142857</ele><time>2026-04-06T07:27:17.584Z</time></trkpt><trkpt lat="44.2806033" lon="8.2005283"><ele>658.5714285714286</ele><time>2026-04-06T07:27:19.584Z</time></trkpt><trkpt lat="44.280555" lon="8.2004667"><ele>658.4285714285714</ele><time>2026-04-06T07:27:21.584Z</time></trkpt><trkpt lat="44.2805067" lon="8.2004067"><ele>658.2857142857142</ele><time>2026-04-06T07:27:23.583Z</time></trkpt><trkpt lat="44.280455" lon="8.2003417"><ele>658.1428571428571</ele><time>2026-04-06T07:27:25.584Z</time></trkpt><trkpt lat="44.28041" lon="8.2002617"><ele>658.0</ele><time>2026-04-06T07:27:27.584Z</time></trkpt><trkpt lat="44.28037" lon="8.2001767"><ele>658.0</ele><time>2026-04-06T07:27:29.584Z</time></trkpt><trkpt lat="44.28034" lon="8.2000833"><ele>658.0</ele><time>2026-04-06T07:27:31.584Z</time></trkpt><trkpt lat="44.2803283" lon="8.1999817"><ele>658.0</ele><time>2026-04-06T07:27:33.584Z</time></trkpt><trkpt lat="44.280325" lon="8.1998767"><ele>658.0</ele><time>2026-04-06T07:27:35.583Z</time></trkpt><trkpt lat="44.2803283" lon="8.1997767"><ele>658.0</ele><time>2026-04-06T07:27:37.584Z</time></trkpt><trkpt lat="44.2803333" lon="8.1996633"><ele>658.0</ele><time>2026-04-06T07:27:39.584Z</time></trkpt><trkpt lat="44.280345" lon="8.1995517"><ele>658.4285714285714</ele><time>2026-04-06T07:27:41.584Z</time></trkpt><trkpt lat="44.2803583" lon="8.1994433"><ele>658.8571428571429</ele><time>2026-04-06T07:27:43.584Z</time></trkpt><trkpt lat="44.28037" lon="8.1993383"><ele>659.2857142857142</ele><time>2026-04-06T07:27:45.583Z</time></trkpt><trkpt lat="44.2803833" lon="8.1992367"><ele>659.7142857142858</ele><time>2026-04-06T07:27:47.584Z</time></trkpt><trkpt lat="44.2803967" lon="8.1991333"><ele>660.1428571428571</ele><time>2026-04-06T07:27:49.584Z</time></trkpt><trkpt lat="44.28041" lon="8.1990333"><ele>660.5714285714286</ele><time>2026-04-06T07:27:51.583Z</time></trkpt><trkpt lat="44.2804217" lon="8.1989383"><ele>661.0</ele><time>2026-04-06T07:27:53.583Z</time></trkpt><trkpt lat="44.280435" lon="8.1988383"><ele>661.0</ele><time>2026-04-06T07:27:55.584Z</time></trkpt><trkpt lat="44.280445" lon="8.1987417"><ele>661.0</ele><time>2026-04-06T07:27:57.584Z</time></trkpt><trkpt lat="44.280455" lon="8.1986417"><ele>661.0</ele><time>2026-04-06T07:27:59.584Z</time></trkpt><trkpt lat="44.280465" lon="8.1985417"><ele>661.0</ele><time>2026-04-06T07:28:01.584Z</time></trkpt><trkpt lat="44.28047" lon="8.1984417"><ele>661.0</ele><time>2026-04-06T07:28:03.584Z</time></trkpt><trkpt lat="44.280465" lon="8.19835"><ele>661.0</ele><time>2026-04-06T07:28:05.584Z</time></trkpt><trkpt lat="44.2804483" lon="8.1982567"><ele>661.0</ele><time>2026-04-06T07:28:07.584Z</time></trkpt><trkpt lat="44.2804267" lon="8.1981617"><ele>662.1428571428571</ele><time>2026-04-06T07:28:09.584Z</time></trkpt><trkpt lat="44.280405" lon="8.1980683"><ele>663.2857142857143</ele><time>2026-04-06T07:28:11.584Z</time></trkpt><trkpt lat="44.28037" lon="8.1979817"><ele>664.4285714285714</ele><time>2026-04-06T07:28:13.584Z</time></trkpt><trkpt lat="44.2803267" lon="8.1978933"><ele>665.5714285714286</ele><time>2026-04-06T07:28:15.583Z</time></trkpt><trkpt lat="44.2802733" lon="8.19782"><ele>666.7142857142857</ele><time>2026-04-06T07:28:17.583Z</time></trkpt><trkpt lat="44.2802167" lon="8.19775"><ele>667.8571428571429</ele><time>2026-04-06T07:28:19.584Z</time></trkpt><trkpt lat="44.2801517" lon="8.1976917"><ele>669.0</ele><time>2026-04-06T07:28:21.583Z</time></trkpt><trkpt lat="44.2800833" lon="8.197645"><ele>669.0</ele><time>2026-04-06T07:28:23.583Z</time></trkpt><trkpt lat="44.280015" lon="8.1976017"><ele>669.0</ele><time>2026-04-06T07:28:25.584Z</time></trkpt><trkpt lat="44.2799433" lon="8.1975667"><ele>669.0</ele><time>2026-04-06T07:28:27.583Z</time></trkpt><trkpt lat="44.27987" lon="8.1975383"><ele>669.0</ele><time>2026-04-06T07:28:29.584Z</time></trkpt><trkpt lat="44.279795" lon="8.1975067"><ele>669.0</ele><time>2026-04-06T07:28:31.583Z</time></trkpt><trkpt lat="44.2797167" lon="8.1974767"><ele>669.0</ele><time>2026-04-06T07:28:33.584Z</time></trkpt><trkpt lat="44.2796433" lon="8.197455"><ele>668.5714285714286</ele><time>2026-04-06T07:28:35.584Z</time></trkpt><trkpt lat="44.2795683" lon="8.1974367"><ele>668.1428571428571</ele><time>2026-04-06T07:28:37.584Z</time></trkpt><trkpt lat="44.2794983" lon="8.19742"><ele>667.7142857142858</ele><time>2026-04-06T07:28:39.584Z</time></trkpt><trkpt lat="44.2794267" lon="8.19741"><ele>667.2857142857142</ele><time>2026-04-06T07:28:41.584Z</time></trkpt><trkpt lat="44.279355" lon="8.1974017"><ele>666.8571428571428</ele><time>2026-04-06T07:28:43.584Z</time></trkpt><trkpt lat="44.2792817" lon="8.1973967"><ele>666.4285714285714</ele><time>2026-04-06T07:28:45.584Z</time></trkpt><trkpt lat="44.2792117" lon="8.1973917"><ele>666.0</ele><time>2026-04-06T07:28:47.584Z</time></trkpt><trkpt lat="44.2791417" lon="8.1973917"><ele>666.0</ele><time>2026-04-06T07:28:49.584Z</time></trkpt><trkpt lat="44.2790717" lon="8.1974017"><ele>666.0</ele><time>2026-04-06T07:28:51.583Z</time></trkpt><trkpt lat="44.2789967" lon="8.1974067"><ele>666.0</ele><time>2026-04-06T07:28:53.584Z</time></trkpt><trkpt lat="44.27892" lon="8.197415"><ele>666.0</ele><time>2026-04-06T07:28:55.583Z</time></trkpt><trkpt lat="44.2788417" lon="8.1974283"><ele>666.0</ele><time>2026-04-06T07:28:57.584Z</time></trkpt><trkpt lat="44.278765" lon="8.1974367"><ele>666.0</ele><time>2026-04-06T07:28:59.584Z</time></trkpt><trkpt lat="44.278685" lon="8.1974433"><ele>666.6666666666666</ele><time>2026-04-06T07:29:01.584Z</time></trkpt><trkpt lat="44.2786017" lon="8.1974467"><ele>667.3333333333334</ele><time>2026-04-06T07:29:03.584Z</time></trkpt><trkpt lat="44.2785283" lon="8.1974483"><ele>668.0</ele><time>2026-04-06T07:29:05.583Z</time></trkpt><trkpt lat="44.2784217" lon="8.1974283"><ele>668.6666666666667</ele><time>2026-04-06T07:29:08.584Z</time></trkpt><trkpt lat="44.2783467" lon="8.197405"><ele>669.3333333333334</ele><time>2026-04-06T07:29:10.583Z</time></trkpt><trkpt lat="44.2782817" lon="8.1973767"><ele>670.0</ele><time>2026-04-06T07:29:12.583Z</time></trkpt><trkpt lat="44.2782033" lon="8.1973433"><ele>670.0</ele><time>2026-04-06T07:29:15.583Z</time></trkpt><trkpt lat="44.2781267" lon="8.1973817"><ele>670.0</ele><time>2026-04-06T07:29:18.584Z</time></trkpt><trkpt lat="44.2780633" lon="8.1974533"><ele>670.0</ele><time>2026-04-06T07:29:21.584Z</time></trkpt><trkpt lat="44.2780067" lon="8.197515"><ele>670.0</ele><time>2026-04-06T07:29:25.584Z</time></trkpt><trkpt lat="44.27794" lon="8.1974883"><ele>670.0</ele><time>2026-04-06T07:30:01.584Z</time></trkpt><trkpt lat="44.2778817" lon="8.1974267"><ele>670.0</ele><time>2026-04-06T07:30:04.584Z</time></trkpt><trkpt lat="44.2778" lon="8.1973717"><ele>673.8333333333334</ele><time>2026-04-06T07:30:07.584Z</time></trkpt><trkpt lat="44.2777383" lon="8.1973067"><ele>677.6666666666667</ele><time>2026-04-06T07:30:09.584Z</time></trkpt><trkpt lat="44.2776767" lon="8.1972283"><ele>681.5</ele><time>2026-04-06T07:30:11.584Z</time></trkpt><trkpt lat="44.277635" lon="8.1971433"><ele>685.3333333333334</ele><time>2026-04-06T07:30:13.584Z</time></trkpt><trkpt lat="44.2775817" lon="8.1970717"><ele>689.1666666666666</ele><time>2026-04-06T07:30:15.584Z</time></trkpt><trkpt lat="44.2775117" lon="8.197005"><ele>693.0</ele><time>2026-04-06T07:30:17.584Z</time></trkpt><trkpt lat="44.2774317" lon="8.1969583"><ele>693.0</ele><time>2026-04-06T07:30:19.583Z</time></trkpt><trkpt lat="44.2773483" lon="8.1969267"><ele>693.0</ele><time>2026-04-06T07:30:21.584Z</time></trkpt><trkpt lat="44.2772667" lon="8.1969117"><ele>693.0</ele><time>2026-04-06T07:30:23.583Z</time></trkpt><trkpt lat="44.2771817" lon="8.196895"><ele>693.0</ele><time>2026-04-06T07:30:25.584Z</time></trkpt><trkpt lat="44.277095" lon="8.1968783"><ele>693.0</ele><time>2026-04-06T07:30:27.584Z</time></trkpt><trkpt lat="44.27701" lon="8.196855"><ele>693.0</ele><time>2026-04-06T07:30:29.584Z</time></trkpt><trkpt lat="44.2768867" lon="8.19681"><ele>691.5</ele><time>2026-04-06T07:30:32.584Z</time></trkpt><trkpt lat="44.2768083" lon="8.1967833"><ele>690.0</ele><time>2026-04-06T07:30:34.584Z</time></trkpt><trkpt lat="44.2767367" lon="8.1967667"><ele>688.5</ele><time>2026-04-06T07:30:36.584Z</time></trkpt><trkpt lat="44.276655" lon="8.196765"><ele>687.0</ele><time>2026-04-06T07:30:38.584Z</time></trkpt><trkpt lat="44.2765783" lon="8.1967917"><ele>685.5</ele><time>2026-04-06T07:30:40.584Z</time></trkpt><trkpt lat="44.2764967" lon="8.1968133"><ele>684.0</ele><time>2026-04-06T07:30:42.584Z</time></trkpt><trkpt lat="44.2764383" lon="8.19688"><ele>684.8571428571428</ele><time>2026-04-06T07:30:44.584Z</time></trkpt><trkpt lat="44.2763883" lon="8.1969567"><ele>685.7142857142857</ele><time>2026-04-06T07:30:46.584Z</time></trkpt><trkpt lat="44.276345" lon="8.197035"><ele>686.5714285714286</ele><time>2026-04-06T07:30:48.584Z</time></trkpt><trkpt lat="44.27632" lon="8.1971217"><ele>687.4285714285713</ele><time>2026-04-06T07:30:51.584Z</time></trkpt><trkpt lat="44.2763533" lon="8.1972017"><ele>688.2857142857142</ele><time>2026-04-06T07:30:54.584Z</time></trkpt><trkpt lat="44.2763917" lon="8.197275"><ele>689.1428571428571</ele><time>2026-04-06T07:30:57.584Z</time></trkpt><trkpt lat="44.2763708" lon="8.1971854"><ele>690.0</ele><time>2026-04-06T07:31:34.768Z</time></trkpt><trkpt lat="44.2764233" lon="8.19725"><ele>687.5</ele><time>2026-04-06T07:34:55.584Z</time></trkpt><trkpt lat="44.2764567" lon="8.1973383"><ele>685.0</ele><time>2026-04-06T07:38:04.584Z</time></trkpt><trkpt lat="44.27649" lon="8.1974417"><ele>682.5</ele><time>2026-04-06T07:38:07.584Z</time></trkpt><trkpt lat="44.2765417" lon="8.1975433"><ele>680.0</ele><time>2026-04-06T07:38:10.584Z</time></trkpt><trkpt lat="44.27661" lon="8.19763"><ele>677.5</ele><time>2026-04-06T07:38:13.584Z</time></trkpt><trkpt lat="44.2766817" lon="8.1976883"><ele>675.0</ele><time>2026-04-06T07:38:16.584Z</time></trkpt><trkpt lat="44.276745" lon="8.1976883"><ele>675.0</ele><time>2026-04-06T07:38:18.584Z</time></trkpt><trkpt lat="44.276825" lon="8.1976567"><ele>675.0</ele><time>2026-04-06T07:38:21.584Z</time></trkpt><trkpt lat="44.2768917" lon="8.1976517"><ele>675.0</ele><time>2026-04-06T07:38:23.584Z</time></trkpt><trkpt lat="44.276965" lon="8.1976617"><ele>675.0</ele><time>2026-04-06T07:38:25.584Z</time></trkpt><trkpt lat="44.2770417" lon="8.1977283"><ele>675.0</ele><time>2026-04-06T07:38:28.584Z</time></trkpt><trkpt lat="44.2770833" lon="8.1978167"><ele>675.0</ele><time>2026-04-06T07:38:30.584Z</time></trkpt><trkpt lat="44.277115" lon="8.1979067"><ele>675.0</ele><time>2026-04-06T07:38:32.584Z</time></trkpt><trkpt lat="44.2771367" lon="8.1980083"><ele>675.0</ele><time>2026-04-06T07:38:35.584Z</time></trkpt><trkpt lat="44.277155" lon="8.198095"><ele>675.0</ele><time>2026-04-06T07:38:37.583Z</time></trkpt><trkpt lat="44.2771933" lon="8.19819"><ele>675.0</ele><time>2026-04-06T07:38:40.583Z</time></trkpt><trkpt lat="44.2772283" lon="8.1982817"><ele>675.0</ele><time>2026-04-06T07:38:44.584Z</time></trkpt><trkpt lat="44.2772917" lon="8.1983717"><ele>675.0</ele><time>2026-04-06T07:38:47.584Z</time></trkpt><trkpt lat="44.2773467" lon="8.198435"><ele>676.8333333333334</ele><time>2026-04-06T07:38:49.584Z</time></trkpt><trkpt lat="44.2774" lon="8.198495"><ele>678.6666666666666</ele><time>2026-04-06T07:38:51.584Z</time></trkpt><trkpt lat="44.2774717" lon="8.1985583"><ele>680.5</ele><time>2026-04-06T07:38:54.584Z</time></trkpt><trkpt lat="44.2775567" lon="8.1985633"><ele>682.3333333333333</ele><time>2026-04-06T07:38:57.584Z</time></trkpt><trkpt lat="44.2776233" lon="8.19854"><ele>684.1666666666666</ele><time>2026-04-06T07:39:00.584Z</time></trkpt><trkpt lat="44.2777117" lon="8.198505"><ele>686.0</ele><time>2026-04-06T07:39:03.584Z</time></trkpt><trkpt lat="44.2778" lon="8.198485"><ele>686.0</ele><time>2026-04-06T07:39:06.584Z</time></trkpt><trkpt lat="44.2778717" lon="8.19848"><ele>686.0</ele><time>2026-04-06T07:39:08.584Z</time></trkpt><trkpt lat="44.2779417" lon="8.198475"><ele>686.0</ele><time>2026-04-06T07:39:10.584Z</time></trkpt><trkpt lat="44.2780283" lon="8.1984817"><ele>686.0</ele><time>2026-04-06T07:39:13.584Z</time></trkpt><trkpt lat="44.2780967" lon="8.198475"><ele>686.0</ele><time>2026-04-06T07:39:15.583Z</time></trkpt><trkpt lat="44.2781683" lon="8.1984683"><ele>686.0</ele><time>2026-04-06T07:39:17.583Z</time></trkpt><trkpt lat="44.2782383" lon="8.1984783"><ele>686.0</ele><time>2026-04-06T07:39:19.584Z</time></trkpt><trkpt lat="44.2783217" lon="8.198485"><ele>685.1666666666666</ele><time>2026-04-06T07:39:22.583Z</time></trkpt><trkpt lat="44.278395" lon="8.19851"><ele>684.3333333333333</ele><time>2026-04-06T07:39:25.583Z</time></trkpt><trkpt lat="44.2784867" lon="8.19859"><ele>683.5</ele><time>2026-04-06T07:39:28.584Z</time></trkpt><trkpt lat="44.2785383" lon="8.1986467"><ele>682.6666666666666</ele><time>2026-04-06T07:39:30.584Z</time></trkpt><trkpt lat="44.27859" lon="8.1987517"><ele>681.8333333333334</ele><time>2026-04-06T07:39:33.584Z</time></trkpt><trkpt lat="44.2786033" lon="8.1988683"><ele>681.0</ele><time>2026-04-06T07:39:36.584Z</time></trkpt><trkpt lat="44.278625" lon="8.19898"><ele>685.5</ele><time>2026-04-06T07:39:39.584Z</time></trkpt><trkpt lat="44.2786417" lon="8.1990917"><ele>690.0</ele><time>2026-04-06T07:39:42.584Z</time></trkpt><trkpt lat="44.2786367" lon="8.199215"><ele>694.5</ele><time>2026-04-06T07:39:45.584Z</time></trkpt><trkpt lat="44.2786133" lon="8.1993367"><ele>699.0</ele><time>2026-04-06T07:39:48.584Z</time></trkpt><trkpt lat="44.2785917" lon="8.1994617"><ele>703.5</ele><time>2026-04-06T07:39:51.584Z</time></trkpt><trkpt lat="44.27857" lon="8.1995767"><ele>708.0</ele><time>2026-04-06T07:39:54.584Z</time></trkpt><trkpt lat="44.27855" lon="8.199685"><ele>708.0</ele><time>2026-04-06T07:39:57.584Z</time></trkpt><trkpt lat="44.2785233" lon="8.1997983"><ele>708.0</ele><time>2026-04-06T07:40:00.584Z</time></trkpt><trkpt lat="44.278505" lon="8.19989"><ele>708.0</ele><time>2026-04-06T07:40:03.584Z</time></trkpt><trkpt lat="44.2784433" lon="8.1999717"><ele>708.0</ele><time>2026-04-06T07:40:06.584Z</time></trkpt><trkpt lat="44.2783933" lon="8.20007"><ele>708.0</ele><time>2026-04-06T07:40:09.584Z</time></trkpt><trkpt lat="44.2783317" lon="8.2001617"><ele>708.0</ele><time>2026-04-06T07:40:12.584Z</time></trkpt><trkpt lat="44.2783" lon="8.2002633"><ele>709.5714285714286</ele><time>2026-04-06T07:40:15.583Z</time></trkpt><trkpt lat="44.278255" lon="8.2003317"><ele>711.1428571428571</ele><time>2026-04-06T07:40:18.584Z</time></trkpt><trkpt lat="44.27822" lon="8.2004117"><ele>712.7142857142857</ele><time>2026-04-06T07:40:23.584Z</time></trkpt><trkpt lat="44.2781633" lon="8.2004717"><ele>714.2857142857142</ele><time>2026-04-06T07:40:28.584Z</time></trkpt><trkpt lat="44.2781083" lon="8.2005517"><ele>715.8571428571429</ele><time>2026-04-06T07:40:32.584Z</time></trkpt><trkpt lat="44.2780683" lon="8.20065"><ele>717.4285714285713</ele><time>2026-04-06T07:40:35.584Z</time></trkpt><trkpt lat="44.27803" lon="8.20073"><ele>719.0</ele><time>2026-04-06T07:40:38.584Z</time></trkpt><trkpt lat="44.2780017" lon="8.20083"><ele>722.3333333333333</ele><time>2026-04-06T07:40:41.584Z</time></trkpt><trkpt lat="44.2779883" lon="8.2009533"><ele>725.6666666666666</ele><time>2026-04-06T07:40:44.584Z</time></trkpt><trkpt lat="44.2779217" lon="8.2010533"><ele>729.0</ele><time>2026-04-06T07:40:47.584Z</time></trkpt><trkpt lat="44.27787" lon="8.2011083"><ele>732.3333333333334</ele><time>2026-04-06T07:40:49.584Z</time></trkpt><trkpt lat="44.2778183" lon="8.20117"><ele>735.6666666666667</ele><time>2026-04-06T07:40:51.584Z</time></trkpt><trkpt lat="44.2777983" lon="8.2012933"><ele>739.0</ele><time>2026-04-06T07:40:53.584Z</time></trkpt><trkpt lat="44.27778" lon="8.2014067"><ele>738.0</ele><time>2026-04-06T07:40:55.584Z</time></trkpt><trkpt lat="44.2777717" lon="8.2015217"><ele>737.0</ele><time>2026-04-06T07:40:57.584Z</time></trkpt><trkpt lat="44.2777517" lon="8.2016183"><ele>736.0</ele><time>2026-04-06T07:40:59.584Z</time></trkpt><trkpt lat="44.2777483" lon="8.201745"><ele>735.0</ele><time>2026-04-06T07:41:01.583Z</time></trkpt><trkpt lat="44.2777467" lon="8.20186"><ele>734.0</ele><time>2026-04-06T07:41:03.584Z</time></trkpt><trkpt lat="44.2777317" lon="8.2019667"><ele>733.0</ele><time>2026-04-06T07:41:05.584Z</time></trkpt><trkpt lat="44.2777117" lon="8.202065"><ele>732.9999999999999</ele><time>2026-04-06T07:41:07.584Z</time></trkpt><trkpt lat="44.277675" lon="8.2021417"><ele>733.0</ele><time>2026-04-06T07:41:09.584Z</time></trkpt><trkpt lat="44.2776433" lon="8.20223"><ele>733.0</ele><time>2026-04-06T07:41:11.583Z</time></trkpt><trkpt lat="44.2776083" lon="8.2023167"><ele>733.0</ele><time>2026-04-06T07:41:14.584Z</time></trkpt><trkpt lat="44.2775583" lon="8.2023833"><ele>733.0</ele><time>2026-04-06T07:41:17.584Z</time></trkpt><trkpt lat="44.2774967" lon="8.2024367"><ele>732.9999999999999</ele><time>2026-04-06T07:41:20.584Z</time></trkpt><trkpt lat="44.2774383" lon="8.2025"><ele>733.0</ele><time>2026-04-06T07:41:23.583Z</time></trkpt><trkpt lat="44.27738" lon="8.2025683"><ele>731.6666666666667</ele><time>2026-04-06T07:41:26.584Z</time></trkpt><trkpt lat="44.27731" lon="8.2026233"><ele>730.3333333333334</ele><time>2026-04-06T07:41:30.584Z</time></trkpt><trkpt lat="44.2772383" lon="8.202665"><ele>729.0</ele><time>2026-04-06T07:41:33.584Z</time></trkpt><trkpt lat="44.2771617" lon="8.2027017"><ele>727.6666666666666</ele><time>2026-04-06T07:41:36.584Z</time></trkpt><trkpt lat="44.2770867" lon="8.2027383"><ele>726.3333333333333</ele><time>2026-04-06T07:41:40.584Z</time></trkpt><trkpt lat="44.2770067" lon="8.2028033"><ele>725.0</ele><time>2026-04-06T07:41:43.584Z</time></trkpt><trkpt lat="44.2769533" lon="8.2028767"><ele>725.3333333333333</ele><time>2026-04-06T07:41:45.584Z</time></trkpt><trkpt lat="44.2768783" lon="8.2029383"><ele>725.6666666666666</ele><time>2026-04-06T07:41:47.584Z</time></trkpt><trkpt lat="44.2768217" lon="8.2029783"><ele>726.0</ele><time>2026-04-06T07:41:48.584Z</time></trkpt><trkpt lat="44.2767533" lon="8.2030483"><ele>726.3333333333334</ele><time>2026-04-06T07:41:50.583Z</time></trkpt><trkpt lat="44.276685" lon="8.203105"><ele>726.6666666666667</ele><time>2026-04-06T07:41:52.584Z</time></trkpt><trkpt lat="44.27663" lon="8.20316"><ele>727.0</ele><time>2026-04-06T07:41:54.583Z</time></trkpt><trkpt lat="44.27657" lon="8.20322"><ele>727.0</ele><time>2026-04-06T07:41:56.584Z</time></trkpt><trkpt lat="44.2765" lon="8.203285"><ele>727.0</ele><time>2026-04-06T07:41:58.584Z</time></trkpt><trkpt lat="44.276415" lon="8.2033317"><ele>727.0</ele><time>2026-04-06T07:42:00.584Z</time></trkpt><trkpt lat="44.27634" lon="8.2033933"><ele>727.0</ele><time>2026-04-06T07:42:03.584Z</time></trkpt><trkpt lat="44.2762733" lon="8.2034533"><ele>727.0</ele><time>2026-04-06T07:42:06.584Z</time></trkpt><trkpt lat="44.2762183" lon="8.2034983"><ele>727.0</ele><time>2026-04-06T07:42:08.584Z</time></trkpt><trkpt lat="44.2761517" lon="8.2035667"><ele>729.8333333333334</ele><time>2026-04-06T07:42:10.584Z</time></trkpt><trkpt lat="44.276085" lon="8.20364"><ele>732.6666666666667</ele><time>2026-04-06T07:42:12.584Z</time></trkpt><trkpt lat="44.2760117" lon="8.2037033"><ele>735.5</ele><time>2026-04-06T07:42:14.584Z</time></trkpt><trkpt lat="44.2759333" lon="8.20372"><ele>738.3333333333334</ele><time>2026-04-06T07:42:16.584Z</time></trkpt><trkpt lat="44.2758717" lon="8.2036733"><ele>741.1666666666666</ele><time>2026-04-06T07:42:18.584Z</time></trkpt><trkpt lat="44.2758533" lon="8.203565"><ele>744.0</ele><time>2026-04-06T07:42:21.584Z</time></trkpt><trkpt lat="44.2759283" lon="8.2035"><ele>744.0</ele><time>2026-04-06T07:42:24.584Z</time></trkpt><trkpt lat="44.27599" lon="8.2034417"><ele>744.0</ele><time>2026-04-06T07:42:26.584Z</time></trkpt><trkpt lat="44.2760467" lon="8.2033683"><ele>744.0</ele><time>2026-04-06T07:42:28.583Z</time></trkpt><trkpt lat="44.2761017" lon="8.203295"><ele>744.0</ele><time>2026-04-06T07:42:30.583Z</time></trkpt><trkpt lat="44.2761567" lon="8.20322"><ele>744.0</ele><time>2026-04-06T07:42:32.583Z</time></trkpt><trkpt lat="44.2762117" lon="8.2031467"><ele>744.0</ele><time>2026-04-06T07:42:34.584Z</time></trkpt><trkpt lat="44.2762583" lon="8.203075"><ele>743.7142857142858</ele><time>2026-04-06T07:42:36.584Z</time></trkpt><trkpt lat="44.27631" lon="8.20301"><ele>743.4285714285714</ele><time>2026-04-06T07:42:38.584Z</time></trkpt><trkpt lat="44.27636" lon="8.2029333"><ele>743.1428571428571</ele><time>2026-04-06T07:42:40.584Z</time></trkpt><trkpt lat="44.276405" lon="8.2028533"><ele>742.8571428571429</ele><time>2026-04-06T07:42:42.584Z</time></trkpt><trkpt lat="44.2764467" lon="8.2027717"><ele>742.5714285714286</ele><time>2026-04-06T07:42:44.584Z</time></trkpt><trkpt lat="44.2764917" lon="8.2027033"><ele>742.2857142857143</ele><time>2026-04-06T07:42:46.584Z</time></trkpt><trkpt lat="44.2765417" lon="8.2026267"><ele>742.0</ele><time>2026-04-06T07:42:48.584Z</time></trkpt><trkpt lat="44.276595" lon="8.2025517"><ele>742.0</ele><time>2026-04-06T07:42:50.584Z</time></trkpt><trkpt lat="44.276645" lon="8.2024817"><ele>742.0</ele><time>2026-04-06T07:42:52.584Z</time></trkpt><trkpt lat="44.2766917" lon="8.2024067"><ele>742.0</ele><time>2026-04-06T07:42:54.584Z</time></trkpt><trkpt lat="44.2767383" lon="8.20233"><ele>742.0</ele><time>2026-04-06T07:42:56.583Z</time></trkpt><trkpt lat="44.276785" lon="8.2022567"><ele>742.0</ele><time>2026-04-06T07:42:58.583Z</time></trkpt><trkpt lat="44.2768267" lon="8.2021767"><ele>742.0</ele><time>2026-04-06T07:43:00.584Z</time></trkpt><trkpt lat="44.2768717" lon="8.202105"><ele>742.0</ele><time>2026-04-06T07:43:02.584Z</time></trkpt><trkpt lat="44.276935" lon="8.2020183"><ele>744.3333333333334</ele><time>2026-04-06T07:43:05.584Z</time></trkpt><trkpt lat="44.2769967" lon="8.201925"><ele>746.6666666666667</ele><time>2026-04-06T07:43:08.583Z</time></trkpt><trkpt lat="44.2770333" lon="8.201845"><ele>749.0</ele><time>2026-04-06T07:43:10.584Z</time></trkpt><trkpt lat="44.2770483" lon="8.2017567"><ele>751.3333333333334</ele><time>2026-04-06T07:43:12.584Z</time></trkpt><trkpt lat="44.2770267" lon="8.2016683"><ele>753.6666666666666</ele><time>2026-04-06T07:43:14.584Z</time></trkpt><trkpt lat="44.27698" lon="8.2016017"><ele>756.0</ele><time>2026-04-06T07:43:16.583Z</time></trkpt><trkpt lat="44.2768883" lon="8.2015767"><ele>756.0</ele><time>2026-04-06T07:43:19.584Z</time></trkpt><trkpt lat="44.27681" lon="8.2016267"><ele>756.0</ele><time>2026-04-06T07:43:22.584Z</time></trkpt><trkpt lat="44.2767567" lon="8.2016833"><ele>756.0</ele><time>2026-04-06T07:43:24.584Z</time></trkpt><trkpt lat="44.2766817" lon="8.201765"><ele>756.0</ele><time>2026-04-06T07:43:27.584Z</time></trkpt><trkpt lat="44.276605" lon="8.2018317"><ele>756.0</ele><time>2026-04-06T07:43:30.583Z</time></trkpt><trkpt lat="44.2765483" lon="8.2018717"><ele>756.0</ele><time>2026-04-06T07:43:32.584Z</time></trkpt><trkpt lat="44.2764617" lon="8.2019167"><ele>759.1428571428571</ele><time>2026-04-06T07:43:35.584Z</time></trkpt><trkpt lat="44.276395" lon="8.2019267"><ele>762.2857142857142</ele><time>2026-04-06T07:43:37.584Z</time></trkpt><trkpt lat="44.2763217" lon="8.2019733"><ele>765.4285714285714</ele><time>2026-04-06T07:43:40.584Z</time></trkpt><trkpt lat="44.2762567" lon="8.20201"><ele>768.5714285714286</ele><time>2026-04-06T07:43:43.584Z</time></trkpt><trkpt lat="44.27619" lon="8.2020667"><ele>771.7142857142857</ele><time>2026-04-06T07:43:47.584Z</time></trkpt><trkpt lat="44.2761333" lon="8.2021067"><ele>774.8571428571429</ele><time>2026-04-06T07:43:50.584Z</time></trkpt><trkpt lat="44.276055" lon="8.2021417"><ele>778.0</ele><time>2026-04-06T07:43:53.584Z</time></trkpt><trkpt lat="44.275975" lon="8.2021967"><ele>777.9999999999999</ele><time>2026-04-06T07:43:56.584Z</time></trkpt><trkpt lat="44.2759117" lon="8.2022467"><ele>778.0</ele><time>2026-04-06T07:43:58.583Z</time></trkpt><trkpt lat="44.2758383" lon="8.202305"><ele>778.0</ele><time>2026-04-06T07:44:01.584Z</time></trkpt><trkpt lat="44.2757733" lon="8.2023567"><ele>778.0</ele><time>2026-04-06T07:44:03.584Z</time></trkpt><trkpt lat="44.27571" lon="8.2024217"><ele>777.9999999999999</ele><time>2026-04-06T07:44:05.584Z</time></trkpt><trkpt lat="44.27565" lon="8.2024867"><ele>778.0</ele><time>2026-04-06T07:44:07.584Z</time></trkpt><trkpt lat="44.2755967" lon="8.2025467"><ele>776.1666666666666</ele><time>2026-04-06T07:44:09.584Z</time></trkpt><trkpt lat="44.275545" lon="8.2026033"><ele>774.3333333333333</ele><time>2026-04-06T07:44:11.584Z</time></trkpt><trkpt lat="44.2754833" lon="8.20265"><ele>772.5</ele><time>2026-04-06T07:44:13.584Z</time></trkpt><trkpt lat="44.275425" lon="8.2026833"><ele>770.6666666666666</ele><time>2026-04-06T07:44:15.583Z</time></trkpt><trkpt lat="44.2753517" lon="8.2026983"><ele>768.8333333333333</ele><time>2026-04-06T07:44:17.583Z</time></trkpt><trkpt lat="44.2752633" lon="8.2026933"><ele>767.0</ele><time>2026-04-06T07:44:20.583Z</time></trkpt><trkpt lat="44.2751717" lon="8.2026733"><ele>767.0</ele><time>2026-04-06T07:44:22.584Z</time></trkpt><trkpt lat="44.275085" lon="8.2026417"><ele>767.0</ele><time>2026-04-06T07:44:24.583Z</time></trkpt><trkpt lat="44.2750267" lon="8.20259"><ele>767.0</ele><time>2026-04-06T07:44:26.584Z</time></trkpt><trkpt lat="44.2749567" lon="8.2025417"><ele>767.0</ele><time>2026-04-06T07:44:28.584Z</time></trkpt><trkpt lat="44.2748683" lon="8.2025067"><ele>767.0</ele><time>2026-04-06T07:44:31.584Z</time></trkpt><trkpt lat="44.274775" lon="8.2025"><ele>767.0</ele><time>2026-04-06T07:44:34.584Z</time></trkpt><trkpt lat="44.2747017" lon="8.20251"><ele>768.7142857142858</ele><time>2026-04-06T07:44:36.584Z</time></trkpt><trkpt lat="44.2746383" lon="8.2025233"><ele>770.4285714285714</ele><time>2026-04-06T07:44:38.584Z</time></trkpt><trkpt lat="44.274575" lon="8.202545"><ele>772.1428571428571</ele><time>2026-04-06T07:44:40.583Z</time></trkpt><trkpt lat="44.2745" lon="8.20258"><ele>773.8571428571429</ele><time>2026-04-06T07:44:43.584Z</time></trkpt><trkpt lat="44.27443" lon="8.202625"><ele>775.5714285714286</ele><time>2026-04-06T07:44:46.584Z</time></trkpt><trkpt lat="44.2743533" lon="8.2026883"><ele>777.2857142857143</ele><time>2026-04-06T07:44:49.584Z</time></trkpt><trkpt lat="44.2742983" lon="8.202745"><ele>779.0</ele><time>2026-04-06T07:44:51.584Z</time></trkpt><trkpt lat="44.2742233" lon="8.2028117"><ele>779.0000000000001</ele><time>2026-04-06T07:44:54.583Z</time></trkpt><trkpt lat="44.2741683" lon="8.2028567"><ele>779.0</ele><time>2026-04-06T07:44:56.584Z</time></trkpt><trkpt lat="44.2741" lon="8.202935"><ele>779.0</ele><time>2026-04-06T07:44:59.584Z</time></trkpt><trkpt lat="44.2740417" lon="8.2030317"><ele>779.0</ele><time>2026-04-06T07:45:02.584Z</time></trkpt><trkpt lat="44.2739933" lon="8.2031067"><ele>779.0000000000001</ele><time>2026-04-06T07:45:05.584Z</time></trkpt><trkpt lat="44.2739283" lon="8.2031833"><ele>779.0</ele><time>2026-04-06T07:45:09.583Z</time></trkpt><trkpt lat="44.273865" lon="8.2032533"><ele>780.8333333333334</ele><time>2026-04-06T07:45:12.584Z</time></trkpt><trkpt lat="44.2738" lon="8.2033083"><ele>782.6666666666667</ele><time>2026-04-06T07:45:15.584Z</time></trkpt><trkpt lat="44.2737167" lon="8.203355"><ele>784.5</ele><time>2026-04-06T07:45:18.583Z</time></trkpt><trkpt lat="44.2736533" lon="8.2034067"><ele>786.3333333333333</ele><time>2026-04-06T07:45:20.584Z</time></trkpt><trkpt lat="44.27359" lon="8.20345"><ele>788.1666666666666</ele><time>2026-04-06T07:45:22.584Z</time></trkpt><trkpt lat="44.27352" lon="8.2035267"><ele>790.0</ele><time>2026-04-06T07:45:25.584Z</time></trkpt><trkpt lat="44.2734617" lon="8.2036"><ele>790.0</ele><time>2026-04-06T07:45:27.584Z</time></trkpt><trkpt lat="44.2734133" lon="8.20367"><ele>790.0</ele><time>2026-04-06T07:45:29.584Z</time></trkpt><trkpt lat="44.273365" lon="8.2037467"><ele>790.0</ele><time>2026-04-06T07:45:31.584Z</time></trkpt><trkpt lat="44.2733183" lon="8.2038117"><ele>790.0</ele><time>2026-04-06T07:45:33.584Z</time></trkpt><trkpt lat="44.2732533" lon="8.2038833"><ele>790.0</ele><time>2026-04-06T07:45:36.584Z</time></trkpt><trkpt lat="44.2731983" lon="8.20394"><ele>790.0</ele><time>2026-04-06T07:45:39.584Z</time></trkpt><trkpt lat="44.273135" lon="8.2039867"><ele>790.0</ele><time>2026-04-06T07:45:42.583Z</time></trkpt><trkpt lat="44.27307" lon="8.2040183"><ele>790.0</ele><time>2026-04-06T07:45:44.584Z</time></trkpt><trkpt lat="44.2730017" lon="8.2040467"><ele>790.0</ele><time>2026-04-06T07:45:47.584Z</time></trkpt><trkpt lat="44.272935" lon="8.204025"><ele>790.0</ele><time>2026-04-06T07:45:49.584Z</time></trkpt><trkpt lat="44.272895" lon="8.2039333"><ele>790.0</ele><time>2026-04-06T07:45:52.584Z</time></trkpt><trkpt lat="44.2729617" lon="8.2039133"><ele>790.0</ele><time>2026-04-06T07:45:59.584Z</time></trkpt><trkpt lat="44.27303" lon="8.20389"><ele>790.0</ele><time>2026-04-06T07:46:02.584Z</time></trkpt><trkpt lat="44.2731033" lon="8.2038317"><ele>790.0</ele><time>2026-04-06T07:46:05.583Z</time></trkpt><trkpt lat="44.2731233" lon="8.2037483"><ele>790.0</ele><time>2026-04-06T07:46:07.582Z</time></trkpt><trkpt lat="44.27311" lon="8.20365"><ele>790.0</ele><time>2026-04-06T07:46:09.583Z</time></trkpt><trkpt lat="44.2730717" lon="8.203575"><ele>790.0</ele><time>2026-04-06T07:46:11.583Z</time></trkpt><trkpt lat="44.2730183" lon="8.2035267"><ele>790.0</ele><time>2026-04-06T07:46:14.583Z</time></trkpt><trkpt lat="44.2729817" lon="8.2034417"><ele>790.0</ele><time>2026-04-06T07:46:17.583Z</time></trkpt><trkpt lat="44.2729033" lon="8.20346"><ele>790.0</ele><time>2026-04-06T07:46:21.583Z</time></trkpt><trkpt lat="44.272835" lon="8.2035017"><ele>790.0</ele><time>2026-04-06T07:46:23.583Z</time></trkpt><trkpt lat="44.2727533" lon="8.20355"><ele>792.1428571428571</ele><time>2026-04-06T07:46:26.583Z</time></trkpt><trkpt lat="44.2726833" lon="8.2035817"><ele>794.2857142857143</ele><time>2026-04-06T07:46:28.582Z</time></trkpt><trkpt lat="44.2726083" lon="8.2036233"><ele>796.4285714285714</ele><time>2026-04-06T07:46:30.582Z</time></trkpt><trkpt lat="44.27254" lon="8.20367"><ele>798.5714285714286</ele><time>2026-04-06T07:46:33.583Z</time></trkpt><trkpt lat="44.2724833" lon="8.20371"><ele>800.7142857142858</ele><time>2026-04-06T07:46:36.583Z</time></trkpt><trkpt lat="44.2724217" lon="8.2037833"><ele>802.8571428571429</ele><time>2026-04-06T07:46:39.583Z</time></trkpt><trkpt lat="44.2723633" lon="8.2038467"><ele>805.0</ele><time>2026-04-06T07:46:41.583Z</time></trkpt><trkpt lat="44.2722717" lon="8.203925"><ele>805.3333333333333</ele><time>2026-04-06T07:46:43.584Z</time></trkpt><trkpt lat="44.2722233" lon="8.20402"><ele>805.6666666666666</ele><time>2026-04-06T07:46:45.582Z</time></trkpt><trkpt lat="44.2721617" lon="8.2041083"><ele>806.0</ele><time>2026-04-06T07:46:47.582Z</time></trkpt><trkpt lat="44.2720967" lon="8.2041933"><ele>806.3333333333333</ele><time>2026-04-06T07:46:49.583Z</time></trkpt><trkpt lat="44.2720333" lon="8.204255"><ele>806.6666666666666</ele><time>2026-04-06T07:46:51.583Z</time></trkpt><trkpt lat="44.2719667" lon="8.2042933"><ele>807.0</ele><time>2026-04-06T07:46:53.583Z</time></trkpt><trkpt lat="44.2718817" lon="8.2043583"><ele>807.0</ele><time>2026-04-06T07:46:55.583Z</time></trkpt><trkpt lat="44.271795" lon="8.204395"><ele>807.0</ele><time>2026-04-06T07:46:57.582Z</time></trkpt><trkpt lat="44.2717" lon="8.2044267"><ele>807.0</ele><time>2026-04-06T07:46:59.583Z</time></trkpt><trkpt lat="44.2716167" lon="8.2044467"><ele>807.0</ele><time>2026-04-06T07:47:01.583Z</time></trkpt><trkpt lat="44.271525" lon="8.2044683"><ele>807.0</ele><time>2026-04-06T07:47:04.583Z</time></trkpt><trkpt lat="44.27143" lon="8.2044933"><ele>810.0000000000001</ele><time>2026-04-06T07:47:07.584Z</time></trkpt><trkpt lat="44.2713617" lon="8.2045117"><ele>813.0</ele><time>2026-04-06T07:47:09.583Z</time></trkpt><trkpt lat="44.2712917" lon="8.2045467"><ele>816.0</ele><time>2026-04-06T07:47:12.583Z</time></trkpt><trkpt lat="44.2712167" lon="8.2045533"><ele>819.0</ele><time>2026-04-06T07:47:15.583Z</time></trkpt><trkpt lat="44.2711433" lon="8.2045867"><ele>822.0</ele><time>2026-04-06T07:47:18.583Z</time></trkpt><trkpt lat="44.2710767" lon="8.2046367"><ele>825.0000000000001</ele><time>2026-04-06T07:47:20.583Z</time></trkpt><trkpt lat="44.2710133" lon="8.2046867"><ele>828.0</ele><time>2026-04-06T07:47:22.582Z</time></trkpt><trkpt lat="44.2709383" lon="8.2047533"><ele>825.0</ele><time>2026-04-06T07:47:24.583Z</time></trkpt><trkpt lat="44.270865" lon="8.20484"><ele>822.0</ele><time>2026-04-06T07:47:26.583Z</time></trkpt><trkpt lat="44.270785" lon="8.20494"><ele>819.0</ele><time>2026-04-06T07:47:28.583Z</time></trkpt><trkpt lat="44.2707367" lon="8.2050133"><ele>816.0</ele><time>2026-04-06T07:47:30.583Z</time></trkpt><trkpt lat="44.270675" lon="8.2051283"><ele>813.0</ele><time>2026-04-06T07:47:32.583Z</time></trkpt><trkpt lat="44.2706317" lon="8.2052183"><ele>813.0</ele><time>2026-04-06T07:47:34.584Z</time></trkpt><trkpt lat="44.2706083" lon="8.2053167"><ele>813.0</ele><time>2026-04-06T07:47:36.584Z</time></trkpt><trkpt lat="44.27059" lon="8.2054217"><ele>813.0</ele><time>2026-04-06T07:47:38.583Z</time></trkpt><trkpt lat="44.270555" lon="8.205505"><ele>813.0</ele><time>2026-04-06T07:47:40.584Z</time></trkpt><trkpt lat="44.2705233" lon="8.2056367"><ele>813.0</ele><time>2026-04-06T07:47:43.583Z</time></trkpt><trkpt lat="44.2705067" lon="8.20573"><ele>813.0</ele><time>2026-04-06T07:47:45.583Z</time></trkpt><trkpt lat="44.2704883" lon="8.2058167"><ele>816.8571428571429</ele><time>2026-04-06T07:47:47.583Z</time></trkpt><trkpt lat="44.2704533" lon="8.20594"><ele>820.7142857142857</ele><time>2026-04-06T07:47:50.584Z</time></trkpt><trkpt lat="44.27043" lon="8.2060267"><ele>824.5714285714286</ele><time>2026-04-06T07:47:52.583Z</time></trkpt><trkpt lat="44.2704067" lon="8.2061217"><ele>828.4285714285714</ele><time>2026-04-06T07:47:54.583Z</time></trkpt><trkpt lat="44.270385" lon="8.2062133"><ele>832.2857142857142</ele><time>2026-04-06T07:47:56.583Z</time></trkpt><trkpt lat="44.27036" lon="8.2063017"><ele>836.1428571428571</ele><time>2026-04-06T07:47:58.583Z</time></trkpt><trkpt lat="44.2703333" lon="8.2063833"><ele>840.0</ele><time>2026-04-06T07:48:00.583Z</time></trkpt><trkpt lat="44.2703133" lon="8.2064767"><ele>839.2857142857143</ele><time>2026-04-06T07:48:02.583Z</time></trkpt><trkpt lat="44.2702917" lon="8.2065667"><ele>838.5714285714286</ele><time>2026-04-06T07:48:04.582Z</time></trkpt><trkpt lat="44.2702733" lon="8.2066617"><ele>837.8571428571429</ele><time>2026-04-06T07:48:06.583Z</time></trkpt><trkpt lat="44.2702533" lon="8.2067567"><ele>837.1428571428571</ele><time>2026-04-06T07:48:08.584Z</time></trkpt><trkpt lat="44.2702317" lon="8.2068433"><ele>836.4285714285714</ele><time>2026-04-06T07:48:10.583Z</time></trkpt><trkpt lat="44.2702067" lon="8.2069383"><ele>835.7142857142858</ele><time>2026-04-06T07:48:12.583Z</time></trkpt><trkpt lat="44.2701867" lon="8.207035"><ele>835.0</ele><time>2026-04-06T07:48:14.583Z</time></trkpt><trkpt lat="44.27017" lon="8.2071333"><ele>835.0000000000001</ele><time>2026-04-06T07:48:16.583Z</time></trkpt><trkpt lat="44.2701483" lon="8.207225"><ele>835.0</ele><time>2026-04-06T07:48:18.583Z</time></trkpt><trkpt lat="44.2701283" lon="8.2073183"><ele>835.0</ele><time>2026-04-06T07:48:20.583Z</time></trkpt><trkpt lat="44.2701133" lon="8.20742"><ele>835.0</ele><time>2026-04-06T07:48:22.583Z</time></trkpt><trkpt lat="44.2701017" lon="8.2075233"><ele>835.0</ele><time>2026-04-06T07:48:24.583Z</time></trkpt><trkpt lat="44.270085" lon="8.207635"><ele>835.0000000000001</ele><time>2026-04-06T07:48:26.583Z</time></trkpt><trkpt lat="44.2700683" lon="8.2077433"><ele>835.0</ele><time>2026-04-06T07:48:28.583Z</time></trkpt><trkpt lat="44.2700517" lon="8.207855"><ele>833.6666666666666</ele><time>2026-04-06T07:48:30.583Z</time></trkpt><trkpt lat="44.2700367" lon="8.2079617"><ele>832.3333333333333</ele><time>2026-04-06T07:48:32.583Z</time></trkpt><trkpt lat="44.2700267" lon="8.2080783"><ele>831.0</ele><time>2026-04-06T07:48:34.583Z</time></trkpt><trkpt lat="44.2699883" lon="8.20817"><ele>829.6666666666667</ele><time>2026-04-06T07:48:36.583Z</time></trkpt><trkpt lat="44.2699383" lon="8.2082617"><ele>828.3333333333334</ele><time>2026-04-06T07:48:38.583Z</time></trkpt><trkpt lat="44.2698867" lon="8.208345"><ele>827.0</ele><time>2026-04-06T07:48:40.583Z</time></trkpt><trkpt lat="44.269835" lon="8.2084333"><ele>825.4000000000001</ele><time>2026-04-06T07:48:42.583Z</time></trkpt><trkpt lat="44.269795" lon="8.20854"><ele>823.8000000000001</ele><time>2026-04-06T07:48:44.583Z</time></trkpt><trkpt lat="44.2697667" lon="8.208665"><ele>822.2</ele><time>2026-04-06T07:48:46.582Z</time></trkpt><trkpt lat="44.2697667" lon="8.2088067"><ele>820.6</ele><time>2026-04-06T07:48:48.583Z</time></trkpt><trkpt lat="44.2697883" lon="8.2089417"><ele>819.0</ele><time>2026-04-06T07:48:50.583Z</time></trkpt><trkpt lat="44.2698317" lon="8.20909"><ele>818.0</ele><time>2026-04-06T07:48:52.582Z</time></trkpt><trkpt lat="44.2698817" lon="8.20925"><ele>817.0</ele><time>2026-04-06T07:48:54.582Z</time></trkpt><trkpt lat="44.2699217" lon="8.2094167"><ele>816.0</ele><time>2026-04-06T07:48:56.582Z</time></trkpt><trkpt lat="44.269945" lon="8.2095067"><ele>815.0</ele><time>2026-04-06T07:48:57.583Z</time></trkpt><trkpt lat="44.2699683" lon="8.2095983"><ele>814.0</ele><time>2026-04-06T07:48:58.583Z</time></trkpt><trkpt lat="44.2699917" lon="8.20969"><ele>813.9999999999999</ele><time>2026-04-06T07:48:59.583Z</time></trkpt><trkpt lat="44.270015" lon="8.2097817"><ele>814.0</ele><time>2026-04-06T07:49:00.583Z</time></trkpt><trkpt lat="44.2700383" lon="8.2098717"><ele>814.0</ele><time>2026-04-06T07:49:01.584Z</time></trkpt><trkpt lat="44.270065" lon="8.209955"><ele>814.0</ele><time>2026-04-06T07:49:02.583Z</time></trkpt><trkpt lat="44.2700967" lon="8.2100317"><ele>813.9999999999999</ele><time>2026-04-06T07:49:03.583Z</time></trkpt><trkpt lat="44.2701867" lon="8.210135"><ele>814.0</ele><time>2026-04-06T07:49:05.583Z</time></trkpt><trkpt lat="44.2702933" lon="8.210175"><ele>814.75</ele><time>2026-04-06T07:49:07.583Z</time></trkpt><trkpt lat="44.2704067" lon="8.210215"><ele>815.5</ele><time>2026-04-06T07:49:09.583Z</time></trkpt><trkpt lat="44.2705083" lon="8.2103033"><ele>816.25</ele><time>2026-04-06T07:49:11.583Z</time></trkpt><trkpt lat="44.270595" lon="8.2104217"><ele>817.0</ele><time>2026-04-06T07:49:13.583Z</time></trkpt><trkpt lat="44.2706517" lon="8.2105633"><ele>815.1428571428571</ele><time>2026-04-06T07:49:15.583Z</time></trkpt><trkpt lat="44.2706833" lon="8.2106567"><ele>813.2857142857142</ele><time>2026-04-06T07:49:16.583Z</time></trkpt><trkpt lat="44.2707167" lon="8.2107483"><ele>811.4285714285713</ele><time>2026-04-06T07:49:17.583Z</time></trkpt><trkpt lat="44.27075" lon="8.21084"><ele>809.5714285714286</ele><time>2026-04-06T07:49:18.582Z</time></trkpt><trkpt lat="44.2707867" lon="8.21092"><ele>807.7142857142858</ele><time>2026-04-06T07:49:19.583Z</time></trkpt><trkpt lat="44.2708217" lon="8.211005"><ele>805.8571428571428</ele><time>2026-04-06T07:49:20.584Z</time></trkpt><trkpt lat="44.2708533" lon="8.211085"><ele>804.0</ele><time>2026-04-06T07:49:21.582Z</time></trkpt><trkpt lat="44.2709133" lon="8.21123"><ele>804.0</ele><time>2026-04-06T07:49:23.584Z</time></trkpt><trkpt lat="44.2709483" lon="8.2113033"><ele>804.0</ele><time>2026-04-06T07:49:24.583Z</time></trkpt><trkpt lat="44.2709933" lon="8.2113683"><ele>804.0</ele><time>2026-04-06T07:49:25.583Z</time></trkpt><trkpt lat="44.2710467" lon="8.2114183"><ele>804.0</ele><time>2026-04-06T07:49:26.583Z</time></trkpt><trkpt lat="44.2711067" lon="8.2114583"><ele>804.0</ele><time>2026-04-06T07:49:27.583Z</time></trkpt><trkpt lat="44.27117" lon="8.211465"><ele>804.0</ele><time>2026-04-06T07:49:28.583Z</time></trkpt><trkpt lat="44.27124" lon="8.2114683"><ele>804.0</ele><time>2026-04-06T07:49:29.583Z</time></trkpt><trkpt lat="44.2713167" lon="8.2114633"><ele>804.0</ele><time>2026-04-06T07:49:30.583Z</time></trkpt><trkpt lat="44.271395" lon="8.211455"><ele>804.0</ele><time>2026-04-06T07:49:31.583Z</time></trkpt><trkpt lat="44.2714683" lon="8.211455"><ele>804.0</ele><time>2026-04-06T07:49:32.583Z</time></trkpt><trkpt lat="44.2715433" lon="8.21146"><ele>804.0</ele><time>2026-04-06T07:49:33.583Z</time></trkpt><trkpt lat="44.2716117" lon="8.2114667"><ele>804.0</ele><time>2026-04-06T07:49:34.583Z</time></trkpt><trkpt lat="44.2716767" lon="8.2114683"><ele>804.0</ele><time>2026-04-06T07:49:35.583Z</time></trkpt><trkpt lat="44.2717433" lon="8.2114617"><ele>804.0</ele><time>2026-04-06T07:49:36.582Z</time></trkpt><trkpt lat="44.2718633" lon="8.2114467"><ele>800.0</ele><time>2026-04-06T07:49:38.583Z</time></trkpt><trkpt lat="44.271975" lon="8.2114483"><ele>796.0</ele><time>2026-04-06T07:49:40.583Z</time></trkpt><trkpt lat="44.2720733" lon="8.2114567"><ele>792.0</ele><time>2026-04-06T07:49:42.583Z</time></trkpt><trkpt lat="44.272175" lon="8.21146"><ele>788.0</ele><time>2026-04-06T07:49:44.583Z</time></trkpt><trkpt lat="44.272275" lon="8.21146"><ele>784.0</ele><time>2026-04-06T07:49:46.583Z</time></trkpt><trkpt lat="44.27238" lon="8.21147"><ele>783.8000000000001</ele><time>2026-04-06T07:49:48.583Z</time></trkpt><trkpt lat="44.272485" lon="8.2114883"><ele>783.6</ele><time>2026-04-06T07:49:50.583Z</time></trkpt><trkpt lat="44.27259" lon="8.2115083"><ele>783.4</ele><time>2026-04-06T07:49:52.583Z</time></trkpt><trkpt lat="44.2726967" lon="8.2115267"><ele>783.2</ele><time>2026-04-06T07:49:54.583Z</time></trkpt><trkpt lat="44.2727983" lon="8.2115433"><ele>783.0</ele><time>2026-04-06T07:49:56.583Z</time></trkpt><trkpt lat="44.272905" lon="8.211575"><ele>784.1666666666666</ele><time>2026-04-06T07:49:58.583Z</time></trkpt><trkpt lat="44.2730083" lon="8.211645"><ele>785.3333333333333</ele><time>2026-04-06T07:50:00.583Z</time></trkpt><trkpt lat="44.2730717" lon="8.211685"><ele>786.5</ele><time>2026-04-06T07:50:01.583Z</time></trkpt><trkpt lat="44.2731283" lon="8.21173"><ele>787.6666666666666</ele><time>2026-04-06T07:50:02.582Z</time></trkpt><trkpt lat="44.2731833" lon="8.211775"><ele>788.8333333333333</ele><time>2026-04-06T07:50:03.583Z</time></trkpt><trkpt lat="44.2732333" lon="8.211835"><ele>790.0</ele><time>2026-04-06T07:50:04.583Z</time></trkpt><trkpt lat="44.27329" lon="8.2118983"><ele>790.0</ele><time>2026-04-06T07:50:05.583Z</time></trkpt><trkpt lat="44.27334" lon="8.21197"><ele>790.0</ele><time>2026-04-06T07:50:06.583Z</time></trkpt><trkpt lat="44.2733967" lon="8.2120383"><ele>790.0</ele><time>2026-04-06T07:50:07.583Z</time></trkpt><trkpt lat="44.2734517" lon="8.2121067"><ele>790.0</ele><time>2026-04-06T07:50:08.583Z</time></trkpt><trkpt lat="44.273515" lon="8.2121617"><ele>790.0</ele><time>2026-04-06T07:50:09.582Z</time></trkpt><trkpt lat="44.2735833" lon="8.2122117"><ele>790.0</ele><time>2026-04-06T07:50:10.583Z</time></trkpt><trkpt lat="44.2736467" lon="8.212265"><ele>790.0</ele><time>2026-04-06T07:50:11.583Z</time></trkpt><trkpt lat="44.2737067" lon="8.21231"><ele>789.8333333333333</ele><time>2026-04-06T07:50:12.582Z</time></trkpt><trkpt lat="44.2738117" lon="8.2123767"><ele>789.6666666666666</ele><time>2026-04-06T07:50:14.583Z</time></trkpt><trkpt lat="44.2738883" lon="8.2124467"><ele>789.5</ele><time>2026-04-06T07:50:16.583Z</time></trkpt><trkpt lat="44.2739417" lon="8.2125033"><ele>789.3333333333333</ele><time>2026-04-06T07:50:18.583Z</time></trkpt><trkpt lat="44.27401" lon="8.2125733"><ele>789.1666666666666</ele><time>2026-04-06T07:50:21.582Z</time></trkpt><trkpt lat="44.2740767" lon="8.2126167"><ele>789.0</ele><time>2026-04-06T07:50:24.583Z</time></trkpt><trkpt lat="44.2741383" lon="8.2126767"><ele>790.1666666666666</ele><time>2026-04-06T07:50:27.583Z</time></trkpt><trkpt lat="44.2742117" lon="8.2127333"><ele>791.3333333333333</ele><time>2026-04-06T07:50:30.583Z</time></trkpt><trkpt lat="44.2742767" lon="8.2127833"><ele>792.5</ele><time>2026-04-06T07:50:33.583Z</time></trkpt><trkpt lat="44.274355" lon="8.21284"><ele>793.6666666666666</ele><time>2026-04-06T07:50:36.583Z</time></trkpt><trkpt lat="44.27444" lon="8.2128733"><ele>794.8333333333333</ele><time>2026-04-06T07:50:39.582Z</time></trkpt><trkpt lat="44.2745283" lon="8.2129067"><ele>796.0</ele><time>2026-04-06T07:50:42.583Z</time></trkpt><trkpt lat="44.2746217" lon="8.21294"><ele>795.9999999999999</ele><time>2026-04-06T07:50:45.583Z</time></trkpt><trkpt lat="44.274705" lon="8.2129767"><ele>796.0</ele><time>2026-04-06T07:50:48.583Z</time></trkpt><trkpt lat="44.2747683" lon="8.2129917"><ele>796.0</ele><time>2026-04-06T07:50:51.583Z</time></trkpt><trkpt lat="44.2748467" lon="8.212995"><ele>796.0</ele><time>2026-04-06T07:50:54.583Z</time></trkpt><trkpt lat="44.274925" lon="8.2130233"><ele>795.9999999999999</ele><time>2026-04-06T07:50:58.583Z</time></trkpt><trkpt lat="44.2749883" lon="8.21307"><ele>796.0</ele><time>2026-04-06T07:51:01.583Z</time></trkpt><trkpt lat="44.2750617" lon="8.2131217"><ele>798.7142857142857</ele><time>2026-04-06T07:51:04.583Z</time></trkpt><trkpt lat="44.2751267" lon="8.2131633"><ele>801.4285714285714</ele><time>2026-04-06T07:51:07.583Z</time></trkpt><trkpt lat="44.27519" lon="8.213205"><ele>804.1428571428571</ele><time>2026-04-06T07:51:10.582Z</time></trkpt><trkpt lat="44.2752533" lon="8.2132383"><ele>806.8571428571429</ele><time>2026-04-06T07:51:13.583Z</time></trkpt><trkpt lat="44.2753233" lon="8.2132617"><ele>809.5714285714286</ele><time>2026-04-06T07:51:16.583Z</time></trkpt><trkpt lat="44.2753917" lon="8.213295"><ele>812.2857142857142</ele><time>2026-04-06T07:51:19.583Z</time></trkpt><trkpt lat="44.2754533" lon="8.2133417"><ele>815.0</ele><time>2026-04-06T07:51:22.583Z</time></trkpt><trkpt lat="44.27552" lon="8.2133883"><ele>815.0</ele><time>2026-04-06T07:51:25.583Z</time></trkpt><trkpt lat="44.275585" lon="8.213425"><ele>815.0</ele><time>2026-04-06T07:51:28.583Z</time></trkpt><trkpt lat="44.2756617" lon="8.2134567"><ele>815.0</ele><time>2026-04-06T07:51:32.583Z</time></trkpt><trkpt lat="44.2757283" lon="8.21346"><ele>815.0</ele><time>2026-04-06T07:51:35.582Z</time></trkpt><trkpt lat="44.2758017" lon="8.2134467"><ele>815.0</ele><time>2026-04-06T07:51:38.584Z</time></trkpt><trkpt lat="44.2758717" lon="8.21343"><ele>815.0</ele><time>2026-04-06T07:51:41.583Z</time></trkpt><trkpt lat="44.275945" lon="8.2133933"><ele>815.0</ele><time>2026-04-06T07:51:44.583Z</time></trkpt><trkpt lat="44.2760183" lon="8.2133567"><ele>817.1428571428571</ele><time>2026-04-06T07:51:48.583Z</time></trkpt><trkpt lat="44.27608" lon="8.2133217"><ele>819.2857142857142</ele><time>2026-04-06T07:51:51.583Z</time></trkpt><trkpt lat="44.2761583" lon="8.213295"><ele>821.4285714285714</ele><time>2026-04-06T07:51:55.583Z</time></trkpt><trkpt lat="44.2762333" lon="8.2132567"><ele>823.5714285714286</ele><time>2026-04-06T07:51:59.583Z</time></trkpt><trkpt lat="44.2763117" lon="8.21322"><ele>825.7142857142858</ele><time>2026-04-06T07:52:03.583Z</time></trkpt><trkpt lat="44.2763733" lon="8.21319"><ele>827.8571428571429</ele><time>2026-04-06T07:52:06.583Z</time></trkpt><trkpt lat="44.2764383" lon="8.21316"><ele>830.0</ele><time>2026-04-06T07:52:09.583Z</time></trkpt><trkpt lat="44.2765" lon="8.213135"><ele>830.7142857142858</ele><time>2026-04-06T07:52:12.583Z</time></trkpt><trkpt lat="44.2765617" lon="8.2131133"><ele>831.4285714285714</ele><time>2026-04-06T07:52:15.583Z</time></trkpt><trkpt lat="44.27664" lon="8.213095"><ele>832.1428571428571</ele><time>2026-04-06T07:52:19.583Z</time></trkpt><trkpt lat="44.27671" lon="8.2130817"><ele>832.8571428571429</ele><time>2026-04-06T07:52:22.583Z</time></trkpt><trkpt lat="44.2767867" lon="8.21305"><ele>833.5714285714286</ele><time>2026-04-06T07:52:25.583Z</time></trkpt><trkpt lat="44.2768667" lon="8.2130133"><ele>834.2857142857143</ele><time>2026-04-06T07:52:29.582Z</time></trkpt><trkpt lat="44.2769333" lon="8.21298"><ele>835.0</ele><time>2026-04-06T07:52:32.582Z</time></trkpt><trkpt lat="44.27699" lon="8.2129367"><ele>834.9999999999999</ele><time>2026-04-06T07:52:35.583Z</time></trkpt><trkpt lat="44.27706" lon="8.2128817"><ele>835.0</ele><time>2026-04-06T07:52:39.583Z</time></trkpt><trkpt lat="44.2771217" lon="8.2128433"><ele>835.0</ele><time>2026-04-06T07:52:42.582Z</time></trkpt><trkpt lat="44.2772067" lon="8.2127133"><ele>835.0</ele><time>2026-04-06T07:52:45.583Z</time></trkpt><trkpt lat="44.27725" lon="8.2126133"><ele>834.9999999999999</ele><time>2026-04-06T07:52:48.583Z</time></trkpt><trkpt lat="44.27729" lon="8.21254"><ele>835.0</ele><time>2026-04-06T07:52:51.583Z</time></trkpt><trkpt lat="44.2773283" lon="8.212455"><ele>836.1666666666666</ele><time>2026-04-06T07:52:53.583Z</time></trkpt><trkpt lat="44.277355" lon="8.2123617"><ele>837.3333333333333</ele><time>2026-04-06T07:52:55.583Z</time></trkpt><trkpt lat="44.2773867" lon="8.212265"><ele>838.5</ele><time>2026-04-06T07:52:59.583Z</time></trkpt><trkpt lat="44.2773233" lon="8.212125"><ele>839.6666666666667</ele><time>2026-04-06T07:54:34.583Z</time></trkpt><trkpt lat="44.27731" lon="8.2120033"><ele>840.8333333333334</ele><time>2026-04-06T07:56:22.583Z</time></trkpt><trkpt lat="44.2773317" lon="8.2118933"><ele>842.0</ele><time>2026-04-06T07:56:24.584Z</time></trkpt><trkpt lat="44.2773533" lon="8.2118033"><ele>842.0000000000001</ele><time>2026-04-06T07:56:26.582Z</time></trkpt><trkpt lat="44.2773933" lon="8.2117333"><ele>842.0</ele><time>2026-04-06T07:56:28.582Z</time></trkpt><trkpt lat="44.2774633" lon="8.21172"><ele>842.0</ele><time>2026-04-06T07:56:30.583Z</time></trkpt><trkpt lat="44.27754" lon="8.2116883"><ele>842.0</ele><time>2026-04-06T07:56:32.583Z</time></trkpt><trkpt lat="44.2776117" lon="8.2116683"><ele>842.0</ele><time>2026-04-06T07:56:34.582Z</time></trkpt><trkpt lat="44.2776833" lon="8.2116767"><ele>842.0000000000001</ele><time>2026-04-06T07:56:36.583Z</time></trkpt><trkpt lat="44.2777567" lon="8.2116867"><ele>842.0</ele><time>2026-04-06T07:56:38.584Z</time></trkpt><trkpt lat="44.277815" lon="8.2117283"><ele>842.0000000000001</ele><time>2026-04-06T07:56:40.583Z</time></trkpt><trkpt lat="44.2778683" lon="8.2118467"><ele>842.0</ele><time>2026-04-06T07:56:43.583Z</time></trkpt><trkpt lat="44.2779083" lon="8.2119167"><ele>842.0</ele><time>2026-04-06T07:56:45.583Z</time></trkpt><trkpt lat="44.2779433" lon="8.2120067"><ele>842.0</ele><time>2026-04-06T07:56:47.582Z</time></trkpt><trkpt lat="44.2779417" lon="8.2120983"><ele>842.0</ele><time>2026-04-06T07:56:49.583Z</time></trkpt><trkpt lat="44.27795" lon="8.2121983"><ele>842.0000000000001</ele><time>2026-04-06T07:56:52.583Z</time></trkpt><trkpt lat="44.2779933" lon="8.2122683"><ele>842.0</ele><time>2026-04-06T07:56:54.582Z</time></trkpt><trkpt lat="44.2780667" lon="8.212305"><ele>838.8</ele><time>2026-04-06T07:56:57.584Z</time></trkpt><trkpt lat="44.2781433" lon="8.2123217"><ele>835.6</ele><time>2026-04-06T07:56:59.583Z</time></trkpt><trkpt lat="44.27825" lon="8.2123067"><ele>832.4</ele><time>2026-04-06T07:57:01.583Z</time></trkpt><trkpt lat="44.27834" lon="8.212285"><ele>829.1999999999999</ele><time>2026-04-06T07:57:03.583Z</time></trkpt><trkpt lat="44.2784483" lon="8.2122733"><ele>826.0</ele><time>2026-04-06T07:57:05.583Z</time></trkpt><trkpt lat="44.278555" lon="8.212275"><ele>825.9999999999999</ele><time>2026-04-06T07:57:07.583Z</time></trkpt><trkpt lat="44.2786717" lon="8.2122633"><ele>826.0</ele><time>2026-04-06T07:57:09.583Z</time></trkpt><trkpt lat="44.2788" lon="8.2122467"><ele>826.0</ele><time>2026-04-06T07:57:11.582Z</time></trkpt><trkpt lat="44.27887" lon="8.2122233"><ele>826.0</ele><time>2026-04-06T07:57:12.583Z</time></trkpt><trkpt lat="44.2789333" lon="8.212215"><ele>825.9999999999999</ele><time>2026-04-06T07:57:13.582Z</time></trkpt><trkpt lat="44.2789983" lon="8.212205"><ele>826.0</ele><time>2026-04-06T07:57:14.583Z</time></trkpt><trkpt lat="44.2790633" lon="8.21219"><ele>821.1999999999999</ele><time>2026-04-06T07:57:15.583Z</time></trkpt><trkpt lat="44.2791267" lon="8.2121733"><ele>816.4</ele><time>2026-04-06T07:57:16.582Z</time></trkpt><trkpt lat="44.2791933" lon="8.2121633"><ele>811.6</ele><time>2026-04-06T07:57:17.582Z</time></trkpt><trkpt lat="44.27931" lon="8.2121817"><ele>806.8</ele><time>2026-04-06T07:57:19.583Z</time></trkpt><trkpt lat="44.279425" lon="8.21219"><ele>802.0</ele><time>2026-04-06T07:57:21.584Z</time></trkpt><trkpt lat="44.2795167" lon="8.2121933"><ele>801.9999999999999</ele><time>2026-04-06T07:57:22.583Z</time></trkpt><trkpt lat="44.279585" lon="8.2122083"><ele>802.0</ele><time>2026-04-06T07:57:23.583Z</time></trkpt><trkpt lat="44.2796883" lon="8.2122217"><ele>802.0</ele><time>2026-04-06T07:57:25.583Z</time></trkpt><trkpt lat="44.2797983" lon="8.21223"><ele>802.0</ele><time>2026-04-06T07:57:28.583Z</time></trkpt><trkpt lat="44.279865" lon="8.2122017"><ele>801.9999999999999</ele><time>2026-04-06T07:58:17.582Z</time></trkpt><trkpt lat="44.2799467" lon="8.2121483"><ele>802.0</ele><time>2026-04-06T07:58:20.583Z</time></trkpt><trkpt lat="44.280055" lon="8.212055"><ele>801.6666666666666</ele><time>2026-04-06T07:58:24.583Z</time></trkpt><trkpt lat="44.28013" lon="8.2120117"><ele>801.3333333333333</ele><time>2026-04-06T07:58:27.583Z</time></trkpt><trkpt lat="44.2801733" lon="8.2119333"><ele>801.0</ele><time>2026-04-06T07:58:30.584Z</time></trkpt><trkpt lat="44.2801567" lon="8.2118417"><ele>800.6666666666667</ele><time>2026-04-06T07:58:34.583Z</time></trkpt><trkpt lat="44.2800783" lon="8.21182"><ele>800.3333333333334</ele><time>2026-04-06T07:58:38.583Z</time></trkpt><trkpt lat="44.2801133" lon="8.2117033"><ele>800.0</ele><time>2026-04-06T07:58:42.583Z</time></trkpt><trkpt lat="44.2801667" lon="8.211625"><ele>800.0000000000001</ele><time>2026-04-06T07:58:44.582Z</time></trkpt><trkpt lat="44.28022" lon="8.2115733"><ele>800.0</ele><time>2026-04-06T07:58:47.583Z</time></trkpt><trkpt lat="44.2802683" lon="8.2114967"><ele>800.0</ele><time>2026-04-06T07:58:50.583Z</time></trkpt><trkpt lat="44.2802983" lon="8.2114083"><ele>800.0</ele><time>2026-04-06T07:58:52.583Z</time></trkpt><trkpt lat="44.2803683" lon="8.2113333"><ele>800.0</ele><time>2026-04-06T07:58:55.582Z</time></trkpt><trkpt lat="44.280445" lon="8.2113617"><ele>800.0000000000001</ele><time>2026-04-06T07:58:57.583Z</time></trkpt><trkpt lat="44.2804967" lon="8.2114217"><ele>800.0</ele><time>2026-04-06T07:58:59.583Z</time></trkpt><trkpt lat="44.2805367" lon="8.21153"><ele>800.0000000000001</ele><time>2026-04-06T07:59:01.582Z</time></trkpt><trkpt lat="44.2805833" lon="8.2116167"><ele>800.0</ele><time>2026-04-06T07:59:04.583Z</time></trkpt><trkpt lat="44.2806283" lon="8.2115467"><ele>800.0</ele><time>2026-04-06T07:59:07.582Z</time></trkpt><trkpt lat="44.2806617" lon="8.2114367"><ele>800.0</ele><time>2026-04-06T07:59:10.583Z</time></trkpt><trkpt lat="44.28066" lon="8.21133"><ele>800.0000000000001</ele><time>2026-04-06T07:59:13.583Z</time></trkpt><trkpt lat="44.2806967" lon="8.2112367"><ele>800.0</ele><time>2026-04-06T07:59:16.583Z</time></trkpt><trkpt lat="44.2807767" lon="8.2112083"><ele>796.1666666666667</ele><time>2026-04-06T07:59:19.582Z</time></trkpt><trkpt lat="44.2808483" lon="8.2112833"><ele>792.3333333333334</ele><time>2026-04-06T07:59:22.583Z</time></trkpt><trkpt lat="44.280905" lon="8.2113433"><ele>788.5</ele><time>2026-04-06T07:59:24.583Z</time></trkpt><trkpt lat="44.2809783" lon="8.2114067"><ele>784.6666666666667</ele><time>2026-04-06T07:59:27.583Z</time></trkpt><trkpt lat="44.2810567" lon="8.2113717"><ele>780.8333333333334</ele><time>2026-04-06T07:59:30.583Z</time></trkpt><trkpt lat="44.2811383" lon="8.2113417"><ele>777.0</ele><time>2026-04-06T07:59:32.583Z</time></trkpt><trkpt lat="44.2812233" lon="8.2112617"><ele>777.0</ele><time>2026-04-06T07:59:34.583Z</time></trkpt><trkpt lat="44.28127" lon="8.2111817"><ele>777.0</ele><time>2026-04-06T07:59:36.583Z</time></trkpt><trkpt lat="44.2813" lon="8.2110617"><ele>777.0</ele><time>2026-04-06T07:59:39.583Z</time></trkpt><trkpt lat="44.28133" lon="8.21095"><ele>777.0</ele><time>2026-04-06T07:59:41.583Z</time></trkpt><trkpt lat="44.2813583" lon="8.21085"><ele>777.0</ele><time>2026-04-06T07:59:43.583Z</time></trkpt><trkpt lat="44.2813933" lon="8.2107567"><ele>777.0</ele><time>2026-04-06T07:59:44.583Z</time></trkpt><trkpt lat="44.2814433" lon="8.2106583"><ele>775.6</ele><time>2026-04-06T07:59:46.583Z</time></trkpt><trkpt lat="44.281505" lon="8.2105067"><ele>774.2</ele><time>2026-04-06T07:59:48.583Z</time></trkpt><trkpt lat="44.281565" lon="8.2103717"><ele>772.8</ele><time>2026-04-06T07:59:50.583Z</time></trkpt><trkpt lat="44.2815967" lon="8.2102683"><ele>771.4</ele><time>2026-04-06T07:59:52.582Z</time></trkpt><trkpt lat="44.28163" lon="8.210165"><ele>770.0</ele><time>2026-04-06T07:59:54.583Z</time></trkpt><trkpt lat="44.281665" lon="8.2100733"><ele>770.0000000000001</ele><time>2026-04-06T07:59:56.583Z</time></trkpt><trkpt lat="44.2817017" lon="8.209975"><ele>770.0</ele><time>2026-04-06T07:59:58.583Z</time></trkpt><trkpt lat="44.2817317" lon="8.2098133"><ele>770.0</ele><time>2026-04-06T08:00:00.583Z</time></trkpt><trkpt lat="44.2817533" lon="8.2097"><ele>770.0</ele><time>2026-04-06T08:00:01.583Z</time></trkpt><trkpt lat="44.2817717" lon="8.2095867"><ele>770.0000000000001</ele><time>2026-04-06T08:00:02.583Z</time></trkpt><trkpt lat="44.2817833" lon="8.2094883"><ele>770.0</ele><time>2026-04-06T08:00:03.583Z</time></trkpt><trkpt lat="44.2817933" lon="8.2093917"><ele>768.6666666666667</ele><time>2026-04-06T08:00:04.584Z</time></trkpt><trkpt lat="44.281805" lon="8.2092933"><ele>767.3333333333334</ele><time>2026-04-06T08:00:05.583Z</time></trkpt><trkpt lat="44.2818017" lon="8.2091817"><ele>766.0</ele><time>2026-04-06T08:00:06.582Z</time></trkpt><trkpt lat="44.281795" lon="8.2090783"><ele>764.6666666666667</ele><time>2026-04-06T08:00:07.583Z</time></trkpt><trkpt lat="44.2817983" lon="8.208925"><ele>763.3333333333334</ele><time>2026-04-06T08:00:09.584Z</time></trkpt><trkpt lat="44.2818083" lon="8.2087967"><ele>762.0</ele><time>2026-04-06T08:00:11.583Z</time></trkpt><trkpt lat="44.2818167" lon="8.2086633"><ele>759.4000000000001</ele><time>2026-04-06T08:00:13.583Z</time></trkpt><trkpt lat="44.28186" lon="8.2085483"><ele>756.8000000000001</ele><time>2026-04-06T08:00:16.583Z</time></trkpt><trkpt lat="44.28193" lon="8.2084883"><ele>754.2</ele><time>2026-04-06T08:00:18.583Z</time></trkpt><trkpt lat="44.2819717" lon="8.2083767"><ele>751.6</ele><time>2026-04-06T08:00:20.583Z</time></trkpt><trkpt lat="44.2820183" lon="8.208255"><ele>749.0</ele><time>2026-04-06T08:00:22.583Z</time></trkpt><trkpt lat="44.28205" lon="8.2081133"><ele>746.0</ele><time>2026-04-06T08:00:24.583Z</time></trkpt><trkpt lat="44.28209" lon="8.2080233"><ele>743.0</ele><time>2026-04-06T08:00:26.583Z</time></trkpt><trkpt lat="44.28216" lon="8.2079283"><ele>740.0</ele><time>2026-04-06T08:00:28.583Z</time></trkpt><trkpt lat="44.2822517" lon="8.2077617"><ele>737.0</ele><time>2026-04-06T08:00:30.583Z</time></trkpt><trkpt lat="44.2822983" lon="8.2076967"><ele>734.0</ele><time>2026-04-06T08:00:31.583Z</time></trkpt><trkpt lat="44.2823533" lon="8.2075267"><ele>733.1666666666666</ele><time>2026-04-06T08:00:33.583Z</time></trkpt><trkpt lat="44.2823633" lon="8.2074333"><ele>732.3333333333333</ele><time>2026-04-06T08:00:34.583Z</time></trkpt><trkpt lat="44.2823567" lon="8.2073183"><ele>731.5</ele><time>2026-04-06T08:00:36.583Z</time></trkpt><trkpt lat="44.2823667" lon="8.207205"><ele>730.6666666666666</ele><time>2026-04-06T08:00:37.583Z</time></trkpt><trkpt lat="44.2823783" lon="8.2070567"><ele>729.8333333333334</ele><time>2026-04-06T08:00:39.583Z</time></trkpt><trkpt lat="44.2823867" lon="8.2069633"><ele>729.0</ele><time>2026-04-06T08:00:41.583Z</time></trkpt><trkpt lat="44.2823817" lon="8.2068683"><ele>729.0</ele><time>2026-04-06T08:00:43.583Z</time></trkpt><trkpt lat="44.2823967" lon="8.206775"><ele>729.0</ele><time>2026-04-06T08:00:45.583Z</time></trkpt><trkpt lat="44.282415" lon="8.2066733"><ele>729.0</ele><time>2026-04-06T08:00:47.582Z</time></trkpt><trkpt lat="44.2824617" lon="8.2065733"><ele>729.0</ele><time>2026-04-06T08:00:49.583Z</time></trkpt><trkpt lat="44.2824983" lon="8.2064883"><ele>729.0</ele><time>2026-04-06T08:00:51.583Z</time></trkpt><trkpt lat="44.2825033" lon="8.2063667"><ele>729.0</ele><time>2026-04-06T08:00:54.583Z</time></trkpt><trkpt lat="44.282455" lon="8.20627"><ele>727.1666666666666</ele><time>2026-04-06T08:00:57.583Z</time></trkpt><trkpt lat="44.2823917" lon="8.2062117"><ele>725.3333333333334</ele><time>2026-04-06T08:01:00.583Z</time></trkpt><trkpt lat="44.282295" lon="8.2062733"><ele>723.5</ele><time>2026-04-06T08:01:04.583Z</time></trkpt><trkpt lat="44.282205" lon="8.2063433"><ele>721.6666666666667</ele><time>2026-04-06T08:01:06.583Z</time></trkpt><trkpt lat="44.2821467" lon="8.206295"><ele>719.8333333333334</ele><time>2026-04-06T08:01:10.583Z</time></trkpt><trkpt lat="44.2821567" lon="8.20618"><ele>718.0</ele><time>2026-04-06T08:01:13.583Z</time></trkpt><trkpt lat="44.28218" lon="8.2060533"><ele>715.0</ele><time>2026-04-06T08:01:16.583Z</time></trkpt><trkpt lat="44.2821783" lon="8.20593"><ele>712.0</ele><time>2026-04-06T08:01:18.583Z</time></trkpt><trkpt lat="44.2821867" lon="8.20583"><ele>709.0</ele><time>2026-04-06T08:01:20.583Z</time></trkpt><trkpt lat="44.2821717" lon="8.2057417"><ele>706.0</ele><time>2026-04-06T08:01:22.583Z</time></trkpt><trkpt lat="44.28217" lon="8.2056067"><ele>703.0</ele><time>2026-04-06T08:01:24.583Z</time></trkpt><trkpt lat="44.2821967" lon="8.20548"><ele>700.0</ele><time>2026-04-06T08:01:26.583Z</time></trkpt><trkpt lat="44.2822633" lon="8.2054833"><ele>698.2857142857143</ele><time>2026-04-06T08:01:29.583Z</time></trkpt><trkpt lat="44.2823317" lon="8.2054367"><ele>696.5714285714286</ele><time>2026-04-06T08:01:33.583Z</time></trkpt><trkpt lat="44.2823333" lon="8.20534"><ele>694.8571428571429</ele><time>2026-04-06T08:01:36.583Z</time></trkpt><trkpt lat="44.2824" lon="8.2053267"><ele>693.1428571428571</ele><time>2026-04-06T08:01:40.582Z</time></trkpt><trkpt lat="44.28248" lon="8.20534"><ele>691.4285714285714</ele><time>2026-04-06T08:01:43.582Z</time></trkpt><trkpt lat="44.2825483" lon="8.2053667"><ele>689.7142857142858</ele><time>2026-04-06T08:01:45.583Z</time></trkpt><trkpt lat="44.2826217" lon="8.20538"><ele>688.0</ele><time>2026-04-06T08:01:47.583Z</time></trkpt><trkpt lat="44.28266" lon="8.2053083"><ele>688.0</ele><time>2026-04-06T08:01:51.583Z</time></trkpt><trkpt lat="44.28265" lon="8.205175"><ele>688.0</ele><time>2026-04-06T08:01:54.583Z</time></trkpt><trkpt lat="44.2826317" lon="8.205085"><ele>688.0</ele><time>2026-04-06T08:01:56.583Z</time></trkpt><trkpt lat="44.2826033" lon="8.2050033"><ele>688.0</ele><time>2026-04-06T08:01:58.583Z</time></trkpt><trkpt lat="44.2825467" lon="8.2049233"><ele>688.0</ele><time>2026-04-06T08:02:00.582Z</time></trkpt><trkpt lat="44.2824667" lon="8.20485"><ele>688.0</ele><time>2026-04-06T08:02:02.583Z</time></trkpt><trkpt lat="44.2823467" lon="8.204775"><ele>687.3333333333334</ele><time>2026-04-06T08:02:04.583Z</time></trkpt><trkpt lat="44.2822667" lon="8.2047667"><ele>686.6666666666667</ele><time>2026-04-06T08:02:06.583Z</time></trkpt><trkpt lat="44.28216" lon="8.2047883"><ele>686.0</ele><time>2026-04-06T08:02:08.583Z</time></trkpt><trkpt lat="44.2820733" lon="8.2047983"><ele>685.3333333333334</ele><time>2026-04-06T08:02:09.582Z</time></trkpt><trkpt lat="44.28201" lon="8.20481"><ele>684.6666666666666</ele><time>2026-04-06T08:02:10.583Z</time></trkpt><trkpt lat="44.2819433" lon="8.204825"><ele>684.0</ele><time>2026-04-06T08:02:11.583Z</time></trkpt><trkpt lat="44.2818317" lon="8.2048767"><ele>684.0</ele><time>2026-04-06T08:02:13.583Z</time></trkpt><trkpt lat="44.2817267" lon="8.2049217"><ele>684.0</ele><time>2026-04-06T08:02:15.583Z</time></trkpt><trkpt lat="44.2816417" lon="8.2049567"><ele>684.0</ele><time>2026-04-06T08:02:17.583Z</time></trkpt><trkpt lat="44.2815917" lon="8.2050117"><ele>684.0</ele><time>2026-04-06T08:02:19.583Z</time></trkpt><trkpt lat="44.281565" lon="8.2050983"><ele>684.0</ele><time>2026-04-06T08:02:21.583Z</time></trkpt><trkpt lat="44.2815467" lon="8.2052117"><ele>684.0</ele><time>2026-04-06T08:02:23.583Z</time></trkpt><trkpt lat="44.2815267" lon="8.2053117"><ele>684.0</ele><time>2026-04-06T08:02:25.582Z</time></trkpt><trkpt lat="44.2814817" lon="8.2054067"><ele>684.0</ele><time>2026-04-06T08:02:27.583Z</time></trkpt><trkpt lat="44.2814283" lon="8.2054967"><ele>684.0</ele><time>2026-04-06T08:02:29.583Z</time></trkpt><trkpt lat="44.2813633" lon="8.205595"><ele>684.0</ele><time>2026-04-06T08:02:31.583Z</time></trkpt><trkpt lat="44.2812933" lon="8.2056583"><ele>684.0</ele><time>2026-04-06T08:02:34.583Z</time></trkpt><trkpt lat="44.2812883" lon="8.2055317"><ele>684.0</ele><time>2026-04-06T08:02:40.582Z</time></trkpt><trkpt lat="44.2813083" lon="8.2054283"><ele>683.8333333333334</ele><time>2026-04-06T08:02:42.583Z</time></trkpt><trkpt lat="44.28133" lon="8.2052983"><ele>683.6666666666666</ele><time>2026-04-06T08:02:44.583Z</time></trkpt><trkpt lat="44.28135" lon="8.2051683"><ele>683.5</ele><time>2026-04-06T08:02:46.583Z</time></trkpt><trkpt lat="44.2813833" lon="8.2050583"><ele>683.3333333333333</ele><time>2026-04-06T08:02:48.583Z</time></trkpt><trkpt lat="44.281415" lon="8.204975"><ele>683.1666666666666</ele><time>2026-04-06T08:02:51.582Z</time></trkpt><trkpt lat="44.2813367" lon="8.205055"><ele>683.0</ele><time>2026-04-06T08:02:55.582Z</time></trkpt><trkpt lat="44.2812767" lon="8.20516"><ele>683.0</ele><time>2026-04-06T08:02:57.583Z</time></trkpt><trkpt lat="44.2812217" lon="8.2052517"><ele>683.0</ele><time>2026-04-06T08:02:59.583Z</time></trkpt><trkpt lat="44.2811733" lon="8.2053267"><ele>683.0</ele><time>2026-04-06T08:03:02.583Z</time></trkpt><trkpt lat="44.2812083" lon="8.2052517"><ele>683.0</ele><time>2026-04-06T08:03:04.583Z</time></trkpt><trkpt lat="44.2812433" lon="8.20516"><ele>683.0</ele><time>2026-04-06T08:03:06.582Z</time></trkpt><trkpt lat="44.28126" lon="8.205075"><ele>683.0</ele><time>2026-04-06T08:03:08.583Z</time></trkpt><trkpt lat="44.28128" lon="8.2049617"><ele>683.0</ele><time>2026-04-06T08:03:10.583Z</time></trkpt><trkpt lat="44.281295" lon="8.20483"><ele>680.2</ele><time>2026-04-06T08:03:12.583Z</time></trkpt><trkpt lat="44.2813083" lon="8.204675"><ele>677.4</ele><time>2026-04-06T08:03:14.583Z</time></trkpt><trkpt lat="44.2813083" lon="8.2045183"><ele>674.6</ele><time>2026-04-06T08:03:16.582Z</time></trkpt><trkpt lat="44.2812767" lon="8.204375"><ele>671.8000000000001</ele><time>2026-04-06T08:03:18.583Z</time></trkpt><trkpt lat="44.2812333" lon="8.2042583"><ele>669.0</ele><time>2026-04-06T08:03:20.583Z</time></trkpt><trkpt lat="44.2811883" lon="8.204165"><ele>669.0</ele><time>2026-04-06T08:03:22.583Z</time></trkpt><trkpt lat="44.2811417" lon="8.2040733"><ele>669.0</ele><time>2026-04-06T08:03:24.582Z</time></trkpt><trkpt lat="44.2810617" lon="8.2039983"><ele>669.0</ele><time>2026-04-06T08:03:26.583Z</time></trkpt><trkpt lat="44.2809983" lon="8.2039533"><ele>669.0</ele><time>2026-04-06T08:03:27.583Z</time></trkpt><trkpt lat="44.2809017" lon="8.2038867"><ele>669.0</ele><time>2026-04-06T08:03:29.583Z</time></trkpt><trkpt lat="44.2808483" lon="8.2038167"><ele>669.0</ele><time>2026-04-06T08:03:31.583Z</time></trkpt><trkpt lat="44.2808817" lon="8.2037183"><ele>666.0</ele><time>2026-04-06T08:03:36.583Z</time></trkpt><trkpt lat="44.28086" lon="8.2035783"><ele>663.0</ele><time>2026-04-06T08:03:39.583Z</time></trkpt><trkpt lat="44.2808483" lon="8.2034217"><ele>660.0</ele><time>2026-04-06T08:03:41.583Z</time></trkpt><trkpt lat="44.2808067" lon="8.2032717"><ele>657.0</ele><time>2026-04-06T08:03:43.583Z</time></trkpt><trkpt lat="44.2807567" lon="8.20316"><ele>654.0</ele><time>2026-04-06T08:03:45.583Z</time></trkpt><trkpt lat="44.2807" lon="8.2030233"><ele>654.2</ele><time>2026-04-06T08:03:47.583Z</time></trkpt><trkpt lat="44.2806433" lon="8.2028817"><ele>654.4000000000001</ele><time>2026-04-06T08:03:49.582Z</time></trkpt><trkpt lat="44.2805717" lon="8.20281"><ele>654.6</ele><time>2026-04-06T08:03:51.583Z</time></trkpt><trkpt lat="44.2804717" lon="8.202775"><ele>654.8</ele><time>2026-04-06T08:03:53.583Z</time></trkpt><trkpt lat="44.28038" lon="8.202765"><ele>655.0</ele><time>2026-04-06T08:03:55.583Z</time></trkpt><trkpt lat="44.2803033" lon="8.2027267"><ele>655.0</ele><time>2026-04-06T08:03:57.583Z</time></trkpt><trkpt lat="44.2802733" lon="8.2026367"><ele>655.0</ele><time>2026-04-06T08:05:04.583Z</time></trkpt><trkpt lat="44.28034" lon="8.202515"><ele>655.0</ele><time>2026-04-06T08:05:09.583Z</time></trkpt><trkpt lat="44.280395" lon="8.2024067"><ele>655.0</ele><time>2026-04-06T08:05:12.583Z</time></trkpt><trkpt lat="44.2804517" lon="8.2023117"><ele>655.0</ele><time>2026-04-06T08:05:15.583Z</time></trkpt><trkpt lat="44.2804967" lon="8.202245"><ele>655.0</ele><time>2026-04-06T08:05:17.583Z</time></trkpt><trkpt lat="44.2805367" lon="8.2021767"><ele>654.8333333333334</ele><time>2026-04-06T08:05:19.582Z</time></trkpt><trkpt lat="44.28059" lon="8.2020767"><ele>654.6666666666667</ele><time>2026-04-06T08:05:22.582Z</time></trkpt><trkpt lat="44.2806317" lon="8.2020083"><ele>654.5</ele><time>2026-04-06T08:05:24.583Z</time></trkpt><trkpt lat="44.2806833" lon="8.201945"><ele>654.3333333333334</ele><time>2026-04-06T08:05:26.582Z</time></trkpt><trkpt lat="44.2807533" lon="8.2018667"><ele>654.1666666666666</ele><time>2026-04-06T08:05:29.583Z</time></trkpt><trkpt lat="44.28081" lon="8.201785"><ele>654.0</ele><time>2026-04-06T08:05:32.583Z</time></trkpt><trkpt lat="44.2808567" lon="8.2016883"><ele>653.6666666666666</ele><time>2026-04-06T08:05:35.583Z</time></trkpt><trkpt lat="44.2808983" lon="8.201585"><ele>653.3333333333334</ele><time>2026-04-06T08:05:38.583Z</time></trkpt><trkpt lat="44.2809383" lon="8.2014817"><ele>653.0</ele><time>2026-04-06T08:05:41.583Z</time></trkpt><trkpt lat="44.2809733" lon="8.2013717"><ele>652.6666666666667</ele><time>2026-04-06T08:05:44.583Z</time></trkpt><trkpt lat="44.2810133" lon="8.2012667"><ele>652.3333333333334</ele><time>2026-04-06T08:05:47.583Z</time></trkpt><trkpt lat="44.2810467" lon="8.2011883"><ele>652.0</ele><time>2026-04-06T08:05:50.583Z</time></trkpt><trkpt lat="44.2810783" lon="8.2010967"><ele>653.0</ele><time>2026-04-06T08:05:54.582Z</time></trkpt><trkpt lat="44.2810333" lon="8.2010167"><ele>654.0</ele><time>2026-04-06T08:05:58.583Z</time></trkpt><trkpt lat="44.28099" lon="8.2009467"><ele>655.0</ele><time>2026-04-06T08:06:00.583Z</time></trkpt><trkpt lat="44.2809367" lon="8.200865"><ele>656.0</ele><time>2026-04-06T08:06:02.583Z</time></trkpt><trkpt lat="44.2808733" lon="8.2007933"><ele>657.0</ele><time>2026-04-06T08:06:04.583Z</time></trkpt><trkpt lat="44.2808183" lon="8.2007383"><ele>658.0</ele><time>2026-04-06T08:06:06.583Z</time></trkpt><trkpt lat="44.28076" lon="8.2006833"><ele>659.0</ele><time>2026-04-06T08:06:08.583Z</time></trkpt><trkpt lat="44.2806983" lon="8.2006267"><ele>658.8571428571429</ele><time>2026-04-06T08:06:10.583Z</time></trkpt><trkpt lat="44.2806383" lon="8.2005667"><ele>658.7142857142857</ele><time>2026-04-06T08:06:12.583Z</time></trkpt><trkpt lat="44.2805783" lon="8.2005117"><ele>658.5714285714286</ele><time>2026-04-06T08:06:14.583Z</time></trkpt><trkpt lat="44.2805217" lon="8.20045"><ele>658.4285714285714</ele><time>2026-04-06T08:06:16.582Z</time></trkpt><trkpt lat="44.2804683" lon="8.200385"><ele>658.2857142857142</ele><time>2026-04-06T08:06:18.583Z</time></trkpt><trkpt lat="44.2804167" lon="8.2003133"><ele>658.1428571428571</ele><time>2026-04-06T08:06:20.583Z</time></trkpt><trkpt lat="44.28037" lon="8.20023"><ele>658.0</ele><time>2026-04-06T08:06:22.583Z</time></trkpt><trkpt lat="44.2803317" lon="8.2001417"><ele>658.0</ele><time>2026-04-06T08:06:24.583Z</time></trkpt><trkpt lat="44.2803" lon="8.200045"><ele>658.0</ele><time>2026-04-06T08:06:26.582Z</time></trkpt><trkpt lat="44.2802867" lon="8.1999383"><ele>658.0</ele><time>2026-04-06T08:06:28.583Z</time></trkpt><trkpt lat="44.2802817" lon="8.1998317"><ele>658.0</ele><time>2026-04-06T08:06:30.583Z</time></trkpt><trkpt lat="44.2802917" lon="8.1997267"><ele>658.0</ele><time>2026-04-06T08:06:32.583Z</time></trkpt><trkpt lat="44.2803" lon="8.1996167"><ele>658.0</ele><time>2026-04-06T08:06:34.583Z</time></trkpt><trkpt lat="44.2803133" lon="8.199505"><ele>658.4285714285714</ele><time>2026-04-06T08:06:36.583Z</time></trkpt><trkpt lat="44.280325" lon="8.1993983"><ele>658.8571428571429</ele><time>2026-04-06T08:06:38.583Z</time></trkpt><trkpt lat="44.28033" lon="8.1992967"><ele>659.2857142857142</ele><time>2026-04-06T08:06:40.582Z</time></trkpt><trkpt lat="44.2803433" lon="8.1991983"><ele>659.7142857142858</ele><time>2026-04-06T08:06:42.583Z</time></trkpt><trkpt lat="44.28036" lon="8.1991017"><ele>660.1428571428571</ele><time>2026-04-06T08:06:44.583Z</time></trkpt><trkpt lat="44.2803783" lon="8.1990017"><ele>660.5714285714286</ele><time>2026-04-06T08:06:46.583Z</time></trkpt><trkpt lat="44.2803883" lon="8.1989067"><ele>661.0</ele><time>2026-04-06T08:06:48.583Z</time></trkpt><trkpt lat="44.2804" lon="8.1988"><ele>661.0</ele><time>2026-04-06T08:06:50.583Z</time></trkpt><trkpt lat="44.2804133" lon="8.1986983"><ele>661.0</ele><time>2026-04-06T08:06:52.583Z</time></trkpt><trkpt lat="44.2804217" lon="8.1985933"><ele>661.0</ele><time>2026-04-06T08:06:54.583Z</time></trkpt><trkpt lat="44.2804333" lon="8.198485"><ele>661.0</ele><time>2026-04-06T08:06:56.583Z</time></trkpt><trkpt lat="44.2804267" lon="8.1983883"><ele>661.0</ele><time>2026-04-06T08:06:58.582Z</time></trkpt><trkpt lat="44.2804133" lon="8.1982867"><ele>661.0</ele><time>2026-04-06T08:07:00.582Z</time></trkpt><trkpt lat="44.2803933" lon="8.1981867"><ele>661.0</ele><time>2026-04-06T08:07:02.583Z</time></trkpt><trkpt lat="44.2803617" lon="8.19808"><ele>662.3333333333334</ele><time>2026-04-06T08:07:04.583Z</time></trkpt><trkpt lat="44.2803267" lon="8.19798"><ele>663.6666666666667</ele><time>2026-04-06T08:07:06.583Z</time></trkpt><trkpt lat="44.28028" lon="8.1978883"><ele>665.0</ele><time>2026-04-06T08:07:08.583Z</time></trkpt><trkpt lat="44.28023" lon="8.1978067"><ele>666.3333333333334</ele><time>2026-04-06T08:07:10.583Z</time></trkpt><trkpt lat="44.2801633" lon="8.1977383"><ele>667.6666666666666</ele><time>2026-04-06T08:07:12.582Z</time></trkpt><trkpt lat="44.2800917" lon="8.1976833"><ele>669.0</ele><time>2026-04-06T08:07:14.583Z</time></trkpt><trkpt lat="44.28002" lon="8.197635"><ele>669.0</ele><time>2026-04-06T08:07:16.583Z</time></trkpt><trkpt lat="44.2799467" lon="8.19759"><ele>669.0</ele><time>2026-04-06T08:07:18.582Z</time></trkpt><trkpt lat="44.2798717" lon="8.1975533"><ele>669.0</ele><time>2026-04-06T08:07:20.583Z</time></trkpt><trkpt lat="44.2797933" lon="8.1975317"><ele>669.0</ele><time>2026-04-06T08:07:22.583Z</time></trkpt><trkpt lat="44.2797183" lon="8.1975083"><ele>669.0</ele><time>2026-04-06T08:07:24.582Z</time></trkpt><trkpt lat="44.279645" lon="8.1974883"><ele>669.0</ele><time>2026-04-06T08:07:26.583Z</time></trkpt><trkpt lat="44.27957" lon="8.197475"><ele>668.5</ele><time>2026-04-06T08:07:28.583Z</time></trkpt><trkpt lat="44.2794983" lon="8.1974617"><ele>668.0</ele><time>2026-04-06T08:07:30.583Z</time></trkpt><trkpt lat="44.2794267" lon="8.1974483"><ele>667.5</ele><time>2026-04-06T08:07:32.583Z</time></trkpt><trkpt lat="44.2793517" lon="8.197435"><ele>667.0</ele><time>2026-04-06T08:07:34.583Z</time></trkpt><trkpt lat="44.2792767" lon="8.1974283"><ele>666.5</ele><time>2026-04-06T08:07:36.583Z</time></trkpt><trkpt lat="44.2791967" lon="8.1974267"><ele>666.0</ele><time>2026-04-06T08:07:38.583Z</time></trkpt><trkpt lat="44.2791133" lon="8.19743"><ele>666.0</ele><time>2026-04-06T08:07:40.583Z</time></trkpt><trkpt lat="44.2790283" lon="8.1974367"><ele>666.0</ele><time>2026-04-06T08:07:42.583Z</time></trkpt><trkpt lat="44.2789417" lon="8.1974467"><ele>666.0</ele><time>2026-04-06T08:07:44.582Z</time></trkpt><trkpt lat="44.2788583" lon="8.19745"><ele>666.0</ele><time>2026-04-06T08:07:46.583Z</time></trkpt><trkpt lat="44.2787767" lon="8.1974517"><ele>666.0</ele><time>2026-04-06T08:07:48.583Z</time></trkpt><trkpt lat="44.2787033" lon="8.19746"><ele>666.0</ele><time>2026-04-06T08:07:50.583Z</time></trkpt><trkpt lat="44.2786267" lon="8.19747"><ele>666.6666666666666</ele><time>2026-04-06T08:07:52.583Z</time></trkpt><trkpt lat="44.27855" lon="8.19747"><ele>667.3333333333334</ele><time>2026-04-06T08:07:54.583Z</time></trkpt><trkpt lat="44.2784667" lon="8.197455"><ele>668.0</ele><time>2026-04-06T08:07:56.583Z</time></trkpt><trkpt lat="44.2783833" lon="8.1974383"><ele>668.6666666666667</ele><time>2026-04-06T08:07:58.583Z</time></trkpt><trkpt lat="44.27831" lon="8.1974117"><ele>669.3333333333334</ele><time>2026-04-06T08:08:00.583Z</time></trkpt><trkpt lat="44.27824" lon="8.197385"><ele>670.0</ele><time>2026-04-06T08:08:02.583Z</time></trkpt><trkpt lat="44.2781617" lon="8.1973483"><ele>672.8571428571428</ele><time>2026-04-06T08:08:04.583Z</time></trkpt><trkpt lat="44.2781017" lon="8.19731"><ele>675.7142857142857</ele><time>2026-04-06T08:08:06.583Z</time></trkpt><trkpt lat="44.2780367" lon="8.197275"><ele>678.5714285714286</ele><time>2026-04-06T08:08:08.583Z</time></trkpt><trkpt lat="44.2779683" lon="8.1972367"><ele>681.4285714285713</ele><time>2026-04-06T08:08:10.583Z</time></trkpt><trkpt lat="44.2778983" lon="8.197195"><ele>684.2857142857142</ele><time>2026-04-06T08:08:12.583Z</time></trkpt><trkpt lat="44.2778267" lon="8.197155"><ele>687.1428571428571</ele><time>2026-04-06T08:08:14.582Z</time></trkpt><trkpt lat="44.2777567" lon="8.1971217"><ele>690.0</ele><time>2026-04-06T08:08:16.583Z</time></trkpt><trkpt lat="44.277685" lon="8.19709"><ele>690.5</ele><time>2026-04-06T08:08:18.583Z</time></trkpt><trkpt lat="44.2776117" lon="8.1970617"><ele>691.0</ele><time>2026-04-06T08:08:20.583Z</time></trkpt><trkpt lat="44.2775383" lon="8.197025"><ele>691.5</ele><time>2026-04-06T08:08:22.583Z</time></trkpt><trkpt lat="44.277465" lon="8.1969917"><ele>692.0</ele><time>2026-04-06T08:08:24.583Z</time></trkpt><trkpt lat="44.2773817" lon="8.1969617"><ele>692.5</ele><time>2026-04-06T08:08:26.583Z</time></trkpt><trkpt lat="44.2773117" lon="8.1969433"><ele>693.0</ele><time>2026-04-06T08:08:28.583Z</time></trkpt><trkpt lat="44.2772433" lon="8.1969483"><ele>691.2</ele><time>2026-04-06T08:08:30.583Z</time></trkpt><trkpt lat="44.277165" lon="8.1969267"><ele>689.4</ele><time>2026-04-06T08:08:32.583Z</time></trkpt><trkpt lat="44.2770833" lon="8.196905"><ele>687.6</ele><time>2026-04-06T08:08:34.583Z</time></trkpt><trkpt lat="44.2770083" lon="8.1968617"><ele>685.8000000000001</ele><time>2026-04-06T08:08:36.583Z</time></trkpt><trkpt lat="44.2769117" lon="8.1968133"><ele>684.0</ele><time>2026-04-06T08:08:38.583Z</time></trkpt><trkpt lat="44.276805" lon="8.196755"><ele>684.0</ele><time>2026-04-06T08:08:40.583Z</time></trkpt><trkpt lat="44.2767083" lon="8.196715"><ele>684.0</ele><time>2026-04-06T08:08:42.583Z</time></trkpt><trkpt lat="44.2765983" lon="8.19669"><ele>684.0</ele><time>2026-04-06T08:08:44.583Z</time></trkpt><trkpt lat="44.2765283" lon="8.1967033"><ele>684.0</ele><time>2026-04-06T08:08:46.583Z</time></trkpt><trkpt lat="44.2764617" lon="8.1967317"><ele>684.0</ele><time>2026-04-06T08:08:48.583Z</time></trkpt><trkpt lat="44.2764033" lon="8.1968033"><ele>684.0</ele><time>2026-04-06T08:08:50.582Z</time></trkpt><trkpt lat="44.276345" lon="8.196895"><ele>685.0</ele><time>2026-04-06T08:08:52.583Z</time></trkpt><trkpt lat="44.2762983" lon="8.1969917"><ele>686.0</ele><time>2026-04-06T08:08:54.583Z</time></trkpt><trkpt lat="44.2763" lon="8.1971117"><ele>687.0</ele><time>2026-04-06T08:08:56.583Z</time></trkpt><trkpt lat="44.2763583" lon="8.1972117"><ele>688.0</ele><time>2026-04-06T08:08:58.583Z</time></trkpt><trkpt lat="44.2764183" lon="8.1973117"><ele>689.0</ele><time>2026-04-06T08:09:00.583Z</time></trkpt><trkpt lat="44.2764667" lon="8.1974183"><ele>690.0</ele><time>2026-04-06T08:09:02.582Z</time></trkpt><trkpt lat="44.2765233" lon="8.197525"><ele>687.5</ele><time>2026-04-06T08:09:04.583Z</time></trkpt><trkpt lat="44.2766" lon="8.1976017"><ele>685.0</ele><time>2026-04-06T08:09:06.583Z</time></trkpt><trkpt lat="44.2766883" lon="8.197645"><ele>682.5</ele><time>2026-04-06T08:09:08.583Z</time></trkpt><trkpt lat="44.2767833" lon="8.1976383"><ele>680.0</ele><time>2026-04-06T08:09:10.583Z</time></trkpt><trkpt lat="44.276865" lon="8.1976117"><ele>677.5</ele><time>2026-04-06T08:09:12.583Z</time></trkpt><trkpt lat="44.276935" lon="8.1976067"><ele>675.0</ele><time>2026-04-06T08:09:14.583Z</time></trkpt><trkpt lat="44.27699" lon="8.197655"><ele>675.0</ele><time>2026-04-06T08:09:16.583Z</time></trkpt><trkpt lat="44.277025" lon="8.1977633"><ele>675.0</ele><time>2026-04-06T08:09:19.583Z</time></trkpt><trkpt lat="44.2770467" lon="8.1978617"><ele>675.0</ele><time>2026-04-06T08:09:22.583Z</time></trkpt><trkpt lat="44.2770683" lon="8.19796"><ele>675.0</ele><time>2026-04-06T08:09:25.583Z</time></trkpt><trkpt lat="44.27712" lon="8.198035"><ele>675.0</ele><time>2026-04-06T08:09:29.582Z</time></trkpt><trkpt lat="44.2771767" lon="8.198135"><ele>675.0</ele><time>2026-04-06T08:09:32.583Z</time></trkpt><trkpt lat="44.2772433" lon="8.1982417"><ele>676.8333333333334</ele><time>2026-04-06T08:09:34.583Z</time></trkpt><trkpt lat="44.277355" lon="8.1983417"><ele>678.6666666666666</ele><time>2026-04-06T08:09:36.583Z</time></trkpt><trkpt lat="44.27742" lon="8.1983733"><ele>680.5</ele><time>2026-04-06T08:09:38.583Z</time></trkpt><trkpt lat="44.2774967" lon="8.198405"><ele>682.3333333333333</ele><time>2026-04-06T08:09:40.583Z</time></trkpt><trkpt lat="44.2775583" lon="8.1984333"><ele>684.1666666666666</ele><time>2026-04-06T08:09:42.583Z</time></trkpt><trkpt lat="44.277625" lon="8.1984517"><ele>686.0</ele><time>2026-04-06T08:09:44.583Z</time></trkpt><trkpt lat="44.27769" lon="8.1984583"><ele>686.0</ele><time>2026-04-06T08:09:46.583Z</time></trkpt><trkpt lat="44.2777583" lon="8.1984733"><ele>686.0</ele><time>2026-04-06T08:09:48.583Z</time></trkpt><trkpt lat="44.2778583" lon="8.1984783"><ele>686.0</ele><time>2026-04-06T08:09:51.583Z</time></trkpt><trkpt lat="44.27793" lon="8.19846"><ele>686.0</ele><time>2026-04-06T08:09:53.583Z</time></trkpt><trkpt lat="44.2780033" lon="8.19845"><ele>686.0</ele><time>2026-04-06T08:09:55.583Z</time></trkpt><trkpt lat="44.2780917" lon="8.19844"><ele>686.0</ele><time>2026-04-06T08:09:57.583Z</time></trkpt><trkpt lat="44.2781833" lon="8.198445"><ele>685.1666666666666</ele><time>2026-04-06T08:09:59.582Z</time></trkpt><trkpt lat="44.2782567" lon="8.1984617"><ele>684.3333333333333</ele><time>2026-04-06T08:10:01.583Z</time></trkpt><trkpt lat="44.2783133" lon="8.1985017"><ele>683.5</ele><time>2026-04-06T08:10:03.583Z</time></trkpt><trkpt lat="44.2783833" lon="8.1985483"><ele>682.6666666666666</ele><time>2026-04-06T08:10:05.582Z</time></trkpt><trkpt lat="44.2784567" lon="8.19861"><ele>681.8333333333334</ele><time>2026-04-06T08:10:08.583Z</time></trkpt><trkpt lat="44.278495" lon="8.1986917"><ele>681.0</ele><time>2026-04-06T08:10:11.583Z</time></trkpt><trkpt lat="44.2785333" lon="8.1988017"><ele>681.0000000000001</ele><time>2026-04-06T08:10:14.583Z</time></trkpt><trkpt lat="44.278555" lon="8.1988867"><ele>681.0</ele><time>2026-04-06T08:10:16.582Z</time></trkpt><trkpt lat="44.2785717" lon="8.1989933"><ele>681.0</ele><time>2026-04-06T08:10:19.583Z</time></trkpt><trkpt lat="44.2785533" lon="8.1990833"><ele>681.0</ele><time>2026-04-06T08:10:22.582Z</time></trkpt><trkpt lat="44.2785517" lon="8.1991867"><ele>681.0</ele><time>2026-04-06T08:10:24.583Z</time></trkpt><trkpt lat="44.27855" lon="8.1992967"><ele>681.0000000000001</ele><time>2026-04-06T08:10:26.582Z</time></trkpt><trkpt lat="44.278545" lon="8.1993933"><ele>681.0</ele><time>2026-04-06T08:10:28.582Z</time></trkpt><trkpt lat="44.2785367" lon="8.1994867"><ele>685.5</ele><time>2026-04-06T08:10:30.582Z</time></trkpt><trkpt lat="44.2785217" lon="8.1995883"><ele>690.0</ele><time>2026-04-06T08:10:33.583Z</time></trkpt><trkpt lat="44.2785033" lon="8.19968"><ele>694.5</ele><time>2026-04-06T08:10:35.583Z</time></trkpt><trkpt lat="44.2784683" lon="8.19983"><ele>699.0</ele><time>2026-04-06T08:10:38.582Z</time></trkpt><trkpt lat="44.278445" lon="8.1999267"><ele>703.5</ele><time>2026-04-06T08:10:40.583Z</time></trkpt><trkpt lat="44.2784167" lon="8.2000483"><ele>708.0</ele><time>2026-04-06T08:10:43.583Z</time></trkpt><trkpt lat="44.2783733" lon="8.2001633"><ele>709.5714285714286</ele><time>2026-04-06T08:10:45.583Z</time></trkpt><trkpt lat="44.2783067" lon="8.2002217"><ele>711.1428571428571</ele><time>2026-04-06T08:10:48.583Z</time></trkpt><trkpt lat="44.2782517" lon="8.2002983"><ele>712.7142857142857</ele><time>2026-04-06T08:10:51.583Z</time></trkpt><trkpt lat="44.27821" lon="8.20037"><ele>714.2857142857142</ele><time>2026-04-06T08:10:53.583Z</time></trkpt><trkpt lat="44.278155" lon="8.200425"><ele>715.8571428571429</ele><time>2026-04-06T08:10:55.583Z</time></trkpt><trkpt lat="44.2781" lon="8.2005083"><ele>717.4285714285713</ele><time>2026-04-06T08:10:57.583Z</time></trkpt><trkpt lat="44.2780467" lon="8.2005833"><ele>719.0</ele><time>2026-04-06T08:10:59.583Z</time></trkpt><trkpt lat="44.2780083" lon="8.200695"><ele>722.3333333333333</ele><time>2026-04-06T08:11:01.583Z</time></trkpt><trkpt lat="44.277965" lon="8.200805"><ele>725.6666666666666</ele><time>2026-04-06T08:11:03.583Z</time></trkpt><trkpt lat="44.2779483" lon="8.2009083"><ele>729.0</ele><time>2026-04-06T08:11:05.583Z</time></trkpt><trkpt lat="44.277905" lon="8.201005"><ele>732.3333333333334</ele><time>2026-04-06T08:11:07.583Z</time></trkpt><trkpt lat="44.2778717" lon="8.2011"><ele>735.6666666666667</ele><time>2026-04-06T08:11:09.582Z</time></trkpt><trkpt lat="44.27786" lon="8.2012033"><ele>739.0</ele><time>2026-04-06T08:11:11.583Z</time></trkpt><trkpt lat="44.2778383" lon="8.20133"><ele>739.0</ele><time>2026-04-06T08:11:13.583Z</time></trkpt><trkpt lat="44.277815" lon="8.2014467"><ele>739.0</ele><time>2026-04-06T08:11:15.584Z</time></trkpt><trkpt lat="44.2777967" lon="8.2015767"><ele>739.0</ele><time>2026-04-06T08:11:17.583Z</time></trkpt><trkpt lat="44.2777833" lon="8.2017"><ele>739.0</ele><time>2026-04-06T08:11:19.584Z</time></trkpt><trkpt lat="44.277765" lon="8.2018017"><ele>739.0</ele><time>2026-04-06T08:11:21.584Z</time></trkpt><trkpt lat="44.2777433" lon="8.2019217"><ele>739.0</ele><time>2026-04-06T08:11:23.584Z</time></trkpt><trkpt lat="44.2777183" lon="8.2020367"><ele>738.0</ele><time>2026-04-06T08:11:25.584Z</time></trkpt><trkpt lat="44.2777" lon="8.2021867"><ele>737.0</ele><time>2026-04-06T08:11:27.583Z</time></trkpt><trkpt lat="44.277655" lon="8.20229"><ele>736.0</ele><time>2026-04-06T08:11:29.584Z</time></trkpt><trkpt lat="44.2776067" lon="8.20236"><ele>735.0</ele><time>2026-04-06T08:11:31.584Z</time></trkpt><trkpt lat="44.27756" lon="8.2024317"><ele>734.0</ele><time>2026-04-06T08:11:33.583Z</time></trkpt><trkpt lat="44.2775233" lon="8.2025367"><ele>733.0</ele><time>2026-04-06T08:11:36.584Z</time></trkpt><trkpt lat="44.2774467" lon="8.2026033"><ele>731.8571428571428</ele><time>2026-04-06T08:11:39.584Z</time></trkpt><trkpt lat="44.2773783" lon="8.2026483"><ele>730.7142857142857</ele><time>2026-04-06T08:11:41.584Z</time></trkpt><trkpt lat="44.277325" lon="8.2027"><ele>729.5714285714286</ele><time>2026-04-06T08:11:43.584Z</time></trkpt><trkpt lat="44.277265" lon="8.2027383"><ele>728.4285714285713</ele><time>2026-04-06T08:11:45.584Z</time></trkpt><trkpt lat="44.2772" lon="8.2027717"><ele>727.2857142857143</ele><time>2026-04-06T08:11:47.584Z</time></trkpt><trkpt lat="44.277135" lon="8.20279"><ele>726.1428571428571</ele><time>2026-04-06T08:11:49.584Z</time></trkpt><trkpt lat="44.2770567" lon="8.2028283"><ele>725.0</ele><time>2026-04-06T08:11:51.584Z</time></trkpt><trkpt lat="44.2769767" lon="8.2028533"><ele>725.3333333333333</ele><time>2026-04-06T08:11:53.584Z</time></trkpt><trkpt lat="44.276885" lon="8.202915"><ele>725.6666666666666</ele><time>2026-04-06T08:11:55.584Z</time></trkpt><trkpt lat="44.2768183" lon="8.20298"><ele>726.0</ele><time>2026-04-06T08:11:57.583Z</time></trkpt><trkpt lat="44.276755" lon="8.2030467"><ele>726.3333333333334</ele><time>2026-04-06T08:11:59.584Z</time></trkpt><trkpt lat="44.2766817" lon="8.20313"><ele>726.6666666666667</ele><time>2026-04-06T08:12:01.584Z</time></trkpt><trkpt lat="44.27661" lon="8.203205"><ele>727.0</ele><time>2026-04-06T08:12:03.583Z</time></trkpt><trkpt lat="44.2765533" lon="8.2032667"><ele>727.0</ele><time>2026-04-06T08:12:05.584Z</time></trkpt><trkpt lat="44.276465" lon="8.2033083"><ele>727.0</ele><time>2026-04-06T08:12:07.584Z</time></trkpt><trkpt lat="44.2764" lon="8.20334"><ele>727.0</ele><time>2026-04-06T08:12:08.583Z</time></trkpt><trkpt lat="44.2763" lon="8.20342"><ele>727.0</ele><time>2026-04-06T08:12:10.584Z</time></trkpt><trkpt lat="44.2762433" lon="8.2034633"><ele>727.0</ele><time>2026-04-06T08:12:11.584Z</time></trkpt><trkpt lat="44.2761483" lon="8.2035383"><ele>729.8333333333334</ele><time>2026-04-06T08:12:13.584Z</time></trkpt><trkpt lat="44.27607" lon="8.203595"><ele>732.6666666666667</ele><time>2026-04-06T08:12:15.584Z</time></trkpt><trkpt lat="44.2760017" lon="8.2036567"><ele>735.5</ele><time>2026-04-06T08:12:17.584Z</time></trkpt><trkpt lat="44.27592" lon="8.2037033"><ele>738.3333333333334</ele><time>2026-04-06T08:12:19.583Z</time></trkpt><trkpt lat="44.2758467" lon="8.2036967"><ele>741.1666666666666</ele><time>2026-04-06T08:12:21.583Z</time></trkpt><trkpt lat="44.275835" lon="8.203595"><ele>744.0</ele><time>2026-04-06T08:12:24.584Z</time></trkpt><trkpt lat="44.275895" lon="8.2035283"><ele>744.0</ele><time>2026-04-06T08:12:27.584Z</time></trkpt><trkpt lat="44.27596" lon="8.2034767"><ele>744.0</ele><time>2026-04-06T08:12:29.584Z</time></trkpt><trkpt lat="44.2760333" lon="8.2034167"><ele>744.0</ele><time>2026-04-06T08:12:31.584Z</time></trkpt><trkpt lat="44.2760983" lon="8.2033433"><ele>744.0</ele><time>2026-04-06T08:12:33.584Z</time></trkpt><trkpt lat="44.2761617" lon="8.2032667"><ele>744.0</ele><time>2026-04-06T08:12:35.584Z</time></trkpt><trkpt lat="44.2762233" lon="8.20319"><ele>744.0</ele><time>2026-04-06T08:12:37.584Z</time></trkpt><trkpt lat="44.2762817" lon="8.2031017"><ele>743.6666666666666</ele><time>2026-04-06T08:12:39.584Z</time></trkpt><trkpt lat="44.276335" lon="8.2030167"><ele>743.3333333333334</ele><time>2026-04-06T08:12:41.584Z</time></trkpt><trkpt lat="44.2763867" lon="8.202935"><ele>743.0</ele><time>2026-04-06T08:12:43.584Z</time></trkpt><trkpt lat="44.276435" lon="8.2028533"><ele>742.6666666666667</ele><time>2026-04-06T08:12:45.583Z</time></trkpt><trkpt lat="44.2764817" lon="8.2027883"><ele>742.3333333333334</ele><time>2026-04-06T08:12:47.584Z</time></trkpt><trkpt lat="44.2765317" lon="8.2027033"><ele>742.0</ele><time>2026-04-06T08:12:49.584Z</time></trkpt><trkpt lat="44.2765783" lon="8.2026217"><ele>742.0</ele><time>2026-04-06T08:12:51.584Z</time></trkpt><trkpt lat="44.2766333" lon="8.2025417"><ele>742.0</ele><time>2026-04-06T08:12:53.584Z</time></trkpt><trkpt lat="44.2766933" lon="8.2024533"><ele>742.0</ele><time>2026-04-06T08:12:55.584Z</time></trkpt><trkpt lat="44.2767517" lon="8.20237"><ele>742.0</ele><time>2026-04-06T08:12:57.583Z</time></trkpt><trkpt lat="44.276805" lon="8.2023033"><ele>742.0</ele><time>2026-04-06T08:12:59.584Z</time></trkpt><trkpt lat="44.2768567" lon="8.20223"><ele>742.0</ele><time>2026-04-06T08:13:01.584Z</time></trkpt><trkpt lat="44.276905" lon="8.202155"><ele>744.8</ele><time>2026-04-06T08:13:03.584Z</time></trkpt><trkpt lat="44.2769633" lon="8.2020533"><ele>747.6</ele><time>2026-04-06T08:13:05.584Z</time></trkpt><trkpt lat="44.2770033" lon="8.20194"><ele>750.4</ele><time>2026-04-06T08:13:07.584Z</time></trkpt><trkpt lat="44.2770133" lon="8.2017967"><ele>753.1999999999999</ele><time>2026-04-06T08:13:09.584Z</time></trkpt><trkpt lat="44.27698" lon="8.2016767"><ele>756.0</ele><time>2026-04-06T08:13:11.584Z</time></trkpt><trkpt lat="44.2769117" lon="8.2016217"><ele>756.0</ele><time>2026-04-06T08:13:13.584Z</time></trkpt><trkpt lat="44.2768383" lon="8.2016467"><ele>756.0</ele><time>2026-04-06T08:13:16.584Z</time></trkpt><trkpt lat="44.2767767" lon="8.201725"><ele>756.0</ele><time>2026-04-06T08:13:19.583Z</time></trkpt><trkpt lat="44.2767217" lon="8.2017733"><ele>756.0</ele><time>2026-04-06T08:13:21.584Z</time></trkpt><trkpt lat="44.2766483" lon="8.201835"><ele>756.0</ele><time>2026-04-06T08:13:24.584Z</time></trkpt><trkpt lat="44.2765717" lon="8.20188"><ele>756.0</ele><time>2026-04-06T08:13:27.584Z</time></trkpt><trkpt lat="44.276495" lon="8.2019167"><ele>759.6666666666666</ele><time>2026-04-06T08:13:30.584Z</time></trkpt><trkpt lat="44.27642" lon="8.2019617"><ele>763.3333333333333</ele><time>2026-04-06T08:13:33.584Z</time></trkpt><trkpt lat="44.2763417" lon="8.20197"><ele>767.0</ele><time>2026-04-06T08:13:39.584Z</time></trkpt><trkpt lat="44.2762617" lon="8.201985"><ele>770.6666666666666</ele><time>2026-04-06T08:13:42.584Z</time></trkpt><trkpt lat="44.2761783" lon="8.2019883"><ele>774.3333333333333</ele><time>2026-04-06T08:13:45.584Z</time></trkpt><trkpt lat="44.2761083" lon="8.20202"><ele>778.0</ele><time>2026-04-06T08:13:47.584Z</time></trkpt><trkpt lat="44.2760317" lon="8.2020633"><ele>778.0</ele><time>2026-04-06T08:13:49.584Z</time></trkpt><trkpt lat="44.27595" lon="8.2021183"><ele>778.0</ele><time>2026-04-06T08:13:52.583Z</time></trkpt><trkpt lat="44.2759" lon="8.2021833"><ele>778.0</ele><time>2026-04-06T08:13:54.584Z</time></trkpt><trkpt lat="44.2758233" lon="8.20225"><ele>778.0</ele><time>2026-04-06T08:13:56.584Z</time></trkpt><trkpt lat="44.2757267" lon="8.2023267"><ele>778.0</ele><time>2026-04-06T08:13:58.584Z</time></trkpt><trkpt lat="44.2756383" lon="8.2024017"><ele>776.1666666666666</ele><time>2026-04-06T08:14:00.584Z</time></trkpt><trkpt lat="44.2755633" lon="8.2024483"><ele>774.3333333333333</ele><time>2026-04-06T08:14:02.583Z</time></trkpt><trkpt lat="44.2754883" lon="8.2024783"><ele>772.5</ele><time>2026-04-06T08:14:04.584Z</time></trkpt><trkpt lat="44.2754133" lon="8.202495"><ele>770.6666666666666</ele><time>2026-04-06T08:14:06.584Z</time></trkpt><trkpt lat="44.275315" lon="8.2024883"><ele>768.8333333333333</ele><time>2026-04-06T08:14:08.584Z</time></trkpt><trkpt lat="44.2752233" lon="8.2024717"><ele>767.0</ele><time>2026-04-06T08:14:10.583Z</time></trkpt><trkpt lat="44.2751383" lon="8.2024417"><ele>767.0</ele><time>2026-04-06T08:14:12.584Z</time></trkpt><trkpt lat="44.2750567" lon="8.2024183"><ele>767.0</ele><time>2026-04-06T08:14:14.584Z</time></trkpt><trkpt lat="44.27499" lon="8.2024133"><ele>767.0</ele><time>2026-04-06T08:14:16.584Z</time></trkpt><trkpt lat="44.2749233" lon="8.2024533"><ele>767.0</ele><time>2026-04-06T08:14:18.584Z</time></trkpt><trkpt lat="44.27484" lon="8.2024933"><ele>767.0</ele><time>2026-04-06T08:14:21.584Z</time></trkpt><trkpt lat="44.2747567" lon="8.2025183"><ele>767.0</ele><time>2026-04-06T08:14:24.584Z</time></trkpt><trkpt lat="44.2746867" lon="8.2025433"><ele>769.4000000000001</ele><time>2026-04-06T08:14:26.584Z</time></trkpt><trkpt lat="44.2746083" lon="8.2025767"><ele>771.8000000000001</ele><time>2026-04-06T08:14:29.584Z</time></trkpt><trkpt lat="44.2745217" lon="8.2026567"><ele>774.2</ele><time>2026-04-06T08:14:32.584Z</time></trkpt><trkpt lat="44.2744217" lon="8.20273"><ele>776.6</ele><time>2026-04-06T08:14:34.584Z</time></trkpt><trkpt lat="44.2743383" lon="8.20279"><ele>779.0</ele><time>2026-04-06T08:14:36.584Z</time></trkpt><trkpt lat="44.2742767" lon="8.2028467"><ele>779.0000000000001</ele><time>2026-04-06T08:14:38.584Z</time></trkpt><trkpt lat="44.2742033" lon="8.202935"><ele>779.0</ele><time>2026-04-06T08:14:41.584Z</time></trkpt><trkpt lat="44.2741533" lon="8.202995"><ele>779.0</ele><time>2026-04-06T08:14:43.583Z</time></trkpt><trkpt lat="44.2740967" lon="8.2030483"><ele>779.0</ele><time>2026-04-06T08:14:45.584Z</time></trkpt><trkpt lat="44.2740283" lon="8.20313"><ele>779.0000000000001</ele><time>2026-04-06T08:14:48.584Z</time></trkpt><trkpt lat="44.2739767" lon="8.2031883"><ele>779.0</ele><time>2026-04-06T08:14:50.584Z</time></trkpt><trkpt lat="44.2739067" lon="8.2032367"><ele>780.8333333333334</ele><time>2026-04-06T08:14:52.584Z</time></trkpt><trkpt lat="44.2738283" lon="8.20329"><ele>782.6666666666667</ele><time>2026-04-06T08:14:54.584Z</time></trkpt><trkpt lat="44.2737417" lon="8.2033417"><ele>784.5</ele><time>2026-04-06T08:14:56.584Z</time></trkpt><trkpt lat="44.2736567" lon="8.2033917"><ele>786.3333333333333</ele><time>2026-04-06T08:14:58.584Z</time></trkpt><trkpt lat="44.2735733" lon="8.203435"><ele>788.1666666666666</ele><time>2026-04-06T08:15:00.584Z</time></trkpt><trkpt lat="44.2734983" lon="8.203465"><ele>790.0</ele><time>2026-04-06T08:15:02.584Z</time></trkpt><trkpt lat="44.273425" lon="8.2035167"><ele>789.9999999999999</ele><time>2026-04-06T08:15:05.584Z</time></trkpt><trkpt lat="44.2733567" lon="8.2036067"><ele>790.0</ele><time>2026-04-06T08:15:08.584Z</time></trkpt><trkpt lat="44.2732883" lon="8.2036817"><ele>790.0</ele><time>2026-04-06T08:15:10.584Z</time></trkpt><trkpt lat="44.273215" lon="8.2037417"><ele>790.0</ele><time>2026-04-06T08:15:12.584Z</time></trkpt><trkpt lat="44.2731517" lon="8.203785"><ele>789.9999999999999</ele><time>2026-04-06T08:15:14.584Z</time></trkpt><trkpt lat="44.2730917" lon="8.2038383"><ele>790.0</ele><time>2026-04-06T08:15:16.584Z</time></trkpt><trkpt lat="44.27304" lon="8.2038917"><ele>792.4999999999999</ele><time>2026-04-06T08:15:18.584Z</time></trkpt><trkpt lat="44.2729717" lon="8.20395"><ele>795.0</ele><time>2026-04-06T08:15:20.584Z</time></trkpt><trkpt lat="44.2729067" lon="8.2039817"><ele>797.5</ele><time>2026-04-06T08:15:22.584Z</time></trkpt><trkpt lat="44.2728333" lon="8.20393"><ele>800.0</ele><time>2026-04-06T08:15:25.584Z</time></trkpt><trkpt lat="44.2728967" lon="8.2039367"><ele>802.4999999999999</ele><time>2026-04-06T08:15:32.584Z</time></trkpt><trkpt lat="44.2729633" lon="8.2038683"><ele>805.0</ele><time>2026-04-06T08:15:39.583Z</time></trkpt><trkpt lat="44.2730017" lon="8.20374"><ele>804.9999999999999</ele><time>2026-04-06T08:15:41.584Z</time></trkpt><trkpt lat="44.2729867" lon="8.203595"><ele>805.0</ele><time>2026-04-06T08:15:43.584Z</time></trkpt><trkpt lat="44.27293" lon="8.20353"><ele>805.0</ele><time>2026-04-06T08:15:45.584Z</time></trkpt><trkpt lat="44.2728583" lon="8.2035083"><ele>805.0</ele><time>2026-04-06T08:15:56.584Z</time></trkpt><trkpt lat="44.2727767" lon="8.2035017"><ele>804.9999999999999</ele><time>2026-04-06T08:16:03.584Z</time></trkpt><trkpt lat="44.272685" lon="8.2035267"><ele>805.0</ele><time>2026-04-06T08:16:06.583Z</time></trkpt><trkpt lat="44.2725917" lon="8.2035883"><ele>804.9999999999999</ele><time>2026-04-06T08:16:08.584Z</time></trkpt><trkpt lat="44.27253" lon="8.20368"><ele>805.0</ele><time>2026-04-06T08:16:11.583Z</time></trkpt><trkpt lat="44.2724617" lon="8.2037683"><ele>805.0</ele><time>2026-04-06T08:16:14.584Z</time></trkpt><trkpt lat="44.2724117" lon="8.20383"><ele>805.0</ele><time>2026-04-06T08:16:16.584Z</time></trkpt><trkpt lat="44.2723417" lon="8.20388"><ele>804.9999999999999</ele><time>2026-04-06T08:16:18.584Z</time></trkpt><trkpt lat="44.2722567" lon="8.2039067"><ele>805.0</ele><time>2026-04-06T08:16:21.584Z</time></trkpt><trkpt lat="44.27217" lon="8.2039733"><ele>805.3333333333333</ele><time>2026-04-06T08:16:23.584Z</time></trkpt><trkpt lat="44.2721183" lon="8.2040317"><ele>805.6666666666666</ele><time>2026-04-06T08:16:25.584Z</time></trkpt><trkpt lat="44.272055" lon="8.204085"><ele>806.0</ele><time>2026-04-06T08:16:29.584Z</time></trkpt><trkpt lat="44.2719967" lon="8.2041267"><ele>806.3333333333333</ele><time>2026-04-06T08:16:30.584Z</time></trkpt><trkpt lat="44.271895" lon="8.2041883"><ele>806.6666666666666</ele><time>2026-04-06T08:16:32.584Z</time></trkpt><trkpt lat="44.2718283" lon="8.2042383"><ele>807.0</ele><time>2026-04-06T08:16:33.584Z</time></trkpt><trkpt lat="44.2717567" lon="8.204275"><ele>807.0</ele><time>2026-04-06T08:16:35.584Z</time></trkpt><trkpt lat="44.2716783" lon="8.2043217"><ele>807.0</ele><time>2026-04-06T08:16:38.584Z</time></trkpt><trkpt lat="44.2715967" lon="8.2043533"><ele>807.0</ele><time>2026-04-06T08:16:41.584Z</time></trkpt><trkpt lat="44.2715067" lon="8.2044367"><ele>807.0</ele><time>2026-04-06T08:16:44.584Z</time></trkpt><trkpt lat="44.271445" lon="8.204515"><ele>807.0</ele><time>2026-04-06T08:16:47.584Z</time></trkpt><trkpt lat="44.2713717" lon="8.20461"><ele>808.2</ele><time>2026-04-06T08:16:49.584Z</time></trkpt><trkpt lat="44.2713083" lon="8.20466"><ele>809.4000000000001</ele><time>2026-04-06T08:16:50.584Z</time></trkpt><trkpt lat="44.2712217" lon="8.2047017"><ele>810.5999999999999</ele><time>2026-04-06T08:16:51.583Z</time></trkpt><trkpt lat="44.27114" lon="8.2047667"><ele>811.8</ele><time>2026-04-06T08:16:53.584Z</time></trkpt><trkpt lat="44.2710333" lon="8.2048467"><ele>813.0</ele><time>2026-04-06T08:16:55.583Z</time></trkpt><trkpt lat="44.2709667" lon="8.2049283"><ele>813.0</ele><time>2026-04-06T08:16:57.584Z</time></trkpt><trkpt lat="44.27091" lon="8.2050433"><ele>813.0</ele><time>2026-04-06T08:16:59.584Z</time></trkpt><trkpt lat="44.27086" lon="8.2051333"><ele>813.0</ele><time>2026-04-06T08:17:01.583Z</time></trkpt><trkpt lat="44.2708217" lon="8.2052267"><ele>813.0</ele><time>2026-04-06T08:17:03.584Z</time></trkpt><trkpt lat="44.2707433" lon="8.2053233"><ele>813.0</ele><time>2026-04-06T08:17:05.583Z</time></trkpt><trkpt lat="44.2706983" lon="8.205405"><ele>813.0</ele><time>2026-04-06T08:17:07.584Z</time></trkpt><trkpt lat="44.27066" lon="8.205505"><ele>813.0</ele><time>2026-04-06T08:17:09.584Z</time></trkpt><trkpt lat="44.2706267" lon="8.2056117"><ele>813.0</ele><time>2026-04-06T08:17:11.584Z</time></trkpt><trkpt lat="44.2705867" lon="8.2057383"><ele>813.0</ele><time>2026-04-06T08:17:13.584Z</time></trkpt><trkpt lat="44.27055" lon="8.2058767"><ele>813.0</ele><time>2026-04-06T08:17:15.584Z</time></trkpt><trkpt lat="44.270495" lon="8.20601"><ele>813.0</ele><time>2026-04-06T08:17:17.583Z</time></trkpt><trkpt lat="44.2704683" lon="8.206135"><ele>817.4</ele><time>2026-04-06T08:17:19.584Z</time></trkpt><trkpt lat="44.2704367" lon="8.2062533"><ele>821.8</ele><time>2026-04-06T08:17:21.584Z</time></trkpt><trkpt lat="44.2703917" lon="8.2063933"><ele>826.2</ele><time>2026-04-06T08:17:23.584Z</time></trkpt><trkpt lat="44.2703667" lon="8.20652"><ele>830.6</ele><time>2026-04-06T08:17:25.584Z</time></trkpt><trkpt lat="44.2703433" lon="8.2066483"><ele>835.0</ele><time>2026-04-06T08:17:27.584Z</time></trkpt><trkpt lat="44.2703183" lon="8.2067667"><ele>834.9999999999999</ele><time>2026-04-06T08:17:29.584Z</time></trkpt><trkpt lat="44.2702867" lon="8.2068767"><ele>835.0</ele><time>2026-04-06T08:17:31.583Z</time></trkpt><trkpt lat="44.2702617" lon="8.2069933"><ele>835.0</ele><time>2026-04-06T08:17:33.582Z</time></trkpt><trkpt lat="44.2702467" lon="8.207115"><ele>835.0</ele><time>2026-04-06T08:17:35.583Z</time></trkpt><trkpt lat="44.2702217" lon="8.2072267"><ele>834.9999999999999</ele><time>2026-04-06T08:17:37.582Z</time></trkpt><trkpt lat="44.27021" lon="8.2073433"><ele>835.0</ele><time>2026-04-06T08:17:39.583Z</time></trkpt><trkpt lat="44.270185" lon="8.207455"><ele>833.4</ele><time>2026-04-06T08:17:41.583Z</time></trkpt><trkpt lat="44.2701583" lon="8.2075683"><ele>831.8</ele><time>2026-04-06T08:17:43.582Z</time></trkpt><trkpt lat="44.2701267" lon="8.2076867"><ele>830.2</ele><time>2026-04-06T08:17:45.583Z</time></trkpt><trkpt lat="44.2700867" lon="8.20779"><ele>828.6</ele><time>2026-04-06T08:17:47.583Z</time></trkpt><trkpt lat="44.270045" lon="8.2079067"><ele>827.0</ele><time>2026-04-06T08:17:49.583Z</time></trkpt><trkpt lat="44.2699933" lon="8.2080283"><ele>827.0</ele><time>2026-04-06T08:17:51.582Z</time></trkpt><trkpt lat="44.26993" lon="8.208125"><ele>827.0</ele><time>2026-04-06T08:17:53.583Z</time></trkpt><trkpt lat="44.2698667" lon="8.2082233"><ele>827.0</ele><time>2026-04-06T08:17:55.582Z</time></trkpt><trkpt lat="44.26981" lon="8.2083317"><ele>827.0</ele><time>2026-04-06T08:17:57.582Z</time></trkpt><trkpt lat="44.2697717" lon="8.20847"><ele>827.0</ele><time>2026-04-06T08:17:59.583Z</time></trkpt><trkpt lat="44.2697733" lon="8.2086367"><ele>825.8571428571429</ele><time>2026-04-06T08:18:01.583Z</time></trkpt><trkpt lat="44.2697933" lon="8.2087333"><ele>824.7142857142857</ele><time>2026-04-06T08:18:02.584Z</time></trkpt><trkpt lat="44.2698167" lon="8.2088233"><ele>823.5714285714286</ele><time>2026-04-06T08:18:03.583Z</time></trkpt><trkpt lat="44.2698367" lon="8.2089117"><ele>822.4285714285714</ele><time>2026-04-06T08:18:04.583Z</time></trkpt><trkpt lat="44.2698567" lon="8.2089967"><ele>821.2857142857142</ele><time>2026-04-06T08:18:05.583Z</time></trkpt><trkpt lat="44.2698817" lon="8.2090833"><ele>820.1428571428571</ele><time>2026-04-06T08:18:06.583Z</time></trkpt><trkpt lat="44.269905" lon="8.2091717"><ele>819.0</ele><time>2026-04-06T08:18:07.583Z</time></trkpt><trkpt lat="44.2699233" lon="8.20926"><ele>818.7142857142857</ele><time>2026-04-06T08:18:08.582Z</time></trkpt><trkpt lat="44.26994" lon="8.209355"><ele>818.4285714285714</ele><time>2026-04-06T08:18:09.583Z</time></trkpt><trkpt lat="44.2699633" lon="8.2094533"><ele>818.1428571428571</ele><time>2026-04-06T08:18:10.582Z</time></trkpt><trkpt lat="44.2699867" lon="8.2095533"><ele>817.8571428571429</ele><time>2026-04-06T08:18:11.583Z</time></trkpt><trkpt lat="44.27001" lon="8.2096533"><ele>817.5714285714286</ele><time>2026-04-06T08:18:12.583Z</time></trkpt><trkpt lat="44.2700317" lon="8.2097483"><ele>817.2857142857142</ele><time>2026-04-06T08:18:13.583Z</time></trkpt><trkpt lat="44.2700567" lon="8.20985"><ele>817.0</ele><time>2026-04-06T08:18:14.583Z</time></trkpt><trkpt lat="44.270085" lon="8.209935"><ele>816.9999999999999</ele><time>2026-04-06T08:18:15.583Z</time></trkpt><trkpt lat="44.2701283" lon="8.21002"><ele>817.0</ele><time>2026-04-06T08:18:16.583Z</time></trkpt><trkpt lat="44.2701883" lon="8.2100783"><ele>817.0</ele><time>2026-04-06T08:18:17.583Z</time></trkpt><trkpt lat="44.2702583" lon="8.210105"><ele>817.0</ele><time>2026-04-06T08:18:18.582Z</time></trkpt><trkpt lat="44.2703283" lon="8.2101083"><ele>817.0</ele><time>2026-04-06T08:18:19.582Z</time></trkpt><trkpt lat="44.2704" lon="8.2101167"><ele>816.9999999999999</ele><time>2026-04-06T08:18:20.582Z</time></trkpt><trkpt lat="44.2704683" lon="8.2101467"><ele>817.0</ele><time>2026-04-06T08:18:21.582Z</time></trkpt><trkpt lat="44.2705267" lon="8.2101983"><ele>816.9999999999999</ele><time>2026-04-06T08:18:22.583Z</time></trkpt><trkpt lat="44.2705767" lon="8.2102733"><ele>817.0</ele><time>2026-04-06T08:18:23.583Z</time></trkpt><trkpt lat="44.2706167" lon="8.21036"><ele>817.0</ele><time>2026-04-06T08:18:24.582Z</time></trkpt><trkpt lat="44.2706517" lon="8.21045"><ele>817.0</ele><time>2026-04-06T08:18:25.583Z</time></trkpt><trkpt lat="44.2706783" lon="8.2105433"><ele>816.9999999999999</ele><time>2026-04-06T08:18:26.583Z</time></trkpt><trkpt lat="44.2707133" lon="8.2106433"><ele>817.0</ele><time>2026-04-06T08:18:27.583Z</time></trkpt><trkpt lat="44.2707483" lon="8.21075"><ele>814.8333333333333</ele><time>2026-04-06T08:18:28.582Z</time></trkpt><trkpt lat="44.2707883" lon="8.2108567"><ele>812.6666666666666</ele><time>2026-04-06T08:18:29.582Z</time></trkpt><trkpt lat="44.2708267" lon="8.210965"><ele>810.5</ele><time>2026-04-06T08:18:30.583Z</time></trkpt><trkpt lat="44.270865" lon="8.2110617"><ele>808.3333333333333</ele><time>2026-04-06T08:18:31.583Z</time></trkpt><trkpt lat="44.27091" lon="8.2111517"><ele>806.1666666666666</ele><time>2026-04-06T08:18:32.583Z</time></trkpt><trkpt lat="44.2709817" lon="8.2112433"><ele>804.0</ele><time>2026-04-06T08:18:33.583Z</time></trkpt><trkpt lat="44.2710667" lon="8.2112967"><ele>804.0</ele><time>2026-04-06T08:18:34.583Z</time></trkpt><trkpt lat="44.2711583" lon="8.2113233"><ele>804.0</ele><time>2026-04-06T08:18:35.583Z</time></trkpt><trkpt lat="44.27125" lon="8.211345"><ele>804.0</ele><time>2026-04-06T08:18:36.582Z</time></trkpt><trkpt lat="44.271335" lon="8.21135"><ele>804.0</ele><time>2026-04-06T08:18:37.583Z</time></trkpt><trkpt lat="44.27142" lon="8.2113567"><ele>804.0</ele><time>2026-04-06T08:18:38.584Z</time></trkpt><trkpt lat="44.2715" lon="8.2113733"><ele>804.0</ele><time>2026-04-06T08:18:39.584Z</time></trkpt><trkpt lat="44.2715833" lon="8.2113833"><ele>801.1428571428571</ele><time>2026-04-06T08:18:40.583Z</time></trkpt><trkpt lat="44.2716617" lon="8.2113933"><ele>798.2857142857143</ele><time>2026-04-06T08:18:41.583Z</time></trkpt><trkpt lat="44.2717333" lon="8.2114"><ele>795.4285714285714</ele><time>2026-04-06T08:18:42.583Z</time></trkpt><trkpt lat="44.2718017" lon="8.2114067"><ele>792.5714285714286</ele><time>2026-04-06T08:18:43.583Z</time></trkpt><trkpt lat="44.2718733" lon="8.2114083"><ele>789.7142857142858</ele><time>2026-04-06T08:18:44.583Z</time></trkpt><trkpt lat="44.2719417" lon="8.2114167"><ele>786.8571428571429</ele><time>2026-04-06T08:18:45.583Z</time></trkpt><trkpt lat="44.2720067" lon="8.2114283"><ele>784.0</ele><time>2026-04-06T08:18:46.583Z</time></trkpt><trkpt lat="44.2720733" lon="8.2114383"><ele>783.9999999999999</ele><time>2026-04-06T08:18:47.582Z</time></trkpt><trkpt lat="44.27214" lon="8.211445"><ele>784.0</ele><time>2026-04-06T08:18:48.583Z</time></trkpt><trkpt lat="44.2722067" lon="8.2114567"><ele>784.0</ele><time>2026-04-06T08:18:49.583Z</time></trkpt><trkpt lat="44.2723283" lon="8.211465"><ele>784.0</ele><time>2026-04-06T08:18:51.583Z</time></trkpt><trkpt lat="44.27245" lon="8.2114683"><ele>783.9999999999999</ele><time>2026-04-06T08:18:53.583Z</time></trkpt><trkpt lat="44.2725133" lon="8.2114767"><ele>784.0</ele><time>2026-04-06T08:18:54.583Z</time></trkpt><trkpt lat="44.2726283" lon="8.211495"><ele>786.6</ele><time>2026-04-06T08:18:56.584Z</time></trkpt><trkpt lat="44.2727417" lon="8.21151"><ele>789.2</ele><time>2026-04-06T08:18:58.583Z</time></trkpt><trkpt lat="44.2728533" lon="8.2115283"><ele>791.8000000000001</ele><time>2026-04-06T08:19:00.584Z</time></trkpt><trkpt lat="44.2729667" lon="8.211585"><ele>794.4000000000001</ele><time>2026-04-06T08:19:02.583Z</time></trkpt><trkpt lat="44.2730217" lon="8.2116283"><ele>797.0</ele><time>2026-04-06T08:19:03.582Z</time></trkpt><trkpt lat="44.2730783" lon="8.2116717"><ele>796.0</ele><time>2026-04-06T08:19:04.583Z</time></trkpt><trkpt lat="44.2731333" lon="8.21173"><ele>795.0</ele><time>2026-04-06T08:19:05.583Z</time></trkpt><trkpt lat="44.273185" lon="8.211795"><ele>794.0</ele><time>2026-04-06T08:19:06.583Z</time></trkpt><trkpt lat="44.2732433" lon="8.21186"><ele>793.0</ele><time>2026-04-06T08:19:07.583Z</time></trkpt><trkpt lat="44.273305" lon="8.2119267"><ele>792.0</ele><time>2026-04-06T08:19:08.583Z</time></trkpt><trkpt lat="44.2733667" lon="8.2119967"><ele>791.0</ele><time>2026-04-06T08:19:09.583Z</time></trkpt><trkpt lat="44.2734233" lon="8.212065"><ele>790.0</ele><time>2026-04-06T08:19:10.582Z</time></trkpt><trkpt lat="44.2734867" lon="8.212125"><ele>789.9999999999999</ele><time>2026-04-06T08:19:11.583Z</time></trkpt><trkpt lat="44.2735533" lon="8.2121767"><ele>790.0</ele><time>2026-04-06T08:19:12.583Z</time></trkpt><trkpt lat="44.2736217" lon="8.2122167"><ele>790.0</ele><time>2026-04-06T08:19:13.583Z</time></trkpt><trkpt lat="44.2737217" lon="8.2123"><ele>790.0</ele><time>2026-04-06T08:19:15.583Z</time></trkpt><trkpt lat="44.2738" lon="8.2123667"><ele>789.9999999999999</ele><time>2026-04-06T08:19:17.583Z</time></trkpt><trkpt lat="44.2738533" lon="8.2124217"><ele>790.0</ele><time>2026-04-06T08:19:19.582Z</time></trkpt><trkpt lat="44.27392" lon="8.2124917"><ele>790.8571428571428</ele><time>2026-04-06T08:19:22.582Z</time></trkpt><trkpt lat="44.2739733" lon="8.21254"><ele>791.7142857142858</ele><time>2026-04-06T08:19:24.583Z</time></trkpt><trkpt lat="44.27405" lon="8.2126"><ele>792.5714285714286</ele><time>2026-04-06T08:19:27.583Z</time></trkpt><trkpt lat="44.2741167" lon="8.2126483"><ele>793.4285714285713</ele><time>2026-04-06T08:19:30.583Z</time></trkpt><trkpt lat="44.2741717" lon="8.2127033"><ele>794.2857142857142</ele><time>2026-04-06T08:19:33.583Z</time></trkpt><trkpt lat="44.2742267" lon="8.21276"><ele>795.1428571428571</ele><time>2026-04-06T08:19:36.583Z</time></trkpt><trkpt lat="44.2742867" lon="8.21281"><ele>796.0</ele><time>2026-04-06T08:19:39.583Z</time></trkpt><trkpt lat="44.2743517" lon="8.21284"><ele>795.9999999999999</ele><time>2026-04-06T08:19:41.583Z</time></trkpt><trkpt lat="44.2744383" lon="8.2128633"><ele>796.0</ele><time>2026-04-06T08:19:44.583Z</time></trkpt><trkpt lat="44.2745167" lon="8.212885"><ele>796.0</ele><time>2026-04-06T08:19:47.582Z</time></trkpt><trkpt lat="44.274585" lon="8.2129133"><ele>796.0</ele><time>2026-04-06T08:19:50.583Z</time></trkpt><trkpt lat="44.2746633" lon="8.212945"><ele>795.9999999999999</ele><time>2026-04-06T08:19:54.583Z</time></trkpt><trkpt lat="44.2747267" lon="8.2129733"><ele>796.0</ele><time>2026-04-06T08:19:57.583Z</time></trkpt><trkpt lat="44.2748083" lon="8.212995"><ele>796.9999999999999</ele><time>2026-04-06T08:20:01.583Z</time></trkpt><trkpt lat="44.274885" lon="8.2130233"><ele>798.0</ele><time>2026-04-06T08:20:05.583Z</time></trkpt><trkpt lat="44.27496" lon="8.21308"><ele>799.0</ele><time>2026-04-06T08:20:09.582Z</time></trkpt><trkpt lat="44.2750267" lon="8.213135"><ele>800.0</ele><time>2026-04-06T08:20:12.583Z</time></trkpt><trkpt lat="44.2750933" lon="8.2131917"><ele>800.9999999999999</ele><time>2026-04-06T08:20:15.583Z</time></trkpt><trkpt lat="44.2751633" lon="8.21324"><ele>802.0</ele><time>2026-04-06T08:20:18.583Z</time></trkpt><trkpt lat="44.2752333" lon="8.2132767"><ele>803.8571428571429</ele><time>2026-04-06T08:20:21.583Z</time></trkpt><trkpt lat="44.2753033" lon="8.2132967"><ele>805.7142857142858</ele><time>2026-04-06T08:20:24.583Z</time></trkpt><trkpt lat="44.2753717" lon="8.21332"><ele>807.5714285714286</ele><time>2026-04-06T08:20:27.583Z</time></trkpt><trkpt lat="44.2754417" lon="8.2133467"><ele>809.4285714285714</ele><time>2026-04-06T08:20:30.583Z</time></trkpt><trkpt lat="44.2755217" lon="8.213395"><ele>811.2857142857142</ele><time>2026-04-06T08:20:33.583Z</time></trkpt><trkpt lat="44.2755933" lon="8.2134433"><ele>813.1428571428571</ele><time>2026-04-06T08:20:36.583Z</time></trkpt><trkpt lat="44.2756583" lon="8.2134633"><ele>815.0</ele><time>2026-04-06T08:20:39.583Z</time></trkpt><trkpt lat="44.2757233" lon="8.21347"><ele>817.1428571428571</ele><time>2026-04-06T08:20:42.583Z</time></trkpt><trkpt lat="44.2757967" lon="8.2134683"><ele>819.2857142857142</ele><time>2026-04-06T08:20:45.583Z</time></trkpt><trkpt lat="44.2758683" lon="8.2134633"><ele>821.4285714285714</ele><time>2026-04-06T08:20:48.583Z</time></trkpt><trkpt lat="44.2759317" lon="8.2134483"><ele>823.5714285714286</ele><time>2026-04-06T08:20:51.583Z</time></trkpt><trkpt lat="44.2760033" lon="8.213415"><ele>825.7142857142858</ele><time>2026-04-06T08:20:54.583Z</time></trkpt><trkpt lat="44.2760767" lon="8.2133833"><ele>827.8571428571429</ele><time>2026-04-06T08:20:57.583Z</time></trkpt><trkpt lat="44.27614" lon="8.2133483"><ele>830.0</ele><time>2026-04-06T08:21:00.583Z</time></trkpt><trkpt lat="44.2761983" lon="8.213315"><ele>830.0000000000001</ele><time>2026-04-06T08:21:03.582Z</time></trkpt><trkpt lat="44.27626" lon="8.2132783"><ele>830.0</ele><time>2026-04-06T08:21:06.582Z</time></trkpt><trkpt lat="44.2763233" lon="8.2132383"><ele>830.0</ele><time>2026-04-06T08:21:09.582Z</time></trkpt><trkpt lat="44.2763817" lon="8.2131983"><ele>830.0</ele><time>2026-04-06T08:21:12.583Z</time></trkpt><trkpt lat="44.2764617" lon="8.2131567"><ele>830.0000000000001</ele><time>2026-04-06T08:21:16.583Z</time></trkpt><trkpt lat="44.276545" lon="8.213115"><ele>830.0</ele><time>2026-04-06T08:21:20.583Z</time></trkpt><trkpt lat="44.2766167" lon="8.2130783"><ele>830.8333333333334</ele><time>2026-04-06T08:21:24.583Z</time></trkpt><trkpt lat="44.2766917" lon="8.2130367"><ele>831.6666666666667</ele><time>2026-04-06T08:21:28.583Z</time></trkpt><trkpt lat="44.276775" lon="8.213005"><ele>832.5</ele><time>2026-04-06T08:21:32.583Z</time></trkpt><trkpt lat="44.27684" lon="8.21296"><ele>833.3333333333333</ele><time>2026-04-06T08:21:35.583Z</time></trkpt><trkpt lat="44.2769117" lon="8.21291"><ele>834.1666666666666</ele><time>2026-04-06T08:21:38.583Z</time></trkpt><trkpt lat="44.2769883" lon="8.21285"><ele>835.0</ele><time>2026-04-06T08:21:41.583Z</time></trkpt><trkpt lat="44.2770567" lon="8.2128067"><ele>834.9999999999999</ele><time>2026-04-06T08:21:44.583Z</time></trkpt><trkpt lat="44.2771217" lon="8.212755"><ele>835.0</ele><time>2026-04-06T08:21:47.583Z</time></trkpt><trkpt lat="44.2771833" lon="8.2127117"><ele>835.0</ele><time>2026-04-06T08:21:50.583Z</time></trkpt><trkpt lat="44.2772417" lon="8.21266"><ele>835.0</ele><time>2026-04-06T08:21:53.583Z</time></trkpt><trkpt lat="44.2772917" lon="8.2125367"><ele>834.9999999999999</ele><time>2026-04-06T08:21:57.582Z</time></trkpt><trkpt lat="44.2773067" lon="8.212445"><ele>835.0</ele><time>2026-04-06T08:22:00.583Z</time></trkpt><trkpt lat="44.2773117" lon="8.2123483"><ele>836.1666666666666</ele><time>2026-04-06T08:22:04.583Z</time></trkpt><trkpt lat="44.2773533" lon="8.2121633"><ele>837.3333333333333</ele><time>2026-04-06T08:23:09.583Z</time></trkpt><trkpt lat="44.277315" lon="8.2120883"><ele>838.5</ele><time>2026-04-06T08:25:38.584Z</time></trkpt><trkpt lat="44.27729" lon="8.2119583"><ele>839.6666666666667</ele><time>2026-04-06T08:25:41.583Z</time></trkpt><trkpt lat="44.2772933" lon="8.21186"><ele>840.8333333333334</ele><time>2026-04-06T08:25:43.584Z</time></trkpt><trkpt lat="44.2773517" lon="8.21179"><ele>842.0</ele><time>2026-04-06T08:25:46.583Z</time></trkpt><trkpt lat="44.2774167" lon="8.21174"><ele>842.0000000000001</ele><time>2026-04-06T08:25:48.584Z</time></trkpt><trkpt lat="44.2774917" lon="8.21171"><ele>842.0</ele><time>2026-04-06T08:25:50.584Z</time></trkpt><trkpt lat="44.2775583" lon="8.2117033"><ele>842.0</ele><time>2026-04-06T08:25:52.584Z</time></trkpt><trkpt lat="44.27766" lon="8.2117367"><ele>842.0</ele><time>2026-04-06T08:25:55.584Z</time></trkpt><trkpt lat="44.27773" lon="8.2117567"><ele>842.0000000000001</ele><time>2026-04-06T08:25:57.583Z</time></trkpt><trkpt lat="44.2777983" lon="8.2118233"><ele>842.0</ele><time>2026-04-06T08:25:59.584Z</time></trkpt><trkpt lat="44.2778533" lon="8.2119017"><ele>842.0000000000001</ele><time>2026-04-06T08:26:01.584Z</time></trkpt><trkpt lat="44.2779" lon="8.2119717"><ele>842.0</ele><time>2026-04-06T08:26:03.584Z</time></trkpt><trkpt lat="44.2779317" lon="8.212095"><ele>842.0</ele><time>2026-04-06T08:26:06.584Z</time></trkpt><trkpt lat="44.277945" lon="8.2121817"><ele>842.0</ele><time>2026-04-06T08:26:08.584Z</time></trkpt><trkpt lat="44.27803" lon="8.2122433"><ele>842.0000000000001</ele><time>2026-04-06T08:26:11.584Z</time></trkpt><trkpt lat="44.278135" lon="8.2122833"><ele>842.0</ele><time>2026-04-06T08:26:13.584Z</time></trkpt><trkpt lat="44.2782417" lon="8.2122833"><ele>839.3333333333334</ele><time>2026-04-06T08:26:15.584Z</time></trkpt><trkpt lat="44.278355" lon="8.2122833"><ele>836.6666666666667</ele><time>2026-04-06T08:26:17.584Z</time></trkpt><trkpt lat="44.2784233" lon="8.212285"><ele>834.0</ele><time>2026-04-06T08:26:18.584Z</time></trkpt><trkpt lat="44.2784983" lon="8.2122917"><ele>831.3333333333333</ele><time>2026-04-06T08:26:19.584Z</time></trkpt><trkpt lat="44.2785733" lon="8.212285"><ele>828.6666666666666</ele><time>2026-04-06T08:26:20.584Z</time></trkpt><trkpt lat="44.2786417" lon="8.2122717"><ele>826.0</ele><time>2026-04-06T08:26:21.584Z</time></trkpt><trkpt lat="44.2787117" lon="8.2122567"><ele>825.9999999999999</ele><time>2026-04-06T08:26:22.584Z</time></trkpt><trkpt lat="44.2787917" lon="8.212255"><ele>826.0</ele><time>2026-04-06T08:26:23.583Z</time></trkpt><trkpt lat="44.2788683" lon="8.2122333"><ele>826.0</ele><time>2026-04-06T08:26:24.584Z</time></trkpt><trkpt lat="44.2789417" lon="8.21222"><ele>826.0</ele><time>2026-04-06T08:26:25.584Z</time></trkpt><trkpt lat="44.2790067" lon="8.21221"><ele>825.9999999999999</ele><time>2026-04-06T08:26:26.584Z</time></trkpt><trkpt lat="44.27907" lon="8.212205"><ele>826.0</ele><time>2026-04-06T08:26:27.584Z</time></trkpt><trkpt lat="44.279195" lon="8.21218"><ele>821.1999999999999</ele><time>2026-04-06T08:26:29.584Z</time></trkpt><trkpt lat="44.2793233" lon="8.2121567"><ele>816.4</ele><time>2026-04-06T08:26:31.584Z</time></trkpt><trkpt lat="44.2794467" lon="8.2121667"><ele>811.6</ele><time>2026-04-06T08:26:33.584Z</time></trkpt><trkpt lat="44.27952" lon="8.2121617"><ele>806.8</ele><time>2026-04-06T08:26:34.584Z</time></trkpt><trkpt lat="44.27963" lon="8.2121633"><ele>802.0</ele><time>2026-04-06T08:26:36.584Z</time></trkpt><trkpt lat="44.2796983" lon="8.2121433"><ele>801.6666666666666</ele><time>2026-04-06T08:26:38.584Z</time></trkpt><trkpt lat="44.2797733" lon="8.2121233"><ele>801.3333333333333</ele><time>2026-04-06T08:26:40.584Z</time></trkpt><trkpt lat="44.2798483" lon="8.21208"><ele>801.0</ele><time>2026-04-06T08:26:42.584Z</time></trkpt><trkpt lat="44.27995" lon="8.2120333"><ele>800.6666666666667</ele><time>2026-04-06T08:26:44.584Z</time></trkpt><trkpt lat="44.2800383" lon="8.2119833"><ele>800.3333333333334</ele><time>2026-04-06T08:26:46.584Z</time></trkpt><trkpt lat="44.2801017" lon="8.2119083"><ele>800.0</ele><time>2026-04-06T08:26:48.583Z</time></trkpt><trkpt lat="44.280085" lon="8.2118167"><ele>800.0000000000001</ele><time>2026-04-06T08:26:51.584Z</time></trkpt><trkpt lat="44.2800167" lon="8.2118067"><ele>800.0</ele><time>2026-04-06T08:26:54.584Z</time></trkpt><trkpt lat="44.2800317" lon="8.2117117"><ele>800.0</ele><time>2026-04-06T08:26:58.584Z</time></trkpt><trkpt lat="44.2800967" lon="8.21164"><ele>800.0</ele><time>2026-04-06T08:27:00.584Z</time></trkpt><trkpt lat="44.2801417" lon="8.21156"><ele>800.0000000000001</ele><time>2026-04-06T08:27:02.584Z</time></trkpt><trkpt lat="44.2802067" lon="8.2114833"><ele>800.0</ele><time>2026-04-06T08:27:06.583Z</time></trkpt><trkpt lat="44.28023" lon="8.21138"><ele>800.0000000000001</ele><time>2026-04-06T08:27:09.583Z</time></trkpt><trkpt lat="44.2802917" lon="8.21136"><ele>800.0</ele><time>2026-04-06T08:27:11.584Z</time></trkpt><trkpt lat="44.2803667" lon="8.2113933"><ele>800.0</ele><time>2026-04-06T08:27:13.584Z</time></trkpt><trkpt lat="44.280445" lon="8.2114583"><ele>800.0</ele><time>2026-04-06T08:27:15.584Z</time></trkpt><trkpt lat="44.2805067" lon="8.2115333"><ele>800.0000000000001</ele><time>2026-04-06T08:27:17.584Z</time></trkpt><trkpt lat="44.2805483" lon="8.21163"><ele>800.0</ele><time>2026-04-06T08:27:20.584Z</time></trkpt><trkpt lat="44.2806117" lon="8.2115367"><ele>795.4</ele><time>2026-04-06T08:27:25.584Z</time></trkpt><trkpt lat="44.2806567" lon="8.2113983"><ele>790.8</ele><time>2026-04-06T08:27:27.584Z</time></trkpt><trkpt lat="44.2806783" lon="8.2112767"><ele>786.2</ele><time>2026-04-06T08:27:29.584Z</time></trkpt><trkpt lat="44.2807067" lon="8.2111417"><ele>781.6</ele><time>2026-04-06T08:27:31.584Z</time></trkpt><trkpt lat="44.2807867" lon="8.21114"><ele>777.0</ele><time>2026-04-06T08:27:36.584Z</time></trkpt><trkpt lat="44.2808567" lon="8.2112217"><ele>777.0</ele><time>2026-04-06T08:27:39.584Z</time></trkpt><trkpt lat="44.28095" lon="8.2112467"><ele>777.0</ele><time>2026-04-06T08:27:41.584Z</time></trkpt><trkpt lat="44.2810483" lon="8.2112517"><ele>777.0</ele><time>2026-04-06T08:27:43.584Z</time></trkpt><trkpt lat="44.28114" lon="8.2112333"><ele>777.0</ele><time>2026-04-06T08:27:45.584Z</time></trkpt><trkpt lat="44.28125" lon="8.2111633"><ele>777.0</ele><time>2026-04-06T08:27:47.584Z</time></trkpt><trkpt lat="44.28131" lon="8.2111267"><ele>777.0</ele><time>2026-04-06T08:27:48.584Z</time></trkpt><trkpt lat="44.281365" lon="8.21108"><ele>777.0</ele><time>2026-04-06T08:27:49.584Z</time></trkpt><trkpt lat="44.2814317" lon="8.21102"><ele>777.0</ele><time>2026-04-06T08:27:50.584Z</time></trkpt><trkpt lat="44.2814833" lon="8.2109067"><ele>777.0</ele><time>2026-04-06T08:27:52.584Z</time></trkpt><trkpt lat="44.281535" lon="8.2107833"><ele>777.0</ele><time>2026-04-06T08:27:54.584Z</time></trkpt><trkpt lat="44.2815617" lon="8.210655"><ele>777.0</ele><time>2026-04-06T08:27:56.584Z</time></trkpt><trkpt lat="44.2816" lon="8.2105467"><ele>775.6</ele><time>2026-04-06T08:27:58.584Z</time></trkpt><trkpt lat="44.28163" lon="8.2104033"><ele>774.2</ele><time>2026-04-06T08:28:00.583Z</time></trkpt><trkpt lat="44.2816783" lon="8.21026"><ele>772.8</ele><time>2026-04-06T08:28:02.584Z</time></trkpt><trkpt lat="44.2817083" lon="8.2101367"><ele>771.4</ele><time>2026-04-06T08:28:04.584Z</time></trkpt><trkpt lat="44.2817367" lon="8.2099683"><ele>770.0</ele><time>2026-04-06T08:28:06.584Z</time></trkpt><trkpt lat="44.2817583" lon="8.2098817"><ele>768.6666666666667</ele><time>2026-04-06T08:28:07.584Z</time></trkpt><trkpt lat="44.2817967" lon="8.20977"><ele>767.3333333333334</ele><time>2026-04-06T08:28:09.584Z</time></trkpt><trkpt lat="44.2818467" lon="8.20969"><ele>766.0</ele><time>2026-04-06T08:28:11.584Z</time></trkpt><trkpt lat="44.28187" lon="8.2095417"><ele>764.6666666666667</ele><time>2026-04-06T08:28:13.584Z</time></trkpt><trkpt lat="44.2818617" lon="8.2094467"><ele>763.3333333333334</ele><time>2026-04-06T08:28:14.584Z</time></trkpt><trkpt lat="44.28184" lon="8.2093417"><ele>762.0</ele><time>2026-04-06T08:28:15.583Z</time></trkpt><trkpt lat="44.2818267" lon="8.209255"><ele>762.0</ele><time>2026-04-06T08:28:16.583Z</time></trkpt><trkpt lat="44.28183" lon="8.2090817"><ele>762.0</ele><time>2026-04-06T08:28:18.584Z</time></trkpt><trkpt lat="44.2818167" lon="8.2089067"><ele>762.0</ele><time>2026-04-06T08:28:20.584Z</time></trkpt><trkpt lat="44.28182" lon="8.2088067"><ele>762.0</ele><time>2026-04-06T08:28:21.584Z</time></trkpt><trkpt lat="44.2818217" lon="8.2087183"><ele>762.0</ele><time>2026-04-06T08:28:22.584Z</time></trkpt><trkpt lat="44.281815" lon="8.208585"><ele>759.4000000000001</ele><time>2026-04-06T08:28:24.584Z</time></trkpt><trkpt lat="44.2818383" lon="8.2084733"><ele>756.8000000000001</ele><time>2026-04-06T08:28:26.584Z</time></trkpt><trkpt lat="44.2818317" lon="8.2083217"><ele>754.2</ele><time>2026-04-06T08:28:28.584Z</time></trkpt><trkpt lat="44.2818333" lon="8.2082267"><ele>751.6</ele><time>2026-04-06T08:28:30.584Z</time></trkpt><trkpt lat="44.2818917" lon="8.2080933"><ele>749.0</ele><time>2026-04-06T08:28:33.583Z</time></trkpt><trkpt lat="44.2819133" lon="8.20796"><ele>746.0</ele><time>2026-04-06T08:28:35.584Z</time></trkpt><trkpt lat="44.2819267" lon="8.2078367"><ele>743.0</ele><time>2026-04-06T08:28:37.584Z</time></trkpt><trkpt lat="44.281965" lon="8.2077067"><ele>740.0</ele><time>2026-04-06T08:28:39.584Z</time></trkpt><trkpt lat="44.282015" lon="8.2075567"><ele>737.0</ele><time>2026-04-06T08:28:41.584Z</time></trkpt><trkpt lat="44.2820833" lon="8.2074367"><ele>734.0</ele><time>2026-04-06T08:28:43.584Z</time></trkpt><trkpt lat="44.2821283" lon="8.20737"><ele>731.1666666666666</ele><time>2026-04-06T08:28:44.584Z</time></trkpt><trkpt lat="44.2821717" lon="8.2073"><ele>728.3333333333333</ele><time>2026-04-06T08:28:45.584Z</time></trkpt><trkpt lat="44.28221" lon="8.2071933"><ele>725.5</ele><time>2026-04-06T08:28:46.584Z</time></trkpt><trkpt lat="44.282235" lon="8.2070967"><ele>722.6666666666666</ele><time>2026-04-06T08:28:47.584Z</time></trkpt><trkpt lat="44.2822467" lon="8.2070083"><ele>719.8333333333334</ele><time>2026-04-06T08:28:48.584Z</time></trkpt><trkpt lat="44.2822583" lon="8.2068667"><ele>717.0</ele><time>2026-04-06T08:28:50.584Z</time></trkpt><trkpt lat="44.2822533" lon="8.2067383"><ele>717.0</ele><time>2026-04-06T08:28:52.584Z</time></trkpt><trkpt lat="44.2822517" lon="8.2066433"><ele>717.0</ele><time>2026-04-06T08:28:54.584Z</time></trkpt><trkpt lat="44.2822617" lon="8.2065333"><ele>717.0</ele><time>2026-04-06T08:28:56.584Z</time></trkpt><trkpt lat="44.2822667" lon="8.206415"><ele>717.0</ele><time>2026-04-06T08:28:58.584Z</time></trkpt><trkpt lat="44.282315" lon="8.2062817"><ele>717.0</ele><time>2026-04-06T08:29:00.584Z</time></trkpt><trkpt lat="44.2823783" lon="8.2061333"><ele>717.1666666666666</ele><time>2026-04-06T08:29:02.584Z</time></trkpt><trkpt lat="44.2824467" lon="8.2060167"><ele>717.3333333333334</ele><time>2026-04-06T08:29:04.583Z</time></trkpt><trkpt lat="44.2824617" lon="8.20592"><ele>717.5</ele><time>2026-04-06T08:29:07.584Z</time></trkpt><trkpt lat="44.2823917" lon="8.2060117"><ele>717.6666666666667</ele><time>2026-04-06T08:29:11.584Z</time></trkpt><trkpt lat="44.2823483" lon="8.2060917"><ele>717.8333333333334</ele><time>2026-04-06T08:29:13.583Z</time></trkpt><trkpt lat="44.2822933" lon="8.20617"><ele>718.0</ele><time>2026-04-06T08:29:15.584Z</time></trkpt><trkpt lat="44.2822367" lon="8.2062317"><ele>715.0</ele><time>2026-04-06T08:29:17.584Z</time></trkpt><trkpt lat="44.2821567" lon="8.20627"><ele>712.0</ele><time>2026-04-06T08:29:19.584Z</time></trkpt><trkpt lat="44.282075" lon="8.206245"><ele>709.0</ele><time>2026-04-06T08:29:22.584Z</time></trkpt><trkpt lat="44.28207" lon="8.206125"><ele>706.0</ele><time>2026-04-06T08:29:25.583Z</time></trkpt><trkpt lat="44.282085" lon="8.2060283"><ele>703.0</ele><time>2026-04-06T08:29:27.584Z</time></trkpt><trkpt lat="44.2820883" lon="8.2059083"><ele>700.0</ele><time>2026-04-06T08:29:29.584Z</time></trkpt><trkpt lat="44.2821183" lon="8.205745"><ele>698.0</ele><time>2026-04-06T08:29:31.584Z</time></trkpt><trkpt lat="44.2821317" lon="8.2056283"><ele>696.0</ele><time>2026-04-06T08:29:33.583Z</time></trkpt><trkpt lat="44.2821083" lon="8.2055283"><ele>694.0</ele><time>2026-04-06T08:29:35.584Z</time></trkpt><trkpt lat="44.282125" lon="8.2054233"><ele>692.0</ele><time>2026-04-06T08:29:38.584Z</time></trkpt><trkpt lat="44.2821917" lon="8.2054033"><ele>690.0</ele><time>2026-04-06T08:29:40.584Z</time></trkpt><trkpt lat="44.2822617" lon="8.2054667"><ele>688.0</ele><time>2026-04-06T08:29:42.583Z</time></trkpt><trkpt lat="44.2823317" lon="8.2054217"><ele>688.0</ele><time>2026-04-06T08:29:47.584Z</time></trkpt><trkpt lat="44.2823633" lon="8.2053333"><ele>688.0</ele><time>2026-04-06T08:29:50.584Z</time></trkpt><trkpt lat="44.2824633" lon="8.205365"><ele>688.0</ele><time>2026-04-06T08:29:53.584Z</time></trkpt><trkpt lat="44.2825617" lon="8.2054217"><ele>688.0</ele><time>2026-04-06T08:29:55.584Z</time></trkpt><trkpt lat="44.28266" lon="8.2054783"><ele>688.0</ele><time>2026-04-06T08:29:57.584Z</time></trkpt><trkpt lat="44.282725" lon="8.205475"><ele>688.0</ele><time>2026-04-06T08:29:59.584Z</time></trkpt><trkpt lat="44.2826783" lon="8.205335"><ele>688.0</ele><time>2026-04-06T08:30:03.584Z</time></trkpt><trkpt lat="44.282595" lon="8.2052233"><ele>688.0</ele><time>2026-04-06T08:30:05.584Z</time></trkpt><trkpt lat="44.282525" lon="8.2051267"><ele>688.0</ele><time>2026-04-06T08:30:07.583Z</time></trkpt><trkpt lat="44.2824383" lon="8.2050317"><ele>688.0</ele><time>2026-04-06T08:30:09.583Z</time></trkpt><trkpt lat="44.2823633" lon="8.2049667"><ele>688.0</ele><time>2026-04-06T08:30:11.583Z</time></trkpt><trkpt lat="44.2822833" lon="8.20489"><ele>688.0</ele><time>2026-04-06T08:30:13.583Z</time></trkpt><trkpt lat="44.2822067" lon="8.2048383"><ele>688.0</ele><time>2026-04-06T08:30:15.582Z</time></trkpt><trkpt lat="44.2821283" lon="8.2048267"><ele>688.0</ele><time>2026-04-06T08:30:17.583Z</time></trkpt><trkpt lat="44.2820283" lon="8.204855"><ele>688.0</ele><time>2026-04-06T08:30:19.583Z</time></trkpt><trkpt lat="44.2819267" lon="8.2048633"><ele>687.3333333333334</ele><time>2026-04-06T08:30:21.583Z</time></trkpt><trkpt lat="44.2818433" lon="8.2048933"><ele>686.6666666666667</ele><time>2026-04-06T08:30:23.583Z</time></trkpt><trkpt lat="44.2817717" lon="8.2049383"><ele>686.0</ele><time>2026-04-06T08:30:25.583Z</time></trkpt><trkpt lat="44.281695" lon="8.2049983"><ele>685.3333333333334</ele><time>2026-04-06T08:30:27.583Z</time></trkpt><trkpt lat="44.2816167" lon="8.2050717"><ele>684.6666666666666</ele><time>2026-04-06T08:30:29.583Z</time></trkpt><trkpt lat="44.28155" lon="8.2051467"><ele>684.0</ele><time>2026-04-06T08:30:31.583Z</time></trkpt><trkpt lat="44.2815033" lon="8.20524"><ele>684.0</ele><time>2026-04-06T08:30:33.583Z</time></trkpt><trkpt lat="44.2815" lon="8.20533"><ele>684.0</ele><time>2026-04-06T08:30:34.584Z</time></trkpt><trkpt lat="44.28144" lon="8.205435"><ele>684.0</ele><time>2026-04-06T08:30:36.583Z</time></trkpt><trkpt lat="44.281375" lon="8.2055333"><ele>684.0</ele><time>2026-04-06T08:30:38.583Z</time></trkpt><trkpt lat="44.2813183" lon="8.20565"><ele>684.0</ele><time>2026-04-06T08:30:40.583Z</time></trkpt><trkpt lat="44.2812533" lon="8.2056967"><ele>684.0</ele><time>2026-04-06T08:30:42.582Z</time></trkpt><trkpt lat="44.2812583" lon="8.20559"><ele>683.8333333333334</ele><time>2026-04-06T08:30:49.583Z</time></trkpt><trkpt lat="44.2813" lon="8.2054767"><ele>683.6666666666666</ele><time>2026-04-06T08:30:52.583Z</time></trkpt><trkpt lat="44.2813383" lon="8.2053283"><ele>683.5</ele><time>2026-04-06T08:30:54.583Z</time></trkpt><trkpt lat="44.28136" lon="8.2052183"><ele>683.3333333333333</ele><time>2026-04-06T08:30:56.583Z</time></trkpt><trkpt lat="44.281375" lon="8.2051117"><ele>683.1666666666666</ele><time>2026-04-06T08:30:58.582Z</time></trkpt><trkpt lat="44.2813883" lon="8.20502"><ele>683.0</ele><time>2026-04-06T08:31:01.583Z</time></trkpt><trkpt lat="44.2813467" lon="8.20511"><ele>683.0</ele><time>2026-04-06T08:31:04.584Z</time></trkpt><trkpt lat="44.2813033" lon="8.2052167"><ele>683.0</ele><time>2026-04-06T08:31:06.583Z</time></trkpt><trkpt lat="44.2812167" lon="8.2052983"><ele>683.0</ele><time>2026-04-06T08:31:08.582Z</time></trkpt><trkpt lat="44.2811867" lon="8.205205"><ele>683.0</ele><time>2026-04-06T08:31:12.583Z</time></trkpt><trkpt lat="44.2811867" lon="8.205095"><ele>683.0</ele><time>2026-04-06T08:31:14.584Z</time></trkpt><trkpt lat="44.2811983" lon="8.2049767"><ele>683.0</ele><time>2026-04-06T08:31:17.583Z</time></trkpt><trkpt lat="44.2812183" lon="8.204865"><ele>680.6666666666666</ele><time>2026-04-06T08:31:19.583Z</time></trkpt><trkpt lat="44.2812417" lon="8.20472"><ele>678.3333333333333</ele><time>2026-04-06T08:31:21.583Z</time></trkpt><trkpt lat="44.28125" lon="8.2046283"><ele>676.0</ele><time>2026-04-06T08:31:22.583Z</time></trkpt><trkpt lat="44.2812483" lon="8.2045383"><ele>673.6666666666666</ele><time>2026-04-06T08:31:23.582Z</time></trkpt><trkpt lat="44.2812417" lon="8.2044417"><ele>671.3333333333334</ele><time>2026-04-06T08:31:24.583Z</time></trkpt><trkpt lat="44.2812017" lon="8.2042983"><ele>669.0</ele><time>2026-04-06T08:31:26.583Z</time></trkpt><trkpt lat="44.2811417" lon="8.2042"><ele>669.0</ele><time>2026-04-06T08:31:28.583Z</time></trkpt><trkpt lat="44.2810817" lon="8.2041217"><ele>669.0</ele><time>2026-04-06T08:31:30.583Z</time></trkpt><trkpt lat="44.2809933" lon="8.2040233"><ele>669.0</ele><time>2026-04-06T08:31:32.583Z</time></trkpt><trkpt lat="44.280885" lon="8.2039283"><ele>669.0</ele><time>2026-04-06T08:31:34.584Z</time></trkpt><trkpt lat="44.2808333" lon="8.20386"><ele>669.0</ele><time>2026-04-06T08:31:36.583Z</time></trkpt><trkpt lat="44.28091" lon="8.20379"><ele>666.5</ele><time>2026-04-06T08:31:40.583Z</time></trkpt><trkpt lat="44.280965" lon="8.2037367"><ele>664.0</ele><time>2026-04-06T08:31:42.583Z</time></trkpt><trkpt lat="44.2809517" lon="8.2036033"><ele>661.5</ele><time>2026-04-06T08:31:45.583Z</time></trkpt><trkpt lat="44.280945" lon="8.2034967"><ele>659.0</ele><time>2026-04-06T08:31:47.583Z</time></trkpt><trkpt lat="44.2809217" lon="8.2033833"><ele>656.5</ele><time>2026-04-06T08:31:48.582Z</time></trkpt><trkpt lat="44.280895" lon="8.2032867"><ele>654.0</ele><time>2026-04-06T08:31:49.584Z</time></trkpt><trkpt lat="44.2808617" lon="8.2032117"><ele>654.2</ele><time>2026-04-06T08:31:50.582Z</time></trkpt><trkpt lat="44.2808" lon="8.2030867"><ele>654.4000000000001</ele><time>2026-04-06T08:31:52.584Z</time></trkpt><trkpt lat="44.2807617" lon="8.20296"><ele>654.6</ele><time>2026-04-06T08:31:54.582Z</time></trkpt><trkpt lat="44.28069" lon="8.2028433"><ele>654.8</ele><time>2026-04-06T08:31:56.582Z</time></trkpt><trkpt lat="44.2805883" lon="8.2028067"><ele>655.0</ele><time>2026-04-06T08:31:58.583Z</time></trkpt><trkpt lat="44.280495" lon="8.2028083"><ele>655.0</ele><time>2026-04-06T08:32:00.583Z</time></trkpt><trkpt lat="44.2804167" lon="8.2027917"><ele>655.0</ele><time>2026-04-06T08:32:02.583Z</time></trkpt><trkpt lat="44.2803433" lon="8.202775"><ele>655.0</ele><time>2026-04-06T08:32:04.583Z</time></trkpt><trkpt lat="44.2802367" lon="8.20273"><ele>655.0</ele><time>2026-04-06T08:32:33.583Z</time></trkpt><trkpt lat="44.2801867" lon="8.2026733"><ele>655.0</ele><time>2026-04-06T08:35:28.583Z</time></trkpt><trkpt lat="44.2801333" lon="8.2027333"><ele>655.0</ele><time>2026-04-06T08:35:31.583Z</time></trkpt><trkpt lat="44.2800783" lon="8.202805"><ele>655.0</ele><time>2026-04-06T08:35:34.582Z</time></trkpt><trkpt lat="44.2800283" lon="8.2028683"><ele>655.0</ele><time>2026-04-06T08:35:36.583Z</time></trkpt><trkpt lat="44.2799783" lon="8.20293"><ele>655.0</ele><time>2026-04-06T08:35:38.583Z</time></trkpt><trkpt lat="44.2799167" lon="8.2030233"><ele>655.0</ele><time>2026-04-06T08:35:41.583Z</time></trkpt><trkpt lat="44.2798483" lon="8.2031067"><ele>655.0</ele><time>2026-04-06T08:35:44.582Z</time></trkpt><trkpt lat="44.279785" lon="8.2031867"><ele>655.0</ele><time>2026-04-06T08:35:47.583Z</time></trkpt><trkpt lat="44.279715" lon="8.2032533"><ele>657.8333333333334</ele><time>2026-04-06T08:35:50.582Z</time></trkpt><trkpt lat="44.2796433" lon="8.20333"><ele>660.6666666666667</ele><time>2026-04-06T08:35:53.582Z</time></trkpt><trkpt lat="44.2795767" lon="8.2034017"><ele>663.5</ele><time>2026-04-06T08:35:56.582Z</time></trkpt><trkpt lat="44.27951" lon="8.2034367"><ele>666.3333333333334</ele><time>2026-04-06T08:35:59.583Z</time></trkpt><trkpt lat="44.27945" lon="8.2034767"><ele>669.1666666666666</ele><time>2026-04-06T08:36:01.583Z</time></trkpt><trkpt lat="44.279395" lon="8.2035383"><ele>672.0</ele><time>2026-04-06T08:36:03.583Z</time></trkpt><trkpt lat="44.2793533" lon="8.2036117"><ele>672.0</ele><time>2026-04-06T08:36:05.583Z</time></trkpt><trkpt lat="44.2793117" lon="8.2037233"><ele>672.0</ele><time>2026-04-06T08:36:08.583Z</time></trkpt><trkpt lat="44.2792867" lon="8.2038383"><ele>672.0</ele><time>2026-04-06T08:36:11.583Z</time></trkpt><trkpt lat="44.2792667" lon="8.2039533"><ele>672.0</ele><time>2026-04-06T08:36:14.583Z</time></trkpt><trkpt lat="44.2792383" lon="8.2040633"><ele>672.0</ele><time>2026-04-06T08:36:17.583Z</time></trkpt><trkpt lat="44.2792" lon="8.2041767"><ele>672.0</ele><time>2026-04-06T08:36:20.583Z</time></trkpt><trkpt lat="44.2791533" lon="8.204265"><ele>672.3333333333334</ele><time>2026-04-06T08:36:23.583Z</time></trkpt><trkpt lat="44.2791133" lon="8.2043717"><ele>672.6666666666666</ele><time>2026-04-06T08:36:26.583Z</time></trkpt><trkpt lat="44.27906" lon="8.204465"><ele>673.0</ele><time>2026-04-06T08:36:29.583Z</time></trkpt><trkpt lat="44.2790267" lon="8.2045467"><ele>673.3333333333333</ele><time>2026-04-06T08:36:31.583Z</time></trkpt><trkpt lat="44.2790033" lon="8.2046333"><ele>673.6666666666666</ele><time>2026-04-06T08:36:33.583Z</time></trkpt><trkpt lat="44.2790383" lon="8.20473"><ele>674.0</ele><time>2026-04-06T08:36:36.583Z</time></trkpt><trkpt lat="44.2791067" lon="8.2047433"><ele>674.0000000000001</ele><time>2026-04-06T08:36:40.583Z</time></trkpt><trkpt lat="44.279035" lon="8.2047267"><ele>674.0</ele><time>2026-04-06T08:37:08.583Z</time></trkpt><trkpt lat="44.2789633" lon="8.204725"><ele>674.0</ele><time>2026-04-06T08:37:10.584Z</time></trkpt><trkpt lat="44.2788983" lon="8.2047817"><ele>674.0</ele><time>2026-04-06T08:37:13.584Z</time></trkpt><trkpt lat="44.2788567" lon="8.204875"><ele>674.0</ele><time>2026-04-06T08:37:17.584Z</time></trkpt><trkpt lat="44.2788217" lon="8.2049517"><ele>674.0000000000001</ele><time>2026-04-06T08:37:20.583Z</time></trkpt><trkpt lat="44.278765" lon="8.2050183"><ele>674.0</ele><time>2026-04-06T08:37:23.584Z</time></trkpt><trkpt lat="44.2787033" lon="8.2050767"><ele>674.1428571428572</ele><time>2026-04-06T08:37:26.584Z</time></trkpt><trkpt lat="44.2786633" lon="8.20516"><ele>674.2857142857143</ele><time>2026-04-06T08:37:29.584Z</time></trkpt><trkpt lat="44.2786733" lon="8.2052517"><ele>674.4285714285714</ele><time>2026-04-06T08:37:32.584Z</time></trkpt><trkpt lat="44.278755" lon="8.20528"><ele>674.5714285714287</ele><time>2026-04-06T08:37:35.584Z</time></trkpt><trkpt lat="44.27882" lon="8.205275"><ele>674.7142857142858</ele><time>2026-04-06T08:37:37.584Z</time></trkpt><trkpt lat="44.2789067" lon="8.2052733"><ele>674.8571428571429</ele><time>2026-04-06T08:37:40.584Z</time></trkpt><trkpt lat="44.2789683" lon="8.2052917"><ele>675.0</ele><time>2026-04-06T08:37:42.584Z</time></trkpt><trkpt lat="44.2790367" lon="8.2053583"><ele>676.1666666666666</ele><time>2026-04-06T08:37:45.584Z</time></trkpt><trkpt lat="44.2790733" lon="8.2054483"><ele>677.3333333333334</ele><time>2026-04-06T08:37:48.584Z</time></trkpt><trkpt lat="44.2790833" lon="8.2055383"><ele>678.5</ele><time>2026-04-06T08:37:51.584Z</time></trkpt><trkpt lat="44.2790983" lon="8.20565"><ele>679.6666666666667</ele><time>2026-04-06T08:37:55.584Z</time></trkpt><trkpt lat="44.2791317" lon="8.2057283"><ele>680.8333333333334</ele><time>2026-04-06T08:38:00.584Z</time></trkpt><trkpt lat="44.279135" lon="8.2058583"><ele>682.0</ele><time>2026-04-06T08:38:27.584Z</time></trkpt><trkpt lat="44.2790867" lon="8.2059367"><ele>683.0</ele><time>2026-04-06T08:38:34.584Z</time></trkpt><trkpt lat="44.2790267" lon="8.20598"><ele>684.0</ele><time>2026-04-06T08:38:38.584Z</time></trkpt><trkpt lat="44.2789633" lon="8.2060017"><ele>685.0</ele><time>2026-04-06T08:38:42.584Z</time></trkpt><trkpt lat="44.27891" lon="8.206055"><ele>686.0</ele><time>2026-04-06T08:38:46.584Z</time></trkpt><trkpt lat="44.2788733" lon="8.2061433"><ele>687.0</ele><time>2026-04-06T08:38:50.584Z</time></trkpt><trkpt lat="44.27893" lon="8.206205"><ele>688.0</ele><time>2026-04-06T08:38:55.584Z</time></trkpt><trkpt lat="44.2789967" lon="8.2061983"><ele>689.0</ele><time>2026-04-06T08:38:58.583Z</time></trkpt><trkpt lat="44.2790683" lon="8.206185"><ele>690.4285714285714</ele><time>2026-04-06T08:39:01.584Z</time></trkpt><trkpt lat="44.279135" lon="8.2061683"><ele>691.8571428571429</ele><time>2026-04-06T08:39:04.584Z</time></trkpt><trkpt lat="44.2792183" lon="8.20615"><ele>693.2857142857142</ele><time>2026-04-06T08:39:08.584Z</time></trkpt><trkpt lat="44.2792817" lon="8.206145"><ele>694.7142857142858</ele><time>2026-04-06T08:39:11.583Z</time></trkpt><trkpt lat="44.27935" lon="8.206175"><ele>696.1428571428572</ele><time>2026-04-06T08:39:14.584Z</time></trkpt><trkpt lat="44.2794233" lon="8.2062283"><ele>697.5714285714286</ele><time>2026-04-06T08:39:18.584Z</time></trkpt><trkpt lat="44.2794867" lon="8.206275"><ele>699.0</ele><time>2026-04-06T08:39:21.584Z</time></trkpt><trkpt lat="44.27955" lon="8.2063133"><ele>699.0</ele><time>2026-04-06T08:39:24.584Z</time></trkpt><trkpt lat="44.279595" lon="8.2063983"><ele>699.0</ele><time>2026-04-06T08:39:28.584Z</time></trkpt><trkpt lat="44.2795583" lon="8.2064883"><ele>699.0</ele><time>2026-04-06T08:39:32.584Z</time></trkpt><trkpt lat="44.2794833" lon="8.2065417"><ele>699.0</ele><time>2026-04-06T08:39:36.584Z</time></trkpt><trkpt lat="44.27942" lon="8.2065717"><ele>699.0</ele><time>2026-04-06T08:39:39.584Z</time></trkpt><trkpt lat="44.27936" lon="8.2066383"><ele>699.0</ele><time>2026-04-06T08:39:43.584Z</time></trkpt><trkpt lat="44.2792967" lon="8.2067033"><ele>701.1666666666666</ele><time>2026-04-06T08:39:47.584Z</time></trkpt><trkpt lat="44.27924" lon="8.20676"><ele>703.3333333333334</ele><time>2026-04-06T08:39:51.583Z</time></trkpt><trkpt lat="44.2791533" lon="8.2067617"><ele>705.5</ele><time>2026-04-06T08:40:15.584Z</time></trkpt><trkpt lat="44.27908" lon="8.2068083"><ele>707.6666666666667</ele><time>2026-04-06T08:40:21.584Z</time></trkpt><trkpt lat="44.2790167" lon="8.206875"><ele>709.8333333333334</ele><time>2026-04-06T08:40:24.583Z</time></trkpt><trkpt lat="44.2789667" lon="8.20694"><ele>712.0</ele><time>2026-04-06T08:40:27.583Z</time></trkpt><trkpt lat="44.2789117" lon="8.206995"><ele>711.9999999999999</ele><time>2026-04-06T08:40:30.584Z</time></trkpt><trkpt lat="44.2788533" lon="8.2070633"><ele>712.0</ele><time>2026-04-06T08:40:33.584Z</time></trkpt><trkpt lat="44.2787933" lon="8.2071417"><ele>712.0</ele><time>2026-04-06T08:40:36.584Z</time></trkpt><trkpt lat="44.2787383" lon="8.2072"><ele>712.0</ele><time>2026-04-06T08:40:39.584Z</time></trkpt><trkpt lat="44.278675" lon="8.207255"><ele>712.0</ele><time>2026-04-06T08:40:43.584Z</time></trkpt><trkpt lat="44.27862" lon="8.207305"><ele>711.9999999999999</ele><time>2026-04-06T08:40:47.584Z</time></trkpt><trkpt lat="44.2785517" lon="8.2073683"><ele>712.0</ele><time>2026-04-06T08:40:51.584Z</time></trkpt><trkpt lat="44.2784933" lon="8.2074117"><ele>715.5</ele><time>2026-04-06T08:40:54.584Z</time></trkpt><trkpt lat="44.2784317" lon="8.20749"><ele>719.0</ele><time>2026-04-06T08:40:58.584Z</time></trkpt><trkpt lat="44.2783817" lon="8.2075633"><ele>722.5</ele><time>2026-04-06T08:41:02.583Z</time></trkpt><trkpt lat="44.2783217" lon="8.2076367"><ele>726.0</ele><time>2026-04-06T08:41:06.584Z</time></trkpt><trkpt lat="44.2782883" lon="8.2077333"><ele>729.5</ele><time>2026-04-06T08:41:09.584Z</time></trkpt><trkpt lat="44.2782633" lon="8.2078317"><ele>733.0</ele><time>2026-04-06T08:41:12.584Z</time></trkpt><trkpt lat="44.2782383" lon="8.20793"><ele>732.9999999999999</ele><time>2026-04-06T08:41:15.583Z</time></trkpt><trkpt lat="44.278195" lon="8.208"><ele>733.0</ele><time>2026-04-06T08:41:18.584Z</time></trkpt><trkpt lat="44.278145" lon="8.2080683"><ele>733.0</ele><time>2026-04-06T08:41:21.583Z</time></trkpt><trkpt lat="44.2780867" lon="8.208115"><ele>733.0</ele><time>2026-04-06T08:41:24.582Z</time></trkpt><trkpt lat="44.2780267" lon="8.2081767"><ele>733.0</ele><time>2026-04-06T08:41:27.583Z</time></trkpt><trkpt lat="44.2779817" lon="8.2082467"><ele>732.9999999999999</ele><time>2026-04-06T08:41:30.584Z</time></trkpt><trkpt lat="44.27791" lon="8.20829"><ele>733.0</ele><time>2026-04-06T08:41:34.583Z</time></trkpt><trkpt lat="44.2778433" lon="8.208285"><ele>736.0</ele><time>2026-04-06T08:41:37.583Z</time></trkpt><trkpt lat="44.2777683" lon="8.2082967"><ele>739.0</ele><time>2026-04-06T08:41:41.583Z</time></trkpt><trkpt lat="44.2777433" lon="8.2083833"><ele>742.0</ele><time>2026-04-06T08:41:45.583Z</time></trkpt><trkpt lat="44.2777967" lon="8.20847"><ele>745.0</ele><time>2026-04-06T08:41:49.583Z</time></trkpt><trkpt lat="44.2778583" lon="8.2085483"><ele>748.0</ele><time>2026-04-06T08:41:52.582Z</time></trkpt><trkpt lat="44.2779267" lon="8.208635"><ele>751.0</ele><time>2026-04-06T08:41:55.583Z</time></trkpt><trkpt lat="44.2779883" lon="8.2087167"><ele>751.0</ele><time>2026-04-06T08:41:58.583Z</time></trkpt><trkpt lat="44.278045" lon="8.2087917"><ele>751.0</ele><time>2026-04-06T08:42:01.583Z</time></trkpt><trkpt lat="44.2781067" lon="8.20887"><ele>751.0</ele><time>2026-04-06T08:42:04.584Z</time></trkpt><trkpt lat="44.2781567" lon="8.208955"><ele>751.0</ele><time>2026-04-06T08:42:07.582Z</time></trkpt><trkpt lat="44.2782167" lon="8.2090533"><ele>751.0</ele><time>2026-04-06T08:42:10.583Z</time></trkpt><trkpt lat="44.2782733" lon="8.2091317"><ele>751.0</ele><time>2026-04-06T08:42:13.583Z</time></trkpt><trkpt lat="44.27833" lon="8.2092083"><ele>752.8571428571429</ele><time>2026-04-06T08:42:16.582Z</time></trkpt><trkpt lat="44.27838" lon="8.2092917"><ele>754.7142857142858</ele><time>2026-04-06T08:42:19.583Z</time></trkpt><trkpt lat="44.2784117" lon="8.2093817"><ele>756.5714285714287</ele><time>2026-04-06T08:42:22.583Z</time></trkpt><trkpt lat="44.2784317" lon="8.2094783"><ele>758.4285714285714</ele><time>2026-04-06T08:42:25.583Z</time></trkpt><trkpt lat="44.2784583" lon="8.2095683"><ele>760.2857142857142</ele><time>2026-04-06T08:42:28.583Z</time></trkpt><trkpt lat="44.2785117" lon="8.2096417"><ele>762.1428571428572</ele><time>2026-04-06T08:42:31.583Z</time></trkpt><trkpt lat="44.27857" lon="8.2097067"><ele>764.0</ele><time>2026-04-06T08:42:34.583Z</time></trkpt><trkpt lat="44.2786183" lon="8.20977"><ele>764.0</ele><time>2026-04-06T08:42:37.583Z</time></trkpt><trkpt lat="44.2785483" lon="8.209735"><ele>764.0</ele><time>2026-04-06T08:42:44.582Z</time></trkpt><trkpt lat="44.2784867" lon="8.2096717"><ele>764.0</ele><time>2026-04-06T08:42:47.582Z</time></trkpt><trkpt lat="44.2784233" lon="8.2096233"><ele>764.0</ele><time>2026-04-06T08:42:50.583Z</time></trkpt><trkpt lat="44.2783617" lon="8.20957"><ele>764.0</ele><time>2026-04-06T08:42:53.584Z</time></trkpt><trkpt lat="44.2782983" lon="8.2095017"><ele>764.0</ele><time>2026-04-06T08:42:57.583Z</time></trkpt><trkpt lat="44.2782267" lon="8.2094417"><ele>764.0</ele><time>2026-04-06T08:43:01.582Z</time></trkpt><trkpt lat="44.27816" lon="8.2093867"><ele>764.0</ele><time>2026-04-06T08:43:04.583Z</time></trkpt><trkpt lat="44.2780967" lon="8.2093433"><ele>764.0</ele><time>2026-04-06T08:43:07.583Z</time></trkpt><trkpt lat="44.2780283" lon="8.2093117"><ele>764.0</ele><time>2026-04-06T08:43:10.583Z</time></trkpt><trkpt lat="44.2779583" lon="8.209285"><ele>764.0</ele><time>2026-04-06T08:43:13.583Z</time></trkpt><trkpt lat="44.2778933" lon="8.209265"><ele>764.0</ele><time>2026-04-06T08:43:16.583Z</time></trkpt><trkpt lat="44.2778283" lon="8.2092567"><ele>764.0</ele><time>2026-04-06T08:43:19.583Z</time></trkpt><trkpt lat="44.2777567" lon="8.2092517"><ele>765.7142857142858</ele><time>2026-04-06T08:43:22.583Z</time></trkpt><trkpt lat="44.2776717" lon="8.2092333"><ele>767.4285714285713</ele><time>2026-04-06T08:43:25.583Z</time></trkpt><trkpt lat="44.2776033" lon="8.20922"><ele>769.1428571428571</ele><time>2026-04-06T08:43:27.583Z</time></trkpt><trkpt lat="44.27753" lon="8.2092267"><ele>770.8571428571429</ele><time>2026-04-06T08:43:29.583Z</time></trkpt><trkpt lat="44.2774617" lon="8.2092383"><ele>772.5714285714287</ele><time>2026-04-06T08:43:31.582Z</time></trkpt><trkpt lat="44.277395" lon="8.20926"><ele>774.2857142857142</ele><time>2026-04-06T08:43:33.583Z</time></trkpt><trkpt lat="44.277325" lon="8.2092733"><ele>776.0</ele><time>2026-04-06T08:43:35.582Z</time></trkpt><trkpt lat="44.2772617" lon="8.2092967"><ele>776.6666666666667</ele><time>2026-04-06T08:43:37.583Z</time></trkpt><trkpt lat="44.2771967" lon="8.2093233"><ele>777.3333333333334</ele><time>2026-04-06T08:43:39.583Z</time></trkpt><trkpt lat="44.2771317" lon="8.20935"><ele>778.0</ele><time>2026-04-06T08:43:41.582Z</time></trkpt><trkpt lat="44.2770717" lon="8.2093817"><ele>778.6666666666667</ele><time>2026-04-06T08:43:43.583Z</time></trkpt><trkpt lat="44.276975" lon="8.2094267"><ele>779.3333333333334</ele><time>2026-04-06T08:43:47.583Z</time></trkpt><trkpt lat="44.2768983" lon="8.2094667"><ele>780.0</ele><time>2026-04-06T08:43:50.583Z</time></trkpt><trkpt lat="44.2768267" lon="8.2095017"><ele>780.0</ele><time>2026-04-06T08:43:53.583Z</time></trkpt><trkpt lat="44.276745" lon="8.20955"><ele>780.0</ele><time>2026-04-06T08:43:56.583Z</time></trkpt><trkpt lat="44.2766733" lon="8.209595"><ele>780.0</ele><time>2026-04-06T08:43:59.583Z</time></trkpt><trkpt lat="44.2766117" lon="8.2096383"><ele>780.0</ele><time>2026-04-06T08:44:02.582Z</time></trkpt><trkpt lat="44.276545" lon="8.2096767"><ele>780.0</ele><time>2026-04-06T08:44:05.583Z</time></trkpt><trkpt lat="44.2764783" lon="8.20972"><ele>780.0</ele><time>2026-04-06T08:44:08.583Z</time></trkpt><trkpt lat="44.2764" lon="8.2097833"><ele>779.5</ele><time>2026-04-06T08:44:11.583Z</time></trkpt><trkpt lat="44.27633" lon="8.2098467"><ele>779.0</ele><time>2026-04-06T08:44:14.583Z</time></trkpt><trkpt lat="44.276275" lon="8.2099283"><ele>778.5</ele><time>2026-04-06T08:44:17.583Z</time></trkpt><trkpt lat="44.2762367" lon="8.21003"><ele>778.0</ele><time>2026-04-06T08:44:20.583Z</time></trkpt><trkpt lat="44.2762083" lon="8.2101467"><ele>777.5</ele><time>2026-04-06T08:44:23.583Z</time></trkpt><trkpt lat="44.2761917" lon="8.210265"><ele>777.0</ele><time>2026-04-06T08:44:26.583Z</time></trkpt><trkpt lat="44.27619" lon="8.2103733"><ele>777.0</ele><time>2026-04-06T08:44:28.583Z</time></trkpt><trkpt lat="44.2761833" lon="8.21049"><ele>777.0</ele><time>2026-04-06T08:44:30.583Z</time></trkpt><trkpt lat="44.276175" lon="8.21061"><ele>777.0</ele><time>2026-04-06T08:44:32.583Z</time></trkpt><trkpt lat="44.2761733" lon="8.2107433"><ele>777.0</ele><time>2026-04-06T08:44:34.583Z</time></trkpt><trkpt lat="44.2761717" lon="8.21087"><ele>777.0</ele><time>2026-04-06T08:44:36.583Z</time></trkpt><trkpt lat="44.2761633" lon="8.21099"><ele>777.0</ele><time>2026-04-06T08:44:38.582Z</time></trkpt><trkpt lat="44.27615" lon="8.2111133"><ele>778.2</ele><time>2026-04-06T08:44:40.583Z</time></trkpt><trkpt lat="44.27613" lon="8.2112383"><ele>779.4000000000001</ele><time>2026-04-06T08:44:42.583Z</time></trkpt><trkpt lat="44.276105" lon="8.2113667"><ele>780.5999999999999</ele><time>2026-04-06T08:44:44.583Z</time></trkpt><trkpt lat="44.2760667" lon="8.21149"><ele>781.8</ele><time>2026-04-06T08:44:46.583Z</time></trkpt><trkpt lat="44.2760367" lon="8.2116117"><ele>783.0</ele><time>2026-04-06T08:44:48.583Z</time></trkpt><trkpt lat="44.2759933" lon="8.2117083"><ele>782.0</ele><time>2026-04-06T08:44:50.583Z</time></trkpt><trkpt lat="44.2759217" lon="8.2117767"><ele>781.0</ele><time>2026-04-06T08:44:52.583Z</time></trkpt><trkpt lat="44.27586" lon="8.2118567"><ele>780.0</ele><time>2026-04-06T08:44:54.583Z</time></trkpt><trkpt lat="44.275785" lon="8.211925"><ele>779.0</ele><time>2026-04-06T08:44:56.583Z</time></trkpt><trkpt lat="44.275705" lon="8.2119817"><ele>778.0</ele><time>2026-04-06T08:44:58.583Z</time></trkpt><trkpt lat="44.2756317" lon="8.2120417"><ele>777.0</ele><time>2026-04-06T08:45:00.582Z</time></trkpt><trkpt lat="44.2755567" lon="8.2121033"><ele>777.0</ele><time>2026-04-06T08:45:02.583Z</time></trkpt><trkpt lat="44.275465" lon="8.2121583"><ele>777.0</ele><time>2026-04-06T08:45:04.583Z</time></trkpt><trkpt lat="44.27535" lon="8.2121817"><ele>777.0</ele><time>2026-04-06T08:45:06.583Z</time></trkpt><trkpt lat="44.2752783" lon="8.2121817"><ele>777.0</ele><time>2026-04-06T08:45:07.583Z</time></trkpt><trkpt lat="44.2751733" lon="8.212195"><ele>777.0</ele><time>2026-04-06T08:45:09.582Z</time></trkpt><trkpt lat="44.27507" lon="8.2122017"><ele>777.0</ele><time>2026-04-06T08:45:11.582Z</time></trkpt><trkpt lat="44.2749717" lon="8.2122117"><ele>777.0</ele><time>2026-04-06T08:45:13.583Z</time></trkpt><trkpt lat="44.274865" lon="8.2122267"><ele>777.0</ele><time>2026-04-06T08:45:15.583Z</time></trkpt><trkpt lat="44.2747517" lon="8.2122433"><ele>777.0</ele><time>2026-04-06T08:45:17.583Z</time></trkpt><trkpt lat="44.27465" lon="8.212265"><ele>777.0</ele><time>2026-04-06T08:45:19.583Z</time></trkpt><trkpt lat="44.27456" lon="8.21228"><ele>777.3333333333334</ele><time>2026-04-06T08:45:21.583Z</time></trkpt><trkpt lat="44.27448" lon="8.212295"><ele>777.6666666666667</ele><time>2026-04-06T08:45:23.583Z</time></trkpt><trkpt lat="44.2743983" lon="8.2123017"><ele>778.0</ele><time>2026-04-06T08:45:25.583Z</time></trkpt><trkpt lat="44.2743083" lon="8.212295"><ele>778.3333333333334</ele><time>2026-04-06T08:45:27.583Z</time></trkpt><trkpt lat="44.2742233" lon="8.2122967"><ele>778.6666666666667</ele><time>2026-04-06T08:45:29.583Z</time></trkpt><trkpt lat="44.2741533" lon="8.2123017"><ele>779.0</ele><time>2026-04-06T08:45:31.583Z</time></trkpt><trkpt lat="44.2740833" lon="8.2123083"><ele>779.0000000000001</ele><time>2026-04-06T08:45:33.583Z</time></trkpt><trkpt lat="44.2740117" lon="8.2123133"><ele>779.0</ele><time>2026-04-06T08:45:35.583Z</time></trkpt><trkpt lat="44.273945" lon="8.2123167"><ele>779.0</ele><time>2026-04-06T08:45:37.583Z</time></trkpt><trkpt lat="44.2738667" lon="8.2123083"><ele>779.0</ele><time>2026-04-06T08:45:40.583Z</time></trkpt><trkpt lat="44.2738067" lon="8.2123383"><ele>779.0</ele><time>2026-04-06T08:45:43.583Z</time></trkpt><trkpt lat="44.2738467" lon="8.21242"><ele>779.0000000000001</ele><time>2026-04-06T08:45:47.583Z</time></trkpt><trkpt lat="44.27391" lon="8.21248"><ele>779.0</ele><time>2026-04-06T08:45:50.583Z</time></trkpt><trkpt lat="44.2739767" lon="8.2125367"><ele>781.8333333333334</ele><time>2026-04-06T08:45:53.583Z</time></trkpt><trkpt lat="44.2740467" lon="8.2125833"><ele>784.6666666666667</ele><time>2026-04-06T08:45:56.583Z</time></trkpt><trkpt lat="44.27411" lon="8.2126367"><ele>787.5</ele><time>2026-04-06T08:45:59.583Z</time></trkpt><trkpt lat="44.2741667" lon="8.212685"><ele>790.3333333333333</ele><time>2026-04-06T08:46:02.583Z</time></trkpt><trkpt lat="44.274225" lon="8.2127317"><ele>793.1666666666666</ele><time>2026-04-06T08:46:05.583Z</time></trkpt><trkpt lat="44.2742983" lon="8.21277"><ele>796.0</ele><time>2026-04-06T08:46:08.583Z</time></trkpt><trkpt lat="44.27438" lon="8.212825"><ele>795.9999999999999</ele><time>2026-04-06T08:46:11.583Z</time></trkpt><trkpt lat="44.27446" lon="8.2128483"><ele>796.0</ele><time>2026-04-06T08:46:14.583Z</time></trkpt><trkpt lat="44.27454" lon="8.2128717"><ele>796.0</ele><time>2026-04-06T08:46:17.583Z</time></trkpt><trkpt lat="44.2746133" lon="8.2129"><ele>796.0</ele><time>2026-04-06T08:46:20.583Z</time></trkpt><trkpt lat="44.2746817" lon="8.212925"><ele>796.0</ele><time>2026-04-06T08:46:23.583Z</time></trkpt><trkpt lat="44.274745" lon="8.2129483"><ele>795.9999999999999</ele><time>2026-04-06T08:46:26.583Z</time></trkpt><trkpt lat="44.2748133" lon="8.2129683"><ele>796.0</ele><time>2026-04-06T08:46:29.583Z</time></trkpt><trkpt lat="44.2748917" lon="8.21298"><ele>796.8571428571428</ele><time>2026-04-06T08:46:32.583Z</time></trkpt><trkpt lat="44.2749633" lon="8.2130083"><ele>797.7142857142857</ele><time>2026-04-06T08:46:35.583Z</time></trkpt><trkpt lat="44.2750333" lon="8.213045"><ele>798.5714285714286</ele><time>2026-04-06T08:46:38.583Z</time></trkpt><trkpt lat="44.275095" lon="8.2130817"><ele>799.4285714285713</ele><time>2026-04-06T08:46:41.583Z</time></trkpt><trkpt lat="44.2751633" lon="8.2131217"><ele>800.2857142857143</ele><time>2026-04-06T08:46:44.583Z</time></trkpt><trkpt lat="44.2752283" lon="8.2131717"><ele>801.1428571428571</ele><time>2026-04-06T08:46:47.583Z</time></trkpt><trkpt lat="44.2752933" lon="8.21321"><ele>802.0</ele><time>2026-04-06T08:46:50.582Z</time></trkpt><trkpt lat="44.275365" lon="8.213235"><ele>803.8571428571429</ele><time>2026-04-06T08:46:53.583Z</time></trkpt><trkpt lat="44.275435" lon="8.2132483"><ele>805.7142857142858</ele><time>2026-04-06T08:46:56.582Z</time></trkpt><trkpt lat="44.2755017" lon="8.2132817"><ele>807.5714285714286</ele><time>2026-04-06T08:46:59.582Z</time></trkpt><trkpt lat="44.27557" lon="8.2133233"><ele>809.4285714285714</ele><time>2026-04-06T08:47:02.582Z</time></trkpt><trkpt lat="44.27563" lon="8.2133733"><ele>811.2857142857142</ele><time>2026-04-06T08:47:05.583Z</time></trkpt><trkpt lat="44.2757033" lon="8.2134233"><ele>813.1428571428571</ele><time>2026-04-06T08:47:09.583Z</time></trkpt><trkpt lat="44.27578" lon="8.21344"><ele>815.0</ele><time>2026-04-06T08:47:13.583Z</time></trkpt><trkpt lat="44.2758483" lon="8.2134317"><ele>817.5000000000001</ele><time>2026-04-06T08:47:16.583Z</time></trkpt><trkpt lat="44.2759217" lon="8.2134117"><ele>820.0</ele><time>2026-04-06T08:47:19.583Z</time></trkpt><trkpt lat="44.276005" lon="8.2134017"><ele>822.5</ele><time>2026-04-06T08:47:23.583Z</time></trkpt><trkpt lat="44.276085" lon="8.2133833"><ele>825.0</ele><time>2026-04-06T08:47:26.583Z</time></trkpt><trkpt lat="44.276155" lon="8.2133583"><ele>827.5000000000001</ele><time>2026-04-06T08:47:29.582Z</time></trkpt><trkpt lat="44.2762217" lon="8.2133233"><ele>830.0</ele><time>2026-04-06T08:47:32.584Z</time></trkpt><trkpt lat="44.27629" lon="8.213275"><ele>830.0</ele><time>2026-04-06T08:47:35.583Z</time></trkpt><trkpt lat="44.276355" lon="8.2132317"><ele>830.0</ele><time>2026-04-06T08:47:38.583Z</time></trkpt><trkpt lat="44.2764233" lon="8.2131567"><ele>830.0</ele><time>2026-04-06T08:47:42.584Z</time></trkpt><trkpt lat="44.2764817" lon="8.2130933"><ele>830.0</ele><time>2026-04-06T08:47:44.583Z</time></trkpt><trkpt lat="44.2765383" lon="8.21305"><ele>830.0</ele><time>2026-04-06T08:47:47.584Z</time></trkpt><trkpt lat="44.276595" lon="8.2130117"><ele>830.0</ele><time>2026-04-06T08:47:49.583Z</time></trkpt><trkpt lat="44.2766567" lon="8.2129883"><ele>830.0</ele><time>2026-04-06T08:47:51.584Z</time></trkpt><trkpt lat="44.2767167" lon="8.2129567"><ele>830.8333333333334</ele><time>2026-04-06T08:47:54.583Z</time></trkpt><trkpt lat="44.276785" lon="8.21291"><ele>831.6666666666667</ele><time>2026-04-06T08:47:57.584Z</time></trkpt><trkpt lat="44.276865" lon="8.212855"><ele>832.5</ele><time>2026-04-06T08:48:00.584Z</time></trkpt><trkpt lat="44.2769483" lon="8.2128167"><ele>833.3333333333333</ele><time>2026-04-06T08:48:03.583Z</time></trkpt><trkpt lat="44.27702" lon="8.2127883"><ele>834.1666666666666</ele><time>2026-04-06T08:48:06.584Z</time></trkpt><trkpt lat="44.277075" lon="8.212745"><ele>835.0</ele><time>2026-04-06T08:48:09.584Z</time></trkpt><trkpt lat="44.2771467" lon="8.2127017"><ele>834.9999999999999</ele><time>2026-04-06T08:48:12.584Z</time></trkpt><trkpt lat="44.2772133" lon="8.21266"><ele>835.0</ele><time>2026-04-06T08:48:16.584Z</time></trkpt><trkpt lat="44.27727" lon="8.21262"><ele>835.0</ele><time>2026-04-06T08:48:20.584Z</time></trkpt><trkpt lat="44.27733" lon="8.2125867"><ele>835.0</ele><time>2026-04-06T08:48:24.584Z</time></trkpt><trkpt lat="44.2774283" lon="8.2125067"><ele>834.9999999999999</ele><time>2026-04-06T08:52:03.584Z</time></trkpt><trkpt lat="44.2774967" lon="8.2124483"><ele>835.0</ele><time>2026-04-06T08:52:07.584Z</time></trkpt><trkpt lat="44.277585" lon="8.2124317"><ele>836.9999999999999</ele><time>2026-04-06T08:52:10.584Z</time></trkpt><trkpt lat="44.2776583" lon="8.2124517"><ele>839.0</ele><time>2026-04-06T08:52:12.584Z</time></trkpt><trkpt lat="44.27773" lon="8.212475"><ele>841.0</ele><time>2026-04-06T08:52:14.583Z</time></trkpt><trkpt lat="44.2778217" lon="8.2125133"><ele>843.0</ele><time>2026-04-06T08:52:16.584Z</time></trkpt><trkpt lat="44.2779117" lon="8.2125533"><ele>844.9999999999999</ele><time>2026-04-06T08:52:18.584Z</time></trkpt><trkpt lat="44.2780067" lon="8.2125967"><ele>847.0</ele><time>2026-04-06T08:52:20.584Z</time></trkpt><trkpt lat="44.2781217" lon="8.2126533"><ele>847.0</ele><time>2026-04-06T08:52:24.584Z</time></trkpt><trkpt lat="44.278185" lon="8.2126717"><ele>847.0</ele><time>2026-04-06T08:52:26.584Z</time></trkpt><trkpt lat="44.2782533" lon="8.21268"><ele>847.0</ele><time>2026-04-06T08:52:28.584Z</time></trkpt><trkpt lat="44.2783367" lon="8.212685"><ele>847.0</ele><time>2026-04-06T08:52:30.583Z</time></trkpt><trkpt lat="44.2786267" lon="8.21262"><ele>846.9999999999999</ele><time>2026-04-06T08:52:34.583Z</time></trkpt><trkpt lat="44.27871" lon="8.2126033"><ele>847.0</ele><time>2026-04-06T08:52:35.584Z</time></trkpt><trkpt lat="44.2788" lon="8.2125867"><ele>847.0</ele><time>2026-04-06T08:52:36.583Z</time></trkpt><trkpt lat="44.2788867" lon="8.2125667"><ele>847.0</ele><time>2026-04-06T08:52:37.582Z</time></trkpt><trkpt lat="44.2789683" lon="8.21255"><ele>846.9999999999999</ele><time>2026-04-06T08:52:38.583Z</time></trkpt><trkpt lat="44.279045" lon="8.2125417"><ele>847.0</ele><time>2026-04-06T08:52:39.583Z</time></trkpt><trkpt lat="44.279115" lon="8.2125317"><ele>844.2</ele><time>2026-04-06T08:52:40.583Z</time></trkpt><trkpt lat="44.2792217" lon="8.2125367"><ele>841.4000000000001</ele><time>2026-04-06T08:52:42.582Z</time></trkpt><trkpt lat="44.279305" lon="8.2125767"><ele>838.5999999999999</ele><time>2026-04-06T08:52:44.583Z</time></trkpt><trkpt lat="44.279345" lon="8.2126867"><ele>835.8</ele><time>2026-04-06T08:52:46.583Z</time></trkpt><trkpt lat="44.279365" lon="8.2128383"><ele>833.0</ele><time>2026-04-06T08:52:48.582Z</time></trkpt><trkpt lat="44.27939" lon="8.212925"><ele>833.0</ele><time>2026-04-06T08:52:50.583Z</time></trkpt><trkpt lat="44.279435" lon="8.213055"><ele>833.0</ele><time>2026-04-06T08:53:31.582Z</time></trkpt><trkpt lat="44.2795267" lon="8.21314"><ele>833.0</ele><time>2026-04-06T08:53:34.583Z</time></trkpt><trkpt lat="44.279575" lon="8.2132017"><ele>833.0</ele><time>2026-04-06T08:53:35.583Z</time></trkpt><trkpt lat="44.279665" lon="8.2133217"><ele>833.0</ele><time>2026-04-06T08:53:37.583Z</time></trkpt><trkpt lat="44.2797367" lon="8.213375"><ele>830.0</ele><time>2026-04-06T08:53:39.583Z</time></trkpt><trkpt lat="44.2798233" lon="8.2134117"><ele>827.0</ele><time>2026-04-06T08:53:41.583Z</time></trkpt><trkpt lat="44.2799133" lon="8.2134883"><ele>824.0</ele><time>2026-04-06T08:53:43.583Z</time></trkpt><trkpt lat="44.2800117" lon="8.2135433"><ele>821.0</ele><time>2026-04-06T08:53:45.583Z</time></trkpt><trkpt lat="44.2800917" lon="8.213575"><ele>818.0</ele><time>2026-04-06T08:53:47.583Z</time></trkpt><trkpt lat="44.2802033" lon="8.2136067"><ele>818.0</ele><time>2026-04-06T08:53:49.582Z</time></trkpt><trkpt lat="44.2802983" lon="8.2136433"><ele>818.0</ele><time>2026-04-06T08:53:51.583Z</time></trkpt><trkpt lat="44.280395" lon="8.2136617"><ele>818.0</ele><time>2026-04-06T08:53:53.583Z</time></trkpt><trkpt lat="44.2805017" lon="8.2136383"><ele>818.0</ele><time>2026-04-06T08:53:55.583Z</time></trkpt><trkpt lat="44.28058" lon="8.2136367"><ele>818.0</ele><time>2026-04-06T08:53:57.583Z</time></trkpt><trkpt lat="44.28051" lon="8.2135817"><ele>818.0000000000001</ele><time>2026-04-06T08:54:05.583Z</time></trkpt><trkpt lat="44.2804317" lon="8.213555"><ele>818.0</ele><time>2026-04-06T08:54:07.583Z</time></trkpt><trkpt lat="44.2803717" lon="8.2135183"><ele>818.0</ele><time>2026-04-06T08:54:09.582Z</time></trkpt><trkpt lat="44.2803" lon="8.2134483"><ele>818.0</ele><time>2026-04-06T08:54:12.583Z</time></trkpt><trkpt lat="44.2802533" lon="8.2133833"><ele>818.0000000000001</ele><time>2026-04-06T08:54:14.583Z</time></trkpt><trkpt lat="44.2802033" lon="8.2133183"><ele>818.0</ele><time>2026-04-06T08:54:16.583Z</time></trkpt><trkpt lat="44.2801517" lon="8.2132267"><ele>817.0000000000001</ele><time>2026-04-06T08:54:18.583Z</time></trkpt><trkpt lat="44.280095" lon="8.2131333"><ele>816.0</ele><time>2026-04-06T08:54:20.583Z</time></trkpt><trkpt lat="44.2800417" lon="8.21306"><ele>815.0</ele><time>2026-04-06T08:54:22.583Z</time></trkpt><trkpt lat="44.28004" lon="8.21295"><ele>814.0</ele><time>2026-04-06T08:54:25.582Z</time></trkpt><trkpt lat="44.2801067" lon="8.2128583"><ele>813.0000000000001</ele><time>2026-04-06T08:54:28.583Z</time></trkpt><trkpt lat="44.2801567" lon="8.2127867"><ele>812.0</ele><time>2026-04-06T08:54:30.583Z</time></trkpt><trkpt lat="44.2802217" lon="8.2127217"><ele>812.0</ele><time>2026-04-06T08:54:32.582Z</time></trkpt><trkpt lat="44.280325" lon="8.2125733"><ele>812.0</ele><time>2026-04-06T08:54:34.583Z</time></trkpt><trkpt lat="44.2803933" lon="8.2124533"><ele>812.0</ele><time>2026-04-06T08:54:36.583Z</time></trkpt><trkpt lat="44.28048" lon="8.2123133"><ele>812.0</ele><time>2026-04-06T08:54:38.583Z</time></trkpt><trkpt lat="44.280555" lon="8.2121883"><ele>810.2857142857143</ele><time>2026-04-06T08:54:40.583Z</time></trkpt><trkpt lat="44.2805883" lon="8.2121117"><ele>808.5714285714286</ele><time>2026-04-06T08:54:41.583Z</time></trkpt><trkpt lat="44.280615" lon="8.21202"><ele>806.8571428571429</ele><time>2026-04-06T08:54:42.583Z</time></trkpt><trkpt lat="44.2806333" lon="8.211935"><ele>805.1428571428571</ele><time>2026-04-06T08:54:43.583Z</time></trkpt><trkpt lat="44.2806517" lon="8.211805"><ele>803.4285714285714</ele><time>2026-04-06T08:54:45.583Z</time></trkpt><trkpt lat="44.2806917" lon="8.21173"><ele>801.7142857142858</ele><time>2026-04-06T08:54:48.583Z</time></trkpt><trkpt lat="44.280695" lon="8.2118317"><ele>800.0</ele><time>2026-04-06T08:54:51.583Z</time></trkpt><trkpt lat="44.28071" lon="8.211925"><ele>796.6</ele><time>2026-04-06T08:54:53.583Z</time></trkpt><trkpt lat="44.2808033" lon="8.2119417"><ele>793.2</ele><time>2026-04-06T08:55:00.583Z</time></trkpt><trkpt lat="44.280885" lon="8.2118417"><ele>789.8</ele><time>2026-04-06T08:55:02.583Z</time></trkpt><trkpt lat="44.2809717" lon="8.2117417"><ele>786.4</ele><time>2026-04-06T08:55:04.582Z</time></trkpt><trkpt lat="44.2810267" lon="8.2116583"><ele>783.0</ele><time>2026-04-06T08:55:05.583Z</time></trkpt><trkpt lat="44.281075" lon="8.2115883"><ele>783.0</ele><time>2026-04-06T08:55:06.582Z</time></trkpt><trkpt lat="44.2811217" lon="8.2115283"><ele>783.0</ele><time>2026-04-06T08:55:07.583Z</time></trkpt><trkpt lat="44.2812083" lon="8.2114233"><ele>783.0</ele><time>2026-04-06T08:55:09.582Z</time></trkpt><trkpt lat="44.2812483" lon="8.211355"><ele>783.0</ele><time>2026-04-06T08:55:10.583Z</time></trkpt><trkpt lat="44.2813133" lon="8.2112317"><ele>783.0</ele><time>2026-04-06T08:55:12.583Z</time></trkpt><trkpt lat="44.2814033" lon="8.2111333"><ele>780.4</ele><time>2026-04-06T08:55:14.583Z</time></trkpt><trkpt lat="44.28148" lon="8.2111033"><ele>777.8</ele><time>2026-04-06T08:55:16.583Z</time></trkpt><trkpt lat="44.2815683" lon="8.21106"><ele>775.2</ele><time>2026-04-06T08:55:18.582Z</time></trkpt><trkpt lat="44.2816517" lon="8.2109867"><ele>772.6</ele><time>2026-04-06T08:55:20.583Z</time></trkpt><trkpt lat="44.2817167" lon="8.2108683"><ele>770.0</ele><time>2026-04-06T08:55:22.583Z</time></trkpt><trkpt lat="44.2817733" lon="8.210765"><ele>770.0000000000001</ele><time>2026-04-06T08:55:24.583Z</time></trkpt><trkpt lat="44.281845" lon="8.2106467"><ele>770.0</ele><time>2026-04-06T08:55:26.583Z</time></trkpt><trkpt lat="44.28189" lon="8.21055"><ele>770.0</ele><time>2026-04-06T08:55:27.583Z</time></trkpt><trkpt lat="44.2819217" lon="8.2104733"><ele>770.0</ele><time>2026-04-06T08:55:28.582Z</time></trkpt><trkpt lat="44.2819883" lon="8.2103683"><ele>770.0000000000001</ele><time>2026-04-06T08:55:30.583Z</time></trkpt><trkpt lat="44.2820417" lon="8.210285"><ele>770.0</ele><time>2026-04-06T08:55:32.583Z</time></trkpt><trkpt lat="44.2820667" lon="8.2101583"><ele>770.0</ele><time>2026-04-06T08:55:34.582Z</time></trkpt><trkpt lat="44.2821217" lon="8.2099967"><ele>770.0</ele><time>2026-04-06T08:55:36.583Z</time></trkpt><trkpt lat="44.2821467" lon="8.2099083"><ele>770.0</ele><time>2026-04-06T08:55:37.583Z</time></trkpt><trkpt lat="44.28217" lon="8.2098067"><ele>770.0</ele><time>2026-04-06T08:55:38.583Z</time></trkpt><trkpt lat="44.2821883" lon="8.209705"><ele>770.0</ele><time>2026-04-06T08:55:39.583Z</time></trkpt><trkpt lat="44.2821683" lon="8.2095417"><ele>768.4</ele><time>2026-04-06T08:55:41.583Z</time></trkpt><trkpt lat="44.28212" lon="8.2094267"><ele>766.8</ele><time>2026-04-06T08:55:43.583Z</time></trkpt><trkpt lat="44.282085" lon="8.2093067"><ele>765.2</ele><time>2026-04-06T08:55:45.582Z</time></trkpt><trkpt lat="44.28208" lon="8.2092167"><ele>763.6</ele><time>2026-04-06T08:55:46.583Z</time></trkpt><trkpt lat="44.2820833" lon="8.2090517"><ele>762.0</ele><time>2026-04-06T08:55:48.583Z</time></trkpt><trkpt lat="44.2821" lon="8.2088867"><ele>759.4000000000001</ele><time>2026-04-06T08:55:50.583Z</time></trkpt><trkpt lat="44.2821083" lon="8.2087983"><ele>756.8000000000001</ele><time>2026-04-06T08:55:51.583Z</time></trkpt><trkpt lat="44.282125" lon="8.2086267"><ele>754.2</ele><time>2026-04-06T08:55:53.583Z</time></trkpt><trkpt lat="44.2821333" lon="8.208475"><ele>751.6</ele><time>2026-04-06T08:55:55.583Z</time></trkpt><trkpt lat="44.282125" lon="8.2083033"><ele>749.0</ele><time>2026-04-06T08:55:57.583Z</time></trkpt><trkpt lat="44.2821" lon="8.2081433"><ele>746.0</ele><time>2026-04-06T08:55:59.583Z</time></trkpt><trkpt lat="44.28206" lon="8.2080083"><ele>743.0</ele><time>2026-04-06T08:56:01.583Z</time></trkpt><trkpt lat="44.2820617" lon="8.20786"><ele>740.0</ele><time>2026-04-06T08:56:03.583Z</time></trkpt><trkpt lat="44.2820967" lon="8.2076983"><ele>737.0</ele><time>2026-04-06T08:56:05.583Z</time></trkpt><trkpt lat="44.2821283" lon="8.2076167"><ele>734.0</ele><time>2026-04-06T08:56:06.583Z</time></trkpt><trkpt lat="44.2821933" lon="8.2074717"><ele>734.0</ele><time>2026-04-06T08:56:08.583Z</time></trkpt><trkpt lat="44.28223" lon="8.2073967"><ele>734.0</ele><time>2026-04-06T08:56:09.583Z</time></trkpt><trkpt lat="44.282275" lon="8.2072333"><ele>734.0</ele><time>2026-04-06T08:56:11.582Z</time></trkpt><trkpt lat="44.2822883" lon="8.2071417"><ele>734.0</ele><time>2026-04-06T08:56:12.583Z</time></trkpt><trkpt lat="44.2823017" lon="8.2070533"><ele>734.0</ele><time>2026-04-06T08:56:13.583Z</time></trkpt><trkpt lat="44.2823" lon="8.2068933"><ele>734.0</ele><time>2026-04-06T08:56:15.583Z</time></trkpt><trkpt lat="44.282275" lon="8.2067517"><ele>733.0</ele><time>2026-04-06T08:56:17.583Z</time></trkpt><trkpt lat="44.2822833" lon="8.2066283"><ele>732.0</ele><time>2026-04-06T08:56:19.582Z</time></trkpt><trkpt lat="44.2823267" lon="8.2064983"><ele>731.0</ele><time>2026-04-06T08:56:21.582Z</time></trkpt><trkpt lat="44.28236" lon="8.2063767"><ele>730.0</ele><time>2026-04-06T08:56:23.583Z</time></trkpt><trkpt lat="44.2823933" lon="8.20626"><ele>729.0</ele><time>2026-04-06T08:56:25.583Z</time></trkpt><trkpt lat="44.2824283" lon="8.2061217"><ele>727.1666666666666</ele><time>2026-04-06T08:56:27.583Z</time></trkpt><trkpt lat="44.2824967" lon="8.2060167"><ele>725.3333333333334</ele><time>2026-04-06T08:56:29.583Z</time></trkpt><trkpt lat="44.282565" lon="8.2059633"><ele>723.5</ele><time>2026-04-06T08:56:31.582Z</time></trkpt><trkpt lat="44.28263" lon="8.2059683"><ele>721.6666666666667</ele><time>2026-04-06T08:56:33.582Z</time></trkpt><trkpt lat="44.2826867" lon="8.2060267"><ele>719.8333333333334</ele><time>2026-04-06T08:56:36.583Z</time></trkpt><trkpt lat="44.2827183" lon="8.20614"><ele>718.0</ele><time>2026-04-06T08:56:38.583Z</time></trkpt><trkpt lat="44.2827683" lon="8.2062933"><ele>718.0</ele><time>2026-04-06T08:56:40.582Z</time></trkpt><trkpt lat="44.2828433" lon="8.2064433"><ele>718.0</ele><time>2026-04-06T08:56:42.583Z</time></trkpt><trkpt lat="44.2828767" lon="8.2065317"><ele>718.0</ele><time>2026-04-06T08:56:43.583Z</time></trkpt><trkpt lat="44.2829017" lon="8.2066183"><ele>718.0</ele><time>2026-04-06T08:56:44.582Z</time></trkpt><trkpt lat="44.28292" lon="8.2067083"><ele>718.0</ele><time>2026-04-06T08:56:45.582Z</time></trkpt><trkpt lat="44.2829383" lon="8.2068483"><ele>718.0</ele><time>2026-04-06T08:56:47.583Z</time></trkpt><trkpt lat="44.2829517" lon="8.206985"><ele>719.1666666666667</ele><time>2026-04-06T08:56:49.582Z</time></trkpt><trkpt lat="44.28297" lon="8.2071583"><ele>720.3333333333334</ele><time>2026-04-06T08:56:51.583Z</time></trkpt><trkpt lat="44.2829883" lon="8.2072433"><ele>721.5</ele><time>2026-04-06T08:56:52.582Z</time></trkpt><trkpt lat="44.28299" lon="8.2073317"><ele>722.6666666666666</ele><time>2026-04-06T08:56:53.583Z</time></trkpt><trkpt lat="44.2829817" lon="8.207425"><ele>723.8333333333333</ele><time>2026-04-06T08:56:54.583Z</time></trkpt><trkpt lat="44.2829683" lon="8.207515"><ele>725.0</ele><time>2026-04-06T08:56:55.583Z</time></trkpt><trkpt lat="44.2829267" lon="8.2076583"><ele>725.0</ele><time>2026-04-06T08:56:57.583Z</time></trkpt><trkpt lat="44.2828883" lon="8.20781"><ele>725.0</ele><time>2026-04-06T08:56:59.583Z</time></trkpt><trkpt lat="44.2828683" lon="8.2079183"><ele>725.0</ele><time>2026-04-06T08:57:00.583Z</time></trkpt><trkpt lat="44.2828667" lon="8.2080183"><ele>725.0</ele><time>2026-04-06T08:57:01.582Z</time></trkpt><trkpt lat="44.282855" lon="8.208125"><ele>725.0</ele><time>2026-04-06T08:57:02.583Z</time></trkpt><trkpt lat="44.28284" lon="8.208235"><ele>725.0</ele><time>2026-04-06T08:57:03.583Z</time></trkpt><trkpt lat="44.2828317" lon="8.208335"><ele>725.0</ele><time>2026-04-06T08:57:04.583Z</time></trkpt><trkpt lat="44.282825" lon="8.2084917"><ele>725.0</ele><time>2026-04-06T08:57:06.583Z</time></trkpt><trkpt lat="44.2828567" lon="8.2086033"><ele>725.0</ele><time>2026-04-06T08:57:09.583Z</time></trkpt><trkpt lat="44.2829" lon="8.208735"><ele>725.0</ele><time>2026-04-06T08:57:12.583Z</time></trkpt><trkpt lat="44.2829367" lon="8.208825"><ele>725.0</ele><time>2026-04-06T08:57:14.583Z</time></trkpt><trkpt lat="44.2828583" lon="8.208845"><ele>725.0</ele><time>2026-04-06T08:57:56.582Z</time></trkpt><trkpt lat="44.2827983" lon="8.2087683"><ele>725.0</ele><time>2026-04-06T08:57:59.583Z</time></trkpt><trkpt lat="44.2827633" lon="8.2086783"><ele>725.0</ele><time>2026-04-06T08:58:02.583Z</time></trkpt><trkpt lat="44.2827383" lon="8.2085817"><ele>725.0</ele><time>2026-04-06T08:58:05.583Z</time></trkpt><trkpt lat="44.2827367" lon="8.2084683"><ele>725.0</ele><time>2026-04-06T08:58:09.583Z</time></trkpt><trkpt lat="44.282765" lon="8.2083733"><ele>725.0</ele><time>2026-04-06T08:58:12.583Z</time></trkpt><trkpt lat="44.2828017" lon="8.2082867"><ele>725.0</ele><time>2026-04-06T08:58:16.583Z</time></trkpt><trkpt lat="44.28287" lon="8.208185"><ele>725.0</ele><time>2026-04-06T08:59:39.584Z</time></trkpt><trkpt lat="44.2828817" lon="8.208085"><ele>725.0</ele><time>2026-04-06T08:59:44.584Z</time></trkpt><trkpt lat="44.2829283" lon="8.207965"><ele>725.0</ele><time>2026-04-06T08:59:47.583Z</time></trkpt><trkpt lat="44.2829667" lon="8.2078917"><ele>725.0</ele><time>2026-04-06T08:59:49.584Z</time></trkpt><trkpt lat="44.2830083" lon="8.2078133"><ele>725.0</ele><time>2026-04-06T08:59:51.584Z</time></trkpt><trkpt lat="44.2830583" lon="8.2076983"><ele>718.8</ele><time>2026-04-06T08:59:53.583Z</time></trkpt><trkpt lat="44.2831" lon="8.2075867"><ele>712.6</ele><time>2026-04-06T08:59:55.584Z</time></trkpt><trkpt lat="44.2831333" lon="8.2074567"><ele>706.4000000000001</ele><time>2026-04-06T08:59:57.584Z</time></trkpt><trkpt lat="44.2831717" lon="8.2073067"><ele>700.2</ele><time>2026-04-06T08:59:59.584Z</time></trkpt><trkpt lat="44.283225" lon="8.2071767"><ele>694.0</ele><time>2026-04-06T09:00:01.584Z</time></trkpt><trkpt lat="44.28327" lon="8.2070267"><ele>694.0</ele><time>2026-04-06T09:00:03.584Z</time></trkpt><trkpt lat="44.2832983" lon="8.2068617"><ele>694.0</ele><time>2026-04-06T09:00:05.584Z</time></trkpt><trkpt lat="44.2833183" lon="8.20669"><ele>694.0</ele><time>2026-04-06T09:00:07.583Z</time></trkpt><trkpt lat="44.283315" lon="8.2065267"><ele>694.0</ele><time>2026-04-06T09:00:09.584Z</time></trkpt><trkpt lat="44.28331" lon="8.2063517"><ele>693.3333333333334</ele><time>2026-04-06T09:00:11.584Z</time></trkpt><trkpt lat="44.2833017" lon="8.2062617"><ele>692.6666666666667</ele><time>2026-04-06T09:00:12.584Z</time></trkpt><trkpt lat="44.2833" lon="8.206165"><ele>692.0</ele><time>2026-04-06T09:00:13.584Z</time></trkpt><trkpt lat="44.2832767" lon="8.20599"><ele>691.3333333333334</ele><time>2026-04-06T09:00:15.584Z</time></trkpt><trkpt lat="44.2832617" lon="8.2059017"><ele>690.6666666666666</ele><time>2026-04-06T09:00:16.584Z</time></trkpt><trkpt lat="44.2832583" lon="8.2058033"><ele>690.0</ele><time>2026-04-06T09:00:17.583Z</time></trkpt><trkpt lat="44.28323" lon="8.205635"><ele>687.4</ele><time>2026-04-06T09:00:19.584Z</time></trkpt><trkpt lat="44.2832367" lon="8.2054717"><ele>684.8</ele><time>2026-04-06T09:00:21.584Z</time></trkpt><trkpt lat="44.283285" lon="8.2053767"><ele>682.2</ele><time>2026-04-06T09:00:23.584Z</time></trkpt><trkpt lat="44.283335" lon="8.2053117"><ele>679.6</ele><time>2026-04-06T09:00:28.584Z</time></trkpt><trkpt lat="44.2834183" lon="8.2052317"><ele>677.0</ele><time>2026-04-06T09:01:25.584Z</time></trkpt><trkpt lat="44.283365" lon="8.2051283"><ele>676.9999999999999</ele><time>2026-04-06T09:02:45.584Z</time></trkpt><trkpt lat="44.2832967" lon="8.205145"><ele>677.0</ele><time>2026-04-06T09:02:55.584Z</time></trkpt><trkpt lat="44.283225" lon="8.205155"><ele>677.0</ele><time>2026-04-06T09:03:01.584Z</time></trkpt><trkpt lat="44.2831583" lon="8.2051517"><ele>677.0</ele><time>2026-04-06T09:03:04.584Z</time></trkpt><trkpt lat="44.28309" lon="8.205135"><ele>677.0</ele><time>2026-04-06T09:03:07.584Z</time></trkpt><trkpt lat="44.2830117" lon="8.205145"><ele>676.9999999999999</ele><time>2026-04-06T09:03:11.584Z</time></trkpt><trkpt lat="44.2829483" lon="8.20517"><ele>677.0</ele><time>2026-04-06T09:03:15.584Z</time></trkpt><trkpt lat="44.28287" lon="8.2052133"><ele>678.8333333333333</ele><time>2026-04-06T09:03:20.583Z</time></trkpt><trkpt lat="44.282795" lon="8.2052033"><ele>680.6666666666666</ele><time>2026-04-06T09:03:24.584Z</time></trkpt><trkpt lat="44.2827167" lon="8.2051683"><ele>682.5</ele><time>2026-04-06T09:03:28.583Z</time></trkpt><trkpt lat="44.2826367" lon="8.205155"><ele>684.3333333333334</ele><time>2026-04-06T09:03:33.583Z</time></trkpt><trkpt lat="44.282565" lon="8.20518"><ele>686.1666666666667</ele><time>2026-04-06T09:03:38.583Z</time></trkpt><trkpt lat="44.28248" lon="8.20522"><ele>688.0</ele><time>2026-04-06T09:03:44.582Z</time></trkpt><trkpt lat="44.2823917" lon="8.2052683"><ele>688.0</ele><time>2026-04-06T09:03:50.583Z</time></trkpt><trkpt lat="44.2823183" lon="8.20528"><ele>688.0</ele><time>2026-04-06T09:03:54.583Z</time></trkpt><trkpt lat="44.282245" lon="8.2053217"><ele>688.0</ele><time>2026-04-06T09:03:58.583Z</time></trkpt><trkpt lat="44.2822067" lon="8.2054033"><ele>688.0</ele><time>2026-04-06T09:04:01.582Z</time></trkpt><trkpt lat="44.2821633" lon="8.2054917"><ele>688.0</ele><time>2026-04-06T09:04:04.583Z</time></trkpt><trkpt lat="44.28213" lon="8.2055833"><ele>688.0</ele><time>2026-04-06T09:04:07.583Z</time></trkpt><trkpt lat="44.2821017" lon="8.20569"><ele>690.0</ele><time>2026-04-06T09:04:09.583Z</time></trkpt><trkpt lat="44.282075" lon="8.205795"><ele>692.0</ele><time>2026-04-06T09:04:11.583Z</time></trkpt><trkpt lat="44.2820417" lon="8.2058967"><ele>694.0</ele><time>2026-04-06T09:04:13.583Z</time></trkpt><trkpt lat="44.28201" lon="8.205985"><ele>696.0</ele><time>2026-04-06T09:04:15.583Z</time></trkpt><trkpt lat="44.2819567" lon="8.2061217"><ele>698.0</ele><time>2026-04-06T09:04:18.583Z</time></trkpt><trkpt lat="44.281915" lon="8.20621"><ele>700.0</ele><time>2026-04-06T09:04:20.583Z</time></trkpt><trkpt lat="44.2818633" lon="8.2063133"><ele>700.0</ele><time>2026-04-06T09:04:22.583Z</time></trkpt><trkpt lat="44.28182" lon="8.2064117"><ele>700.0</ele><time>2026-04-06T09:04:24.583Z</time></trkpt><trkpt lat="44.2817867" lon="8.206515"><ele>700.0</ele><time>2026-04-06T09:04:26.583Z</time></trkpt><trkpt lat="44.2817433" lon="8.2066"><ele>700.0</ele><time>2026-04-06T09:04:28.583Z</time></trkpt><trkpt lat="44.2816983" lon="8.2066667"><ele>700.0</ele><time>2026-04-06T09:04:30.582Z</time></trkpt><trkpt lat="44.28165" lon="8.206735"><ele>700.0</ele><time>2026-04-06T09:04:32.582Z</time></trkpt><trkpt lat="44.2815983" lon="8.2068183"><ele>699.6666666666667</ele><time>2026-04-06T09:04:34.583Z</time></trkpt><trkpt lat="44.2815433" lon="8.20693"><ele>699.3333333333334</ele><time>2026-04-06T09:04:37.583Z</time></trkpt><trkpt lat="44.281485" lon="8.20704"><ele>699.0</ele><time>2026-04-06T09:04:40.583Z</time></trkpt><trkpt lat="44.2814333" lon="8.2071017"><ele>698.6666666666666</ele><time>2026-04-06T09:04:42.583Z</time></trkpt><trkpt lat="44.2813617" lon="8.207155"><ele>698.3333333333333</ele><time>2026-04-06T09:04:44.583Z</time></trkpt><trkpt lat="44.2812783" lon="8.2071683"><ele>698.0</ele><time>2026-04-06T09:04:46.583Z</time></trkpt><trkpt lat="44.2812183" lon="8.207205"><ele>697.9999999999999</ele><time>2026-04-06T09:04:48.583Z</time></trkpt><trkpt lat="44.281155" lon="8.207255"><ele>698.0</ele><time>2026-04-06T09:04:50.583Z</time></trkpt><trkpt lat="44.281095" lon="8.2073183"><ele>698.0</ele><time>2026-04-06T09:04:52.583Z</time></trkpt><trkpt lat="44.2810433" lon="8.2073817"><ele>698.0</ele><time>2026-04-06T09:04:54.583Z</time></trkpt><trkpt lat="44.280995" lon="8.2074383"><ele>698.0</ele><time>2026-04-06T09:04:56.583Z</time></trkpt><trkpt lat="44.2809283" lon="8.2075117"><ele>697.9999999999999</ele><time>2026-04-06T09:04:59.583Z</time></trkpt><trkpt lat="44.2808733" lon="8.2075867"><ele>698.0</ele><time>2026-04-06T09:05:02.582Z</time></trkpt><trkpt lat="44.2808433" lon="8.2076983"><ele>700.8333333333333</ele><time>2026-04-06T09:05:05.583Z</time></trkpt><trkpt lat="44.2808433" lon="8.207805"><ele>703.6666666666666</ele><time>2026-04-06T09:05:08.583Z</time></trkpt><trkpt lat="44.28083" lon="8.2079333"><ele>706.5</ele><time>2026-04-06T09:05:11.583Z</time></trkpt><trkpt lat="44.280785" lon="8.2080383"><ele>709.3333333333334</ele><time>2026-04-06T09:05:14.583Z</time></trkpt><trkpt lat="44.28074" lon="8.2081"><ele>712.1666666666667</ele><time>2026-04-06T09:05:17.582Z</time></trkpt><trkpt lat="44.2806933" lon="8.208175"><ele>715.0</ele><time>2026-04-06T09:05:20.583Z</time></trkpt><trkpt lat="44.2806233" lon="8.2082483"><ele>715.3333333333334</ele><time>2026-04-06T09:05:23.583Z</time></trkpt><trkpt lat="44.2805417" lon="8.20831"><ele>715.6666666666667</ele><time>2026-04-06T09:05:26.583Z</time></trkpt><trkpt lat="44.28047" lon="8.2083533"><ele>716.0</ele><time>2026-04-06T09:05:28.583Z</time></trkpt><trkpt lat="44.28041" lon="8.2084067"><ele>716.3333333333334</ele><time>2026-04-06T09:05:30.583Z</time></trkpt><trkpt lat="44.28035" lon="8.2084583"><ele>716.6666666666666</ele><time>2026-04-06T09:05:32.583Z</time></trkpt><trkpt lat="44.2802867" lon="8.2084983"><ele>717.0</ele><time>2026-04-06T09:05:34.583Z</time></trkpt><trkpt lat="44.2802333" lon="8.20857"><ele>717.0</ele><time>2026-04-06T09:05:37.582Z</time></trkpt><trkpt lat="44.2802033" lon="8.208675"><ele>717.0</ele><time>2026-04-06T09:05:40.583Z</time></trkpt><trkpt lat="44.2801833" lon="8.208765"><ele>717.0</ele><time>2026-04-06T09:05:42.583Z</time></trkpt><trkpt lat="44.2801667" lon="8.2088867"><ele>717.0</ele><time>2026-04-06T09:05:44.582Z</time></trkpt><trkpt lat="44.28014" lon="8.2090067"><ele>717.0</ele><time>2026-04-06T09:05:46.582Z</time></trkpt><trkpt lat="44.2801067" lon="8.2091233"><ele>717.0</ele><time>2026-04-06T09:05:48.582Z</time></trkpt><trkpt lat="44.2800567" lon="8.2092367"><ele>719.6</ele><time>2026-04-06T09:05:50.582Z</time></trkpt><trkpt lat="44.280005" lon="8.2093467"><ele>722.2</ele><time>2026-04-06T09:05:52.583Z</time></trkpt><trkpt lat="44.279955" lon="8.2094833"><ele>724.8</ele><time>2026-04-06T09:05:54.583Z</time></trkpt><trkpt lat="44.2799017" lon="8.2096"><ele>727.4</ele><time>2026-04-06T09:05:56.583Z</time></trkpt><trkpt lat="44.2798267" lon="8.2096417"><ele>730.0</ele><time>2026-04-06T09:05:59.583Z</time></trkpt><trkpt lat="44.2797233" lon="8.2096083"><ele>731.6666666666667</ele><time>2026-04-06T09:06:01.582Z</time></trkpt><trkpt lat="44.2796717" lon="8.2095217"><ele>733.3333333333334</ele><time>2026-04-06T09:06:03.583Z</time></trkpt><trkpt lat="44.279625" lon="8.2094267"><ele>735.0</ele><time>2026-04-06T09:06:05.583Z</time></trkpt><trkpt lat="44.279585" lon="8.2093483"><ele>736.6666666666666</ele><time>2026-04-06T09:06:07.583Z</time></trkpt><trkpt lat="44.27954" lon="8.2092767"><ele>738.3333333333333</ele><time>2026-04-06T09:06:09.583Z</time></trkpt><trkpt lat="44.2794933" lon="8.2091833"><ele>740.0</ele><time>2026-04-06T09:06:11.583Z</time></trkpt><trkpt lat="44.27945" lon="8.2091067"><ele>740.0</ele><time>2026-04-06T09:06:13.583Z</time></trkpt><trkpt lat="44.2794133" lon="8.209035"><ele>740.0</ele><time>2026-04-06T09:06:15.583Z</time></trkpt><trkpt lat="44.2793433" lon="8.2089583"><ele>740.0</ele><time>2026-04-06T09:06:18.583Z</time></trkpt><trkpt lat="44.2792583" lon="8.20892"><ele>740.0</ele><time>2026-04-06T09:06:21.583Z</time></trkpt><trkpt lat="44.2791667" lon="8.2088883"><ele>740.0</ele><time>2026-04-06T09:06:24.583Z</time></trkpt><trkpt lat="44.2791017" lon="8.2088833"><ele>740.0</ele><time>2026-04-06T09:06:26.583Z</time></trkpt><trkpt lat="44.2790367" lon="8.20888"><ele>741.1666666666666</ele><time>2026-04-06T09:06:28.583Z</time></trkpt><trkpt lat="44.2789433" lon="8.2088783"><ele>742.3333333333333</ele><time>2026-04-06T09:06:31.583Z</time></trkpt><trkpt lat="44.27886" lon="8.2088483"><ele>743.5</ele><time>2026-04-06T09:06:34.583Z</time></trkpt><trkpt lat="44.278775" lon="8.2088133"><ele>744.6666666666666</ele><time>2026-04-06T09:06:37.582Z</time></trkpt><trkpt lat="44.278705" lon="8.2087533"><ele>745.8333333333334</ele><time>2026-04-06T09:06:40.583Z</time></trkpt><trkpt lat="44.2786317" lon="8.2086833"><ele>747.0</ele><time>2026-04-06T09:06:43.583Z</time></trkpt><trkpt lat="44.278555" lon="8.2086333"><ele>747.0</ele><time>2026-04-06T09:06:46.582Z</time></trkpt><trkpt lat="44.2784833" lon="8.2085917"><ele>747.0</ele><time>2026-04-06T09:06:49.583Z</time></trkpt><trkpt lat="44.2784133" lon="8.2085483"><ele>747.0</ele><time>2026-04-06T09:06:52.583Z</time></trkpt><trkpt lat="44.2783433" lon="8.2084933"><ele>747.0</ele><time>2026-04-06T09:06:56.583Z</time></trkpt><trkpt lat="44.2782717" lon="8.2084467"><ele>747.0</ele><time>2026-04-06T09:06:59.583Z</time></trkpt><trkpt lat="44.2782017" lon="8.2084083"><ele>747.0</ele><time>2026-04-06T09:07:02.583Z</time></trkpt><trkpt lat="44.278135" lon="8.2083617"><ele>747.5714285714286</ele><time>2026-04-06T09:07:06.583Z</time></trkpt><trkpt lat="44.2780683" lon="8.2083517"><ele>748.1428571428571</ele><time>2026-04-06T09:07:09.583Z</time></trkpt><trkpt lat="44.2779867" lon="8.20835"><ele>748.7142857142858</ele><time>2026-04-06T09:07:12.583Z</time></trkpt><trkpt lat="44.2779183" lon="8.2083367"><ele>749.2857142857142</ele><time>2026-04-06T09:07:15.583Z</time></trkpt><trkpt lat="44.277845" lon="8.2083483"><ele>749.8571428571429</ele><time>2026-04-06T09:07:18.582Z</time></trkpt><trkpt lat="44.277855" lon="8.2084533"><ele>750.4285714285714</ele><time>2026-04-06T09:07:26.583Z</time></trkpt><trkpt lat="44.2779" lon="8.2085267"><ele>751.0</ele><time>2026-04-06T09:07:29.583Z</time></trkpt><trkpt lat="44.27796" lon="8.2085667"><ele>751.0</ele><time>2026-04-06T09:07:32.583Z</time></trkpt><trkpt lat="44.2780033" lon="8.2086333"><ele>751.0</ele><time>2026-04-06T09:07:35.582Z</time></trkpt><trkpt lat="44.2780483" lon="8.20872"><ele>751.0</ele><time>2026-04-06T09:07:38.583Z</time></trkpt><trkpt lat="44.27811" lon="8.2088"><ele>751.0</ele><time>2026-04-06T09:07:41.583Z</time></trkpt><trkpt lat="44.27816" lon="8.2088967"><ele>751.0</ele><time>2026-04-06T09:07:44.583Z</time></trkpt><trkpt lat="44.278215" lon="8.208995"><ele>751.0</ele><time>2026-04-06T09:07:47.583Z</time></trkpt><trkpt lat="44.2782517" lon="8.2090667"><ele>753.1666666666667</ele><time>2026-04-06T09:07:49.583Z</time></trkpt><trkpt lat="44.2783" lon="8.2091667"><ele>755.3333333333334</ele><time>2026-04-06T09:07:52.583Z</time></trkpt><trkpt lat="44.2783483" lon="8.2092767"><ele>757.5</ele><time>2026-04-06T09:07:55.583Z</time></trkpt><trkpt lat="44.2783833" lon="8.2093933"><ele>759.6666666666666</ele><time>2026-04-06T09:07:58.583Z</time></trkpt><trkpt lat="44.278415" lon="8.2094883"><ele>761.8333333333333</ele><time>2026-04-06T09:08:00.583Z</time></trkpt><trkpt lat="44.2784717" lon="8.2095533"><ele>764.0</ele><time>2026-04-06T09:08:03.582Z</time></trkpt><trkpt lat="44.278525" lon="8.2096183"><ele>764.0</ele><time>2026-04-06T09:08:06.583Z</time></trkpt><trkpt lat="44.278575" lon="8.2096867"><ele>764.0</ele><time>2026-04-06T09:08:09.583Z</time></trkpt><trkpt lat="44.27853" lon="8.2097533"><ele>764.0</ele><time>2026-04-06T09:08:16.583Z</time></trkpt><trkpt lat="44.2784483" lon="8.20971"><ele>764.0</ele><time>2026-04-06T09:08:19.582Z</time></trkpt><trkpt lat="44.2783917" lon="8.2096583"><ele>764.0</ele><time>2026-04-06T09:08:21.583Z</time></trkpt><trkpt lat="44.278315" lon="8.20958"><ele>764.0</ele><time>2026-04-06T09:08:24.583Z</time></trkpt><trkpt lat="44.2782283" lon="8.2095233"><ele>764.0</ele><time>2026-04-06T09:08:27.582Z</time></trkpt><trkpt lat="44.2781567" lon="8.2094867"><ele>764.0</ele><time>2026-04-06T09:08:29.583Z</time></trkpt><trkpt lat="44.2780917" lon="8.209455"><ele>764.0</ele><time>2026-04-06T09:08:31.582Z</time></trkpt><trkpt lat="44.278025" lon="8.2094167"><ele>764.0</ele><time>2026-04-06T09:08:33.583Z</time></trkpt><trkpt lat="44.27796" lon="8.2093883"><ele>764.0</ele><time>2026-04-06T09:08:35.582Z</time></trkpt><trkpt lat="44.2778983" lon="8.2093633"><ele>764.0</ele><time>2026-04-06T09:08:37.583Z</time></trkpt><trkpt lat="44.2778333" lon="8.20934"><ele>764.0</ele><time>2026-04-06T09:08:39.583Z</time></trkpt><trkpt lat="44.277765" lon="8.2093167"><ele>765.7142857142858</ele><time>2026-04-06T09:08:41.583Z</time></trkpt><trkpt lat="44.2776933" lon="8.209305"><ele>767.4285714285713</ele><time>2026-04-06T09:08:43.583Z</time></trkpt><trkpt lat="44.2776217" lon="8.2092983"><ele>769.1428571428571</ele><time>2026-04-06T09:08:45.583Z</time></trkpt><trkpt lat="44.277555" lon="8.2092967"><ele>770.8571428571429</ele><time>2026-04-06T09:08:47.583Z</time></trkpt><trkpt lat="44.27749" lon="8.2093083"><ele>772.5714285714287</ele><time>2026-04-06T09:08:49.583Z</time></trkpt><trkpt lat="44.27741" lon="8.2093217"><ele>774.2857142857142</ele><time>2026-04-06T09:08:51.583Z</time></trkpt><trkpt lat="44.2773367" lon="8.20933"><ele>776.0</ele><time>2026-04-06T09:08:53.583Z</time></trkpt><trkpt lat="44.27727" lon="8.2093433"><ele>776.6666666666667</ele><time>2026-04-06T09:08:55.583Z</time></trkpt><trkpt lat="44.2772067" lon="8.209365"><ele>777.3333333333334</ele><time>2026-04-06T09:08:57.583Z</time></trkpt><trkpt lat="44.2771417" lon="8.209385"><ele>778.0</ele><time>2026-04-06T09:08:59.582Z</time></trkpt><trkpt lat="44.277075" lon="8.20941"><ele>778.6666666666667</ele><time>2026-04-06T09:09:01.583Z</time></trkpt><trkpt lat="44.2769833" lon="8.2094617"><ele>779.3333333333334</ele><time>2026-04-06T09:09:04.583Z</time></trkpt><trkpt lat="44.27692" lon="8.2094883"><ele>780.0</ele><time>2026-04-06T09:09:06.582Z</time></trkpt><trkpt lat="44.276835" lon="8.2095283"><ele>780.0</ele><time>2026-04-06T09:09:09.583Z</time></trkpt><trkpt lat="44.2767567" lon="8.2095867"><ele>780.0</ele><time>2026-04-06T09:09:12.582Z</time></trkpt><trkpt lat="44.2766883" lon="8.2096383"><ele>780.0</ele><time>2026-04-06T09:09:15.583Z</time></trkpt><trkpt lat="44.2766283" lon="8.2096717"><ele>780.0</ele><time>2026-04-06T09:09:17.583Z</time></trkpt><trkpt lat="44.2765433" lon="8.209725"><ele>780.0</ele><time>2026-04-06T09:09:20.583Z</time></trkpt><trkpt lat="44.27646" lon="8.2097783"><ele>780.0</ele><time>2026-04-06T09:09:23.583Z</time></trkpt><trkpt lat="44.2764033" lon="8.2098317"><ele>779.5</ele><time>2026-04-06T09:09:25.583Z</time></trkpt><trkpt lat="44.2763467" lon="8.2099267"><ele>779.0</ele><time>2026-04-06T09:09:28.583Z</time></trkpt><trkpt lat="44.2763133" lon="8.2100033"><ele>778.5</ele><time>2026-04-06T09:09:30.583Z</time></trkpt><trkpt lat="44.27627" lon="8.210125"><ele>778.0</ele><time>2026-04-06T09:09:33.583Z</time></trkpt><trkpt lat="44.2762567" lon="8.2102233"><ele>777.5</ele><time>2026-04-06T09:09:35.583Z</time></trkpt><trkpt lat="44.276245" lon="8.210315"><ele>777.0</ele><time>2026-04-06T09:09:37.583Z</time></trkpt><trkpt lat="44.2762333" lon="8.21041"><ele>777.0</ele><time>2026-04-06T09:09:39.583Z</time></trkpt><trkpt lat="44.2762283" lon="8.2105067"><ele>777.0</ele><time>2026-04-06T09:09:41.583Z</time></trkpt><trkpt lat="44.2762217" lon="8.21061"><ele>777.0</ele><time>2026-04-06T09:09:43.583Z</time></trkpt><trkpt lat="44.2762133" lon="8.210715"><ele>777.0</ele><time>2026-04-06T09:09:45.584Z</time></trkpt><trkpt lat="44.2762033" lon="8.210825"><ele>777.0</ele><time>2026-04-06T09:09:47.584Z</time></trkpt><trkpt lat="44.2762017" lon="8.2109383"><ele>777.0</ele><time>2026-04-06T09:09:49.584Z</time></trkpt><trkpt lat="44.2761933" lon="8.21104"><ele>778.0</ele><time>2026-04-06T09:09:51.584Z</time></trkpt><trkpt lat="44.2761783" lon="8.2111333"><ele>779.0</ele><time>2026-04-06T09:09:53.583Z</time></trkpt><trkpt lat="44.2761617" lon="8.21123"><ele>780.0</ele><time>2026-04-06T09:09:55.584Z</time></trkpt><trkpt lat="44.2761467" lon="8.211335"><ele>781.0</ele><time>2026-04-06T09:09:57.584Z</time></trkpt><trkpt lat="44.2761217" lon="8.2114483"><ele>782.0</ele><time>2026-04-06T09:09:59.584Z</time></trkpt><trkpt lat="44.27609" lon="8.2115633"><ele>783.0</ele><time>2026-04-06T09:10:01.583Z</time></trkpt><trkpt lat="44.276055" lon="8.2116683"><ele>784.8333333333334</ele><time>2026-04-06T09:10:03.584Z</time></trkpt><trkpt lat="44.276" lon="8.2117583"><ele>786.6666666666667</ele><time>2026-04-06T09:10:05.584Z</time></trkpt><trkpt lat="44.2759317" lon="8.2118317"><ele>788.5</ele><time>2026-04-06T09:10:07.584Z</time></trkpt><trkpt lat="44.275855" lon="8.2118933"><ele>790.3333333333334</ele><time>2026-04-06T09:10:09.584Z</time></trkpt><trkpt lat="44.2757683" lon="8.2119417"><ele>792.1666666666667</ele><time>2026-04-06T09:10:11.584Z</time></trkpt><trkpt lat="44.27569" lon="8.2120067"><ele>794.0</ele><time>2026-04-06T09:10:13.584Z</time></trkpt><trkpt lat="44.27562" lon="8.2120883"><ele>791.1666666666667</ele><time>2026-04-06T09:10:15.584Z</time></trkpt><trkpt lat="44.2755433" lon="8.2121633"><ele>788.3333333333334</ele><time>2026-04-06T09:10:17.584Z</time></trkpt><trkpt lat="44.27545" lon="8.21221"><ele>785.5</ele><time>2026-04-06T09:10:19.583Z</time></trkpt><trkpt lat="44.2753683" lon="8.2122367"><ele>782.6666666666667</ele><time>2026-04-06T09:10:21.584Z</time></trkpt><trkpt lat="44.2752817" lon="8.2122467"><ele>779.8333333333334</ele><time>2026-04-06T09:10:23.584Z</time></trkpt><trkpt lat="44.275205" lon="8.2122633"><ele>777.0</ele><time>2026-04-06T09:10:25.583Z</time></trkpt><trkpt lat="44.2751117" lon="8.212275"><ele>777.0</ele><time>2026-04-06T09:10:27.584Z</time></trkpt><trkpt lat="44.27501" lon="8.2122933"><ele>777.0</ele><time>2026-04-06T09:10:29.584Z</time></trkpt><trkpt lat="44.2749133" lon="8.2123033"><ele>777.0</ele><time>2026-04-06T09:10:31.584Z</time></trkpt><trkpt lat="44.2748217" lon="8.2123083"><ele>777.0</ele><time>2026-04-06T09:10:33.583Z</time></trkpt><trkpt lat="44.2747367" lon="8.2123233"><ele>777.0</ele><time>2026-04-06T09:10:35.584Z</time></trkpt><trkpt lat="44.2746317" lon="8.2123233"><ele>777.3333333333334</ele><time>2026-04-06T09:10:37.584Z</time></trkpt><trkpt lat="44.2745483" lon="8.2123317"><ele>777.6666666666667</ele><time>2026-04-06T09:10:39.584Z</time></trkpt><trkpt lat="44.2744733" lon="8.2123383"><ele>778.0</ele><time>2026-04-06T09:10:41.584Z</time></trkpt><trkpt lat="44.274375" lon="8.2123267"><ele>778.3333333333334</ele><time>2026-04-06T09:10:43.584Z</time></trkpt><trkpt lat="44.2742883" lon="8.2123133"><ele>778.6666666666667</ele><time>2026-04-06T09:10:45.584Z</time></trkpt><trkpt lat="44.274205" lon="8.2123233"><ele>779.0</ele><time>2026-04-06T09:10:47.584Z</time></trkpt><trkpt lat="44.274125" lon="8.2123283"><ele>779.0000000000001</ele><time>2026-04-06T09:10:49.583Z</time></trkpt><trkpt lat="44.27404" lon="8.21232"><ele>779.0</ele><time>2026-04-06T09:10:51.584Z</time></trkpt><trkpt lat="44.2739633" lon="8.21231"><ele>779.0</ele><time>2026-04-06T09:10:53.584Z</time></trkpt><trkpt lat="44.2739" lon="8.2123133"><ele>779.0</ele><time>2026-04-06T09:10:55.583Z</time></trkpt><trkpt lat="44.2738417" lon="8.2123517"><ele>779.0</ele><time>2026-04-06T09:10:58.584Z</time></trkpt><trkpt lat="44.2738917" lon="8.2124167"><ele>779.0000000000001</ele><time>2026-04-06T09:11:03.584Z</time></trkpt><trkpt lat="44.27395" lon="8.2124567"><ele>779.0</ele><time>2026-04-06T09:11:06.584Z</time></trkpt><trkpt lat="44.274005" lon="8.2125033"><ele>781.4285714285714</ele><time>2026-04-06T09:11:09.584Z</time></trkpt><trkpt lat="44.27406" lon="8.2125567"><ele>783.8571428571429</ele><time>2026-04-06T09:11:12.583Z</time></trkpt><trkpt lat="44.2741167" lon="8.2125967"><ele>786.2857142857142</ele><time>2026-04-06T09:11:15.584Z</time></trkpt><trkpt lat="44.27418" lon="8.2126417"><ele>788.7142857142858</ele><time>2026-04-06T09:11:18.584Z</time></trkpt><trkpt lat="44.2742383" lon="8.212685"><ele>791.1428571428571</ele><time>2026-04-06T09:11:21.584Z</time></trkpt><trkpt lat="44.2742817" lon="8.2127567"><ele>793.5714285714286</ele><time>2026-04-06T09:11:27.584Z</time></trkpt><trkpt lat="44.2743433" lon="8.212835"><ele>796.0</ele><time>2026-04-06T09:11:39.583Z</time></trkpt><trkpt lat="44.2744133" lon="8.21285"><ele>795.9999999999999</ele><time>2026-04-06T09:11:42.584Z</time></trkpt><trkpt lat="44.2744767" lon="8.2128567"><ele>796.0</ele><time>2026-04-06T09:11:45.584Z</time></trkpt><trkpt lat="44.2745417" lon="8.212875"><ele>796.0</ele><time>2026-04-06T09:11:49.584Z</time></trkpt><trkpt lat="44.2746067" lon="8.2128983"><ele>796.0</ele><time>2026-04-06T09:11:53.584Z</time></trkpt><trkpt lat="44.27467" lon="8.2129267"><ele>796.0</ele><time>2026-04-06T09:11:57.584Z</time></trkpt><trkpt lat="44.2747333" lon="8.212955"><ele>795.9999999999999</ele><time>2026-04-06T09:12:01.584Z</time></trkpt><trkpt lat="44.274815" lon="8.2129633"><ele>796.0</ele><time>2026-04-06T09:12:05.584Z</time></trkpt><trkpt lat="44.274885" lon="8.2129717"><ele>796.8571428571428</ele><time>2026-04-06T09:12:08.584Z</time></trkpt><trkpt lat="44.2749417" lon="8.213025"><ele>797.7142857142857</ele><time>2026-04-06T09:12:12.584Z</time></trkpt><trkpt lat="44.275" lon="8.2130733"><ele>798.5714285714286</ele><time>2026-04-06T09:12:17.584Z</time></trkpt><trkpt lat="44.2750633" lon="8.21313"><ele>799.4285714285713</ele><time>2026-04-06T09:12:21.584Z</time></trkpt><trkpt lat="44.275135" lon="8.2131817"><ele>800.2857142857143</ele><time>2026-04-06T09:12:25.584Z</time></trkpt><trkpt lat="44.2752067" lon="8.21324"><ele>801.1428571428571</ele><time>2026-04-06T09:12:29.584Z</time></trkpt><trkpt lat="44.27527" lon="8.2132767"><ele>802.0</ele><time>2026-04-06T09:12:32.584Z</time></trkpt><trkpt lat="44.2753283" lon="8.21331"><ele>803.8571428571429</ele><time>2026-04-06T09:12:35.584Z</time></trkpt><trkpt lat="44.2753933" lon="8.2133383"><ele>805.7142857142858</ele><time>2026-04-06T09:12:38.584Z</time></trkpt><trkpt lat="44.27547" lon="8.213345"><ele>807.5714285714286</ele><time>2026-04-06T09:12:41.584Z</time></trkpt><trkpt lat="44.2755367" lon="8.21337"><ele>809.4285714285714</ele><time>2026-04-06T09:12:44.584Z</time></trkpt><trkpt lat="44.2756017" lon="8.2133983"><ele>811.2857142857142</ele><time>2026-04-06T09:12:48.583Z</time></trkpt><trkpt lat="44.2756733" lon="8.2134117"><ele>813.1428571428571</ele><time>2026-04-06T09:12:52.583Z</time></trkpt><trkpt lat="44.2757383" lon="8.2133983"><ele>815.0</ele><time>2026-04-06T09:12:55.584Z</time></trkpt><trkpt lat="44.2758167" lon="8.21342"><ele>817.5000000000001</ele><time>2026-04-06T09:12:59.584Z</time></trkpt><trkpt lat="44.275895" lon="8.2134167"><ele>820.0</ele><time>2026-04-06T09:13:03.584Z</time></trkpt><trkpt lat="44.27596" lon="8.2134"><ele>822.5</ele><time>2026-04-06T09:13:06.584Z</time></trkpt><trkpt lat="44.27604" lon="8.2133333"><ele>825.0</ele><time>2026-04-06T09:13:09.584Z</time></trkpt><trkpt lat="44.27612" lon="8.2132667"><ele>827.5000000000001</ele><time>2026-04-06T09:13:11.584Z</time></trkpt><trkpt lat="44.276185" lon="8.2132833"><ele>830.0</ele><time>2026-04-06T09:13:13.583Z</time></trkpt><trkpt lat="44.2762683" lon="8.21323"><ele>830.0000000000001</ele><time>2026-04-06T09:13:16.584Z</time></trkpt><trkpt lat="44.276345" lon="8.2131767"><ele>830.0</ele><time>2026-04-06T09:13:18.584Z</time></trkpt><trkpt lat="44.276415" lon="8.2131483"><ele>830.0</ele><time>2026-04-06T09:13:20.583Z</time></trkpt><trkpt lat="44.276495" lon="8.21312"><ele>830.0</ele><time>2026-04-06T09:13:23.584Z</time></trkpt><trkpt lat="44.27657" lon="8.21309"><ele>830.0000000000001</ele><time>2026-04-06T09:13:27.584Z</time></trkpt><trkpt lat="44.2766417" lon="8.213055"><ele>830.0</ele><time>2026-04-06T09:13:31.583Z</time></trkpt><trkpt lat="44.2767133" lon="8.2130117"><ele>830.8333333333334</ele><time>2026-04-06T09:13:34.584Z</time></trkpt><trkpt lat="44.2767917" lon="8.2129683"><ele>831.6666666666667</ele><time>2026-04-06T09:13:37.583Z</time></trkpt><trkpt lat="44.2768717" lon="8.21291"><ele>832.5</ele><time>2026-04-06T09:13:40.584Z</time></trkpt><trkpt lat="44.276945" lon="8.2128483"><ele>833.3333333333333</ele><time>2026-04-06T09:13:43.583Z</time></trkpt><trkpt lat="44.277015" lon="8.2127983"><ele>834.1666666666666</ele><time>2026-04-06T09:13:46.584Z</time></trkpt><trkpt lat="44.2770683" lon="8.2127267"><ele>835.0</ele><time>2026-04-06T09:13:51.584Z</time></trkpt><trkpt lat="44.2771167" lon="8.2126583"><ele>834.9999999999999</ele><time>2026-04-06T09:13:56.584Z</time></trkpt><trkpt lat="44.2772217" lon="8.2125817"><ele>835.0</ele><time>2026-04-06T09:14:12.583Z</time></trkpt><trkpt lat="44.2773283" lon="8.2125467"><ele>835.0</ele><time>2026-04-06T09:14:40.583Z</time></trkpt><trkpt lat="44.2773983" lon="8.21253"><ele>835.0</ele><time>2026-04-06T09:16:25.582Z</time></trkpt><trkpt lat="44.2774633" lon="8.21248"><ele>834.9999999999999</ele><time>2026-04-06T09:16:28.583Z</time></trkpt><trkpt lat="44.2775317" lon="8.21244"><ele>835.0</ele><time>2026-04-06T09:16:30.583Z</time></trkpt><trkpt lat="44.277595" lon="8.2124117"><ele>837.9999999999999</ele><time>2026-04-06T09:16:32.583Z</time></trkpt><trkpt lat="44.2776733" lon="8.2124117"><ele>841.0</ele><time>2026-04-06T09:16:35.583Z</time></trkpt><trkpt lat="44.27776" lon="8.21245"><ele>844.0</ele><time>2026-04-06T09:16:38.583Z</time></trkpt><trkpt lat="44.277825" lon="8.2124783"><ele>847.0</ele><time>2026-04-06T09:16:40.583Z</time></trkpt><trkpt lat="44.2779" lon="8.2125217"><ele>849.9999999999999</ele><time>2026-04-06T09:16:42.583Z</time></trkpt><trkpt lat="44.27797" lon="8.2125633"><ele>853.0</ele><time>2026-04-06T09:16:44.583Z</time></trkpt><trkpt lat="44.27805" lon="8.2126167"><ele>851.8</ele><time>2026-04-06T09:16:47.582Z</time></trkpt><trkpt lat="44.27813" lon="8.2126367"><ele>850.5999999999999</ele><time>2026-04-06T09:16:50.582Z</time></trkpt><trkpt lat="44.2782067" lon="8.2126433"><ele>849.4000000000001</ele><time>2026-04-06T09:16:52.583Z</time></trkpt><trkpt lat="44.2782917" lon="8.21262"><ele>848.2</ele><time>2026-04-06T09:16:54.583Z</time></trkpt><trkpt lat="44.2784167" lon="8.2125717"><ele>847.0</ele><time>2026-04-06T09:16:56.583Z</time></trkpt><trkpt lat="44.2784917" lon="8.2125467"><ele>846.9999999999999</ele><time>2026-04-06T09:16:57.583Z</time></trkpt><trkpt lat="44.2785767" lon="8.2125333"><ele>847.0</ele><time>2026-04-06T09:16:58.583Z</time></trkpt><trkpt lat="44.2786633" lon="8.21252"><ele>847.0</ele><time>2026-04-06T09:16:59.583Z</time></trkpt><trkpt lat="44.2787583" lon="8.212545"><ele>847.0</ele><time>2026-04-06T09:17:00.583Z</time></trkpt><trkpt lat="44.2788367" lon="8.2125467"><ele>846.9999999999999</ele><time>2026-04-06T09:17:01.583Z</time></trkpt><trkpt lat="44.27893" lon="8.2125683"><ele>847.0</ele><time>2026-04-06T09:17:02.583Z</time></trkpt><trkpt lat="44.27901" lon="8.2125733"><ele>844.2</ele><time>2026-04-06T09:17:03.583Z</time></trkpt><trkpt lat="44.279075" lon="8.212565"><ele>841.4000000000001</ele><time>2026-04-06T09:17:04.583Z</time></trkpt><trkpt lat="44.27918" lon="8.2125717"><ele>838.5999999999999</ele><time>2026-04-06T09:17:06.583Z</time></trkpt><trkpt lat="44.2792717" lon="8.2126167"><ele>835.8</ele><time>2026-04-06T09:17:08.583Z</time></trkpt><trkpt lat="44.279355" lon="8.2127183"><ele>833.0</ele><time>2026-04-06T09:17:10.583Z</time></trkpt><trkpt lat="44.2794167" lon="8.2128817"><ele>833.0000000000001</ele><time>2026-04-06T09:17:12.583Z</time></trkpt><trkpt lat="44.2794567" lon="8.2129883"><ele>833.0</ele><time>2026-04-06T09:17:13.583Z</time></trkpt><trkpt lat="44.279485" lon="8.2131233"><ele>833.0</ele><time>2026-04-06T09:17:14.583Z</time></trkpt><trkpt lat="44.2795117" lon="8.2132383"><ele>833.0</ele><time>2026-04-06T09:17:15.583Z</time></trkpt><trkpt lat="44.2795283" lon="8.2133333"><ele>833.0000000000001</ele><time>2026-04-06T09:17:16.583Z</time></trkpt><trkpt lat="44.2795617" lon="8.2134583"><ele>833.0</ele><time>2026-04-06T09:17:18.583Z</time></trkpt><trkpt lat="44.2795917" lon="8.2135583"><ele>835.5000000000001</ele><time>2026-04-06T09:17:21.583Z</time></trkpt><trkpt lat="44.279655" lon="8.21363"><ele>838.0</ele><time>2026-04-06T09:17:26.583Z</time></trkpt><trkpt lat="44.27972" lon="8.2136983"><ele>840.5</ele><time>2026-04-06T09:17:29.583Z</time></trkpt><trkpt lat="44.2797633" lon="8.2137733"><ele>843.0</ele><time>2026-04-06T09:17:31.583Z</time></trkpt><trkpt lat="44.2798" lon="8.2138483"><ele>845.5000000000001</ele><time>2026-04-06T09:17:33.583Z</time></trkpt><trkpt lat="44.2798833" lon="8.2138983"><ele>848.0</ele><time>2026-04-06T09:17:36.583Z</time></trkpt><trkpt lat="44.2799617" lon="8.2139267"><ele>847.8333333333334</ele><time>2026-04-06T09:17:39.583Z</time></trkpt><trkpt lat="44.2800483" lon="8.2139517"><ele>847.6666666666667</ele><time>2026-04-06T09:17:42.583Z</time></trkpt><trkpt lat="44.2801133" lon="8.2139683"><ele>847.5</ele><time>2026-04-06T09:17:44.583Z</time></trkpt><trkpt lat="44.2801917" lon="8.2139667"><ele>847.3333333333333</ele><time>2026-04-06T09:17:47.583Z</time></trkpt><trkpt lat="44.280275" lon="8.2139833"><ele>847.1666666666666</ele><time>2026-04-06T09:17:50.582Z</time></trkpt><trkpt lat="44.2803483" lon="8.2139983"><ele>847.0</ele><time>2026-04-06T09:17:53.582Z</time></trkpt><trkpt lat="44.2804317" lon="8.2140517"><ele>847.0</ele><time>2026-04-06T09:17:56.583Z</time></trkpt><trkpt lat="44.28051" lon="8.2141233"><ele>847.0</ele><time>2026-04-06T09:17:59.583Z</time></trkpt><trkpt lat="44.2805717" lon="8.2142383"><ele>847.0</ele><time>2026-04-06T09:18:01.582Z</time></trkpt><trkpt lat="44.2806417" lon="8.2143433"><ele>847.0</ele><time>2026-04-06T09:18:03.583Z</time></trkpt><trkpt lat="44.2807217" lon="8.2144517"><ele>847.0</ele><time>2026-04-06T09:18:05.582Z</time></trkpt><trkpt lat="44.280775" lon="8.214525"><ele>846.8</ele><time>2026-04-06T09:18:06.583Z</time></trkpt><trkpt lat="44.28082" lon="8.214665"><ele>846.6</ele><time>2026-04-06T09:18:08.583Z</time></trkpt><trkpt lat="44.2808267" lon="8.214815"><ele>846.4</ele><time>2026-04-06T09:18:10.582Z</time></trkpt><trkpt lat="44.2808333" lon="8.2149317"><ele>846.1999999999999</ele><time>2026-04-06T09:18:12.583Z</time></trkpt><trkpt lat="44.2808717" lon="8.2150317"><ele>846.0</ele><time>2026-04-06T09:18:14.583Z</time></trkpt><trkpt lat="44.28092" lon="8.2151167"><ele>846.0</ele><time>2026-04-06T09:18:16.583Z</time></trkpt><trkpt lat="44.280965" lon="8.21518"><ele>846.0</ele><time>2026-04-06T09:18:17.583Z</time></trkpt><trkpt lat="44.281015" lon="8.2152483"><ele>846.0</ele><time>2026-04-06T09:18:18.583Z</time></trkpt><trkpt lat="44.28107" lon="8.215345"><ele>846.0</ele><time>2026-04-06T09:18:20.583Z</time></trkpt><trkpt lat="44.2811183" lon="8.2154233"><ele>846.0</ele><time>2026-04-06T09:18:22.583Z</time></trkpt><trkpt lat="44.2811867" lon="8.2154917"><ele>846.0</ele><time>2026-04-06T09:18:25.583Z</time></trkpt><trkpt lat="44.2812433" lon="8.215545"><ele>846.0</ele><time>2026-04-06T09:18:28.583Z</time></trkpt><trkpt lat="44.2813" lon="8.2156433"><ele>843.8333333333334</ele><time>2026-04-06T09:18:31.583Z</time></trkpt><trkpt lat="44.2813633" lon="8.215715"><ele>841.6666666666667</ele><time>2026-04-06T09:18:34.583Z</time></trkpt><trkpt lat="44.2814483" lon="8.21578"><ele>839.5</ele><time>2026-04-06T09:18:37.583Z</time></trkpt><trkpt lat="44.2815183" lon="8.2158383"><ele>837.3333333333334</ele><time>2026-04-06T09:18:39.583Z</time></trkpt><trkpt lat="44.2815817" lon="8.2159017"><ele>835.1666666666667</ele><time>2026-04-06T09:18:41.583Z</time></trkpt><trkpt lat="44.28165" lon="8.2159883"><ele>833.0</ele><time>2026-04-06T09:18:43.583Z</time></trkpt><trkpt lat="44.2817267" lon="8.216075"><ele>833.0000000000001</ele><time>2026-04-06T09:18:45.583Z</time></trkpt><trkpt lat="44.2817967" lon="8.216145"><ele>833.0</ele><time>2026-04-06T09:18:47.582Z</time></trkpt><trkpt lat="44.2818733" lon="8.2162117"><ele>833.0</ele><time>2026-04-06T09:18:50.583Z</time></trkpt><trkpt lat="44.2819367" lon="8.2162467"><ele>833.0</ele><time>2026-04-06T09:18:52.583Z</time></trkpt><trkpt lat="44.2820083" lon="8.2162517"><ele>833.0000000000001</ele><time>2026-04-06T09:18:54.583Z</time></trkpt><trkpt lat="44.2821117" lon="8.2162317"><ele>833.0</ele><time>2026-04-06T09:18:56.583Z</time></trkpt><trkpt lat="44.2822117" lon="8.2162017"><ele>830.8</ele><time>2026-04-06T09:18:58.583Z</time></trkpt><trkpt lat="44.2823117" lon="8.2161933"><ele>828.5999999999999</ele><time>2026-04-06T09:19:00.583Z</time></trkpt><trkpt lat="44.2824" lon="8.216195"><ele>826.4000000000001</ele><time>2026-04-06T09:19:02.583Z</time></trkpt><trkpt lat="44.2824683" lon="8.2162517"><ele>824.2</ele><time>2026-04-06T09:19:04.582Z</time></trkpt><trkpt lat="44.2825117" lon="8.2163483"><ele>822.0</ele><time>2026-04-06T09:19:06.583Z</time></trkpt><trkpt lat="44.2825533" lon="8.216485"><ele>825.8</ele><time>2026-04-06T09:19:08.583Z</time></trkpt><trkpt lat="44.2826033" lon="8.2165683"><ele>829.6</ele><time>2026-04-06T09:19:09.583Z</time></trkpt><trkpt lat="44.2826733" lon="8.2166983"><ele>833.4</ele><time>2026-04-06T09:19:11.583Z</time></trkpt><trkpt lat="44.2827267" lon="8.2168083"><ele>837.1999999999999</ele><time>2026-04-06T09:19:12.583Z</time></trkpt><trkpt lat="44.2828067" lon="8.2169233"><ele>841.0</ele><time>2026-04-06T09:19:13.582Z</time></trkpt><trkpt lat="44.2828817" lon="8.217035"><ele>840.9999999999999</ele><time>2026-04-06T09:19:15.583Z</time></trkpt><trkpt lat="44.2829383" lon="8.2170817"><ele>841.0</ele><time>2026-04-06T09:19:17.583Z</time></trkpt><trkpt lat="44.282995" lon="8.21714"><ele>841.0</ele><time>2026-04-06T09:19:19.583Z</time></trkpt><trkpt lat="44.2830683" lon="8.2172117"><ele>841.0</ele><time>2026-04-06T09:19:21.583Z</time></trkpt><trkpt lat="44.2831417" lon="8.2172717"><ele>840.9999999999999</ele><time>2026-04-06T09:19:23.583Z</time></trkpt><trkpt lat="44.28322" lon="8.2173267"><ele>841.0</ele><time>2026-04-06T09:19:25.583Z</time></trkpt><trkpt lat="44.2832833" lon="8.2173817"><ele>840.5714285714286</ele><time>2026-04-06T09:19:27.583Z</time></trkpt><trkpt lat="44.28334" lon="8.2174417"><ele>840.1428571428571</ele><time>2026-04-06T09:19:29.583Z</time></trkpt><trkpt lat="44.2834" lon="8.2174833"><ele>839.7142857142857</ele><time>2026-04-06T09:19:31.583Z</time></trkpt><trkpt lat="44.2834617" lon="8.2175117"><ele>839.2857142857142</ele><time>2026-04-06T09:19:33.583Z</time></trkpt><trkpt lat="44.2835283" lon="8.217535"><ele>838.8571428571429</ele><time>2026-04-06T09:19:35.583Z</time></trkpt><trkpt lat="44.2835967" lon="8.2175733"><ele>838.4285714285713</ele><time>2026-04-06T09:19:37.583Z</time></trkpt><trkpt lat="44.283665" lon="8.2176167"><ele>838.0</ele><time>2026-04-06T09:19:39.583Z</time></trkpt><trkpt lat="44.283745" lon="8.217645"><ele>837.9999999999999</ele><time>2026-04-06T09:19:41.583Z</time></trkpt><trkpt lat="44.2838267" lon="8.2176667"><ele>838.0</ele><time>2026-04-06T09:19:43.583Z</time></trkpt><trkpt lat="44.2838933" lon="8.2176917"><ele>838.0</ele><time>2026-04-06T09:19:45.582Z</time></trkpt><trkpt lat="44.283975" lon="8.2176883"><ele>838.0</ele><time>2026-04-06T09:19:47.583Z</time></trkpt><trkpt lat="44.28404" lon="8.2176883"><ele>837.9999999999999</ele><time>2026-04-06T09:19:49.583Z</time></trkpt><trkpt lat="44.2841217" lon="8.2177"><ele>838.0</ele><time>2026-04-06T09:19:51.583Z</time></trkpt><trkpt lat="44.2842233" lon="8.2177167"><ele>836.4999999999999</ele><time>2026-04-06T09:19:53.583Z</time></trkpt><trkpt lat="44.2843117" lon="8.217755"><ele>835.0</ele><time>2026-04-06T09:19:55.583Z</time></trkpt><trkpt lat="44.2843867" lon="8.21779"><ele>833.5</ele><time>2026-04-06T09:19:57.583Z</time></trkpt><trkpt lat="44.28446" lon="8.2178433"><ele>832.0</ele><time>2026-04-06T09:20:00.582Z</time></trkpt><trkpt lat="44.284535" lon="8.217885"><ele>830.4999999999999</ele><time>2026-04-06T09:20:03.583Z</time></trkpt><trkpt lat="44.2845983" lon="8.2179267"><ele>829.0</ele><time>2026-04-06T09:20:06.583Z</time></trkpt><trkpt lat="44.28466" lon="8.2179783"><ele>829.0</ele><time>2026-04-06T09:20:09.583Z</time></trkpt><trkpt lat="44.284735" lon="8.2180567"><ele>829.0</ele><time>2026-04-06T09:20:12.583Z</time></trkpt><trkpt lat="44.2847983" lon="8.2181167"><ele>829.0</ele><time>2026-04-06T09:20:14.583Z</time></trkpt><trkpt lat="44.28486" lon="8.2182"><ele>829.0</ele><time>2026-04-06T09:20:17.583Z</time></trkpt><trkpt lat="44.2848833" lon="8.2182833"><ele>829.0</ele><time>2026-04-06T09:20:19.583Z</time></trkpt><trkpt lat="44.28492" lon="8.2183567"><ele>829.0</ele><time>2026-04-06T09:20:21.582Z</time></trkpt><trkpt lat="44.2849467" lon="8.21844"><ele>829.0</ele><time>2026-04-06T09:20:23.582Z</time></trkpt><trkpt lat="44.2849683" lon="8.21857"><ele>831.6666666666666</ele><time>2026-04-06T09:20:26.583Z</time></trkpt><trkpt lat="44.2849817" lon="8.21867"><ele>834.3333333333333</ele><time>2026-04-06T09:20:28.583Z</time></trkpt><trkpt lat="44.2849917" lon="8.2187667"><ele>837.0</ele><time>2026-04-06T09:20:30.584Z</time></trkpt><trkpt lat="44.2849867" lon="8.2188883"><ele>839.6666666666667</ele><time>2026-04-06T09:20:32.584Z</time></trkpt><trkpt lat="44.285" lon="8.2189967"><ele>842.3333333333334</ele><time>2026-04-06T09:20:34.584Z</time></trkpt><trkpt lat="44.2850067" lon="8.2190967"><ele>845.0</ele><time>2026-04-06T09:20:36.584Z</time></trkpt><trkpt lat="44.2850367" lon="8.2192017"><ele>847.2</ele><time>2026-04-06T09:20:38.584Z</time></trkpt><trkpt lat="44.2850867" lon="8.2192933"><ele>849.4</ele><time>2026-04-06T09:20:40.584Z</time></trkpt><trkpt lat="44.2851717" lon="8.2194017"><ele>851.5999999999999</ele><time>2026-04-06T09:20:42.584Z</time></trkpt><trkpt lat="44.2852633" lon="8.2195017"><ele>853.8</ele><time>2026-04-06T09:20:44.584Z</time></trkpt><trkpt lat="44.2853117" lon="8.2196217"><ele>856.0</ele><time>2026-04-06T09:20:46.584Z</time></trkpt><trkpt lat="44.28534" lon="8.2197083"><ele>856.0</ele><time>2026-04-06T09:20:48.584Z</time></trkpt><trkpt lat="44.28536" lon="8.2198083"><ele>855.9999999999999</ele><time>2026-04-06T09:20:51.584Z</time></trkpt><trkpt lat="44.285315" lon="8.21999"><ele>855.9999999999999</ele><time>2026-04-06T09:21:11.584Z</time></trkpt><trkpt lat="44.2853967" lon="8.2199833"><ele>856.0</ele><time>2026-04-06T09:24:08.583Z</time></trkpt><trkpt lat="44.2854767" lon="8.2199583"><ele>856.0</ele><time>2026-04-06T09:24:10.584Z</time></trkpt><trkpt lat="44.285565" lon="8.2199167"><ele>856.0</ele><time>2026-04-06T09:24:12.584Z</time></trkpt><trkpt lat="44.2856433" lon="8.2198633"><ele>855.9999999999999</ele><time>2026-04-06T09:24:15.584Z</time></trkpt><trkpt lat="44.2856083" lon="8.2197633"><ele>855.9999999999999</ele><time>2026-04-06T09:24:19.584Z</time></trkpt><trkpt lat="44.2854933" lon="8.2196883"><ele>856.0</ele><time>2026-04-06T09:24:21.584Z</time></trkpt><trkpt lat="44.2854117" lon="8.219615"><ele>856.0</ele><time>2026-04-06T09:24:23.584Z</time></trkpt><trkpt lat="44.2853517" lon="8.2195067"><ele>856.0</ele><time>2026-04-06T09:24:26.584Z</time></trkpt><trkpt lat="44.2852967" lon="8.2193933"><ele>855.9999999999999</ele><time>2026-04-06T09:24:28.583Z</time></trkpt><trkpt lat="44.2852533" lon="8.219285"><ele>855.9999999999999</ele><time>2026-04-06T09:24:30.584Z</time></trkpt><trkpt lat="44.2852267" lon="8.2191783"><ele>856.0</ele><time>2026-04-06T09:24:32.583Z</time></trkpt><trkpt lat="44.2852017" lon="8.219035"><ele>856.0</ele><time>2026-04-06T09:24:34.582Z</time></trkpt><trkpt lat="44.2852083" lon="8.21888"><ele>854.1666666666666</ele><time>2026-04-06T09:24:36.583Z</time></trkpt><trkpt lat="44.2852267" lon="8.2187133"><ele>852.3333333333333</ele><time>2026-04-06T09:24:38.583Z</time></trkpt><trkpt lat="44.2852333" lon="8.21862"><ele>850.5</ele><time>2026-04-06T09:24:39.583Z</time></trkpt><trkpt lat="44.2852367" lon="8.2185267"><ele>848.6666666666667</ele><time>2026-04-06T09:24:40.584Z</time></trkpt><trkpt lat="44.2852333" lon="8.2184367"><ele>846.8333333333334</ele><time>2026-04-06T09:24:41.582Z</time></trkpt><trkpt lat="44.2852317" lon="8.2183433"><ele>845.0</ele><time>2026-04-06T09:24:42.582Z</time></trkpt><trkpt lat="44.28522" lon="8.2181917"><ele>841.0</ele><time>2026-04-06T09:24:44.582Z</time></trkpt><trkpt lat="44.2852117" lon="8.218045"><ele>837.0</ele><time>2026-04-06T09:24:46.583Z</time></trkpt><trkpt lat="44.2852417" lon="8.2179283"><ele>833.0</ele><time>2026-04-06T09:24:48.583Z</time></trkpt><trkpt lat="44.2852317" lon="8.217805"><ele>829.0</ele><time>2026-04-06T09:24:51.583Z</time></trkpt><trkpt lat="44.285205" lon="8.217695"><ele>825.0</ele><time>2026-04-06T09:24:53.582Z</time></trkpt><trkpt lat="44.2851083" lon="8.21768"><ele>825.0</ele><time>2026-04-06T09:24:55.582Z</time></trkpt><trkpt lat="44.2850017" lon="8.2176633"><ele>825.0</ele><time>2026-04-06T09:24:57.582Z</time></trkpt><trkpt lat="44.2849067" lon="8.217635"><ele>825.0</ele><time>2026-04-06T09:24:59.583Z</time></trkpt><trkpt lat="44.284825" lon="8.2176367"><ele>825.0</ele><time>2026-04-06T09:25:01.583Z</time></trkpt><trkpt lat="44.284745" lon="8.2176317"><ele>825.0</ele><time>2026-04-06T09:25:03.583Z</time></trkpt><trkpt lat="44.2846667" lon="8.2175833"><ele>825.8</ele><time>2026-04-06T09:25:05.582Z</time></trkpt><trkpt lat="44.28458" lon="8.2175333"><ele>826.6</ele><time>2026-04-06T09:25:07.583Z</time></trkpt><trkpt lat="44.2844967" lon="8.2174733"><ele>827.4000000000001</ele><time>2026-04-06T09:25:09.583Z</time></trkpt><trkpt lat="44.284395" lon="8.2174367"><ele>828.2</ele><time>2026-04-06T09:25:11.583Z</time></trkpt><trkpt lat="44.284285" lon="8.217415"><ele>829.0</ele><time>2026-04-06T09:25:13.583Z</time></trkpt><trkpt lat="44.2842217" lon="8.2174083"><ele>829.0</ele><time>2026-04-06T09:25:14.583Z</time></trkpt><trkpt lat="44.28415" lon="8.2173933"><ele>829.0</ele><time>2026-04-06T09:25:15.583Z</time></trkpt><trkpt lat="44.284045" lon="8.2173667"><ele>829.0</ele><time>2026-04-06T09:25:17.583Z</time></trkpt><trkpt lat="44.2839583" lon="8.2173117"><ele>829.0</ele><time>2026-04-06T09:25:19.582Z</time></trkpt><trkpt lat="44.283855" lon="8.2172367"><ele>829.0</ele><time>2026-04-06T09:25:21.583Z</time></trkpt><trkpt lat="44.2837767" lon="8.217205"><ele>827.9999999999999</ele><time>2026-04-06T09:25:23.583Z</time></trkpt><trkpt lat="44.283695" lon="8.2171883"><ele>827.0</ele><time>2026-04-06T09:25:25.583Z</time></trkpt><trkpt lat="44.2836817" lon="8.217085"><ele>826.0</ele><time>2026-04-06T09:25:29.583Z</time></trkpt><trkpt lat="44.2837717" lon="8.21704"><ele>825.0</ele><time>2026-04-06T09:25:32.583Z</time></trkpt><trkpt lat="44.2838683" lon="8.2170133"><ele>823.9999999999999</ele><time>2026-04-06T09:25:34.583Z</time></trkpt><trkpt lat="44.2839633" lon="8.2170267"><ele>823.0</ele><time>2026-04-06T09:25:36.583Z</time></trkpt><trkpt lat="44.2840567" lon="8.21701"><ele>822.9999999999999</ele><time>2026-04-06T09:25:38.583Z</time></trkpt><trkpt lat="44.284145" lon="8.2169967"><ele>823.0</ele><time>2026-04-06T09:25:40.583Z</time></trkpt><trkpt lat="44.2841333" lon="8.2169067"><ele>823.0</ele><time>2026-04-06T09:25:46.582Z</time></trkpt><trkpt lat="44.2840267" lon="8.2168883"><ele>823.0</ele><time>2026-04-06T09:25:48.582Z</time></trkpt><trkpt lat="44.28396" lon="8.2168817"><ele>822.9999999999999</ele><time>2026-04-06T09:25:49.583Z</time></trkpt><trkpt lat="44.283855" lon="8.21681"><ele>823.0</ele><time>2026-04-06T09:25:51.582Z</time></trkpt><trkpt lat="44.2837817" lon="8.2167367"><ele>822.9999999999999</ele><time>2026-04-06T09:25:53.583Z</time></trkpt><trkpt lat="44.2838117" lon="8.2166567"><ele>823.0</ele><time>2026-04-06T09:25:57.583Z</time></trkpt><trkpt lat="44.2839233" lon="8.2166033"><ele>823.0</ele><time>2026-04-06T09:25:59.583Z</time></trkpt><trkpt lat="44.28403" lon="8.2165667"><ele>823.0</ele><time>2026-04-06T09:26:01.583Z</time></trkpt><trkpt lat="44.2840933" lon="8.21657"><ele>822.9999999999999</ele><time>2026-04-06T09:26:02.583Z</time></trkpt><trkpt lat="44.2841867" lon="8.2165733"><ele>823.0</ele><time>2026-04-06T09:26:04.583Z</time></trkpt><trkpt lat="44.28412" lon="8.21645"><ele>820.5999999999999</ele><time>2026-04-06T09:26:11.583Z</time></trkpt><trkpt lat="44.2840283" lon="8.2163883"><ele>818.1999999999999</ele><time>2026-04-06T09:26:13.582Z</time></trkpt><trkpt lat="44.2839633" lon="8.2162917"><ele>815.8</ele><time>2026-04-06T09:26:15.583Z</time></trkpt><trkpt lat="44.2838983" lon="8.2161883"><ele>813.4</ele><time>2026-04-06T09:26:17.582Z</time></trkpt><trkpt lat="44.28386" lon="8.2160933"><ele>811.0</ele><time>2026-04-06T09:26:19.583Z</time></trkpt><trkpt lat="44.2838633" lon="8.215975"><ele>810.9999999999999</ele><time>2026-04-06T09:26:22.583Z</time></trkpt><trkpt lat="44.2838117" lon="8.2158883"><ele>811.0</ele><time>2026-04-06T09:26:24.583Z</time></trkpt><trkpt lat="44.2837867" lon="8.2158017"><ele>811.0</ele><time>2026-04-06T09:26:26.582Z</time></trkpt><trkpt lat="44.2838617" lon="8.2157533"><ele>811.0</ele><time>2026-04-06T09:26:29.583Z</time></trkpt><trkpt lat="44.2839183" lon="8.21568"><ele>810.9999999999999</ele><time>2026-04-06T09:26:32.582Z</time></trkpt><trkpt lat="44.2839667" lon="8.215555"><ele>811.0</ele><time>2026-04-06T09:26:34.583Z</time></trkpt><trkpt lat="44.2840283" lon="8.2154717"><ele>804.1999999999999</ele><time>2026-04-06T09:26:36.583Z</time></trkpt><trkpt lat="44.284095" lon="8.215365"><ele>797.4</ele><time>2026-04-06T09:26:38.583Z</time></trkpt><trkpt lat="44.2841417" lon="8.2153033"><ele>790.6</ele><time>2026-04-06T09:26:39.583Z</time></trkpt><trkpt lat="44.2842333" lon="8.2152117"><ele>783.8</ele><time>2026-04-06T09:26:41.583Z</time></trkpt><trkpt lat="44.2843167" lon="8.2151367"><ele>777.0</ele><time>2026-04-06T09:26:43.583Z</time></trkpt><trkpt lat="44.284425" lon="8.21501"><ele>777.0</ele><time>2026-04-06T09:26:45.583Z</time></trkpt><trkpt lat="44.2844833" lon="8.21489"><ele>777.0</ele><time>2026-04-06T09:26:48.583Z</time></trkpt><trkpt lat="44.2845433" lon="8.2147567"><ele>777.0</ele><time>2026-04-06T09:26:50.583Z</time></trkpt><trkpt lat="44.2845883" lon="8.2146583"><ele>777.0</ele><time>2026-04-06T09:26:52.583Z</time></trkpt><trkpt lat="44.2846217" lon="8.2145633"><ele>777.0</ele><time>2026-04-06T09:26:54.583Z</time></trkpt><trkpt lat="44.2846617" lon="8.2144617"><ele>775.0</ele><time>2026-04-06T09:26:56.583Z</time></trkpt><trkpt lat="44.28472" lon="8.2143583"><ele>773.0</ele><time>2026-04-06T09:26:59.583Z</time></trkpt><trkpt lat="44.2847533" lon="8.2142717"><ele>771.0</ele><time>2026-04-06T09:27:01.583Z</time></trkpt><trkpt lat="44.284835" lon="8.2141917"><ele>769.0</ele><time>2026-04-06T09:27:04.583Z</time></trkpt><trkpt lat="44.2848967" lon="8.2141267"><ele>767.0</ele><time>2026-04-06T09:27:07.583Z</time></trkpt><trkpt lat="44.284955" lon="8.214065"><ele>765.0</ele><time>2026-04-06T09:27:09.583Z</time></trkpt><trkpt lat="44.2850117" lon="8.2139467"><ele>761.2</ele><time>2026-04-06T09:27:12.582Z</time></trkpt><trkpt lat="44.2849617" lon="8.2138817"><ele>757.4</ele><time>2026-04-06T09:27:14.582Z</time></trkpt><trkpt lat="44.2848683" lon="8.2138183"><ele>753.5999999999999</ele><time>2026-04-06T09:27:17.583Z</time></trkpt><trkpt lat="44.28478" lon="8.2137283"><ele>749.8</ele><time>2026-04-06T09:27:19.582Z</time></trkpt><trkpt lat="44.28469" lon="8.2136333"><ele>746.0</ele><time>2026-04-06T09:27:21.583Z</time></trkpt><trkpt lat="44.2846517" lon="8.21355"><ele>746.0</ele><time>2026-04-06T09:27:23.583Z</time></trkpt><trkpt lat="44.2846067" lon="8.2134567"><ele>746.0</ele><time>2026-04-06T09:27:25.583Z</time></trkpt><trkpt lat="44.2845483" lon="8.2133483"><ele>746.0</ele><time>2026-04-06T09:27:27.583Z</time></trkpt><trkpt lat="44.2845" lon="8.2132717"><ele>746.0</ele><time>2026-04-06T09:27:29.583Z</time></trkpt><trkpt lat="44.28444" lon="8.2132267"><ele>746.0</ele><time>2026-04-06T09:27:31.583Z</time></trkpt><trkpt lat="44.2843667" lon="8.21318"><ele>746.0</ele><time>2026-04-06T09:27:33.583Z</time></trkpt><trkpt lat="44.2843183" lon="8.21309"><ele>743.0</ele><time>2026-04-06T09:27:35.582Z</time></trkpt><trkpt lat="44.28431" lon="8.212965"><ele>740.0</ele><time>2026-04-06T09:27:37.583Z</time></trkpt><trkpt lat="44.2842933" lon="8.2128317"><ele>737.0</ele><time>2026-04-06T09:27:39.583Z</time></trkpt><trkpt lat="44.284255" lon="8.2127083"><ele>734.0</ele><time>2026-04-06T09:27:41.582Z</time></trkpt><trkpt lat="44.28426" lon="8.21257"><ele>731.0</ele><time>2026-04-06T09:27:43.583Z</time></trkpt><trkpt lat="44.284285" lon="8.21244"><ele>727.1666666666666</ele><time>2026-04-06T09:27:45.582Z</time></trkpt><trkpt lat="44.2842617" lon="8.2123167"><ele>723.3333333333333</ele><time>2026-04-06T09:27:47.583Z</time></trkpt><trkpt lat="44.2842683" lon="8.2122117"><ele>719.5</ele><time>2026-04-06T09:27:49.583Z</time></trkpt><trkpt lat="44.284275" lon="8.2120983"><ele>715.6666666666666</ele><time>2026-04-06T09:27:51.583Z</time></trkpt><trkpt lat="44.2842367" lon="8.2120117"><ele>711.8333333333334</ele><time>2026-04-06T09:27:54.583Z</time></trkpt><trkpt lat="44.2841467" lon="8.211985"><ele>708.0</ele><time>2026-04-06T09:27:57.583Z</time></trkpt><trkpt lat="44.2841783" lon="8.2119067"><ele>708.0</ele><time>2026-04-06T09:28:02.583Z</time></trkpt><trkpt lat="44.2841933" lon="8.2118067"><ele>708.0</ele><time>2026-04-06T09:28:06.583Z</time></trkpt><trkpt lat="44.28414" lon="8.2117483"><ele>708.0</ele><time>2026-04-06T09:28:09.583Z</time></trkpt><trkpt lat="44.2840833" lon="8.2116917"><ele>708.0</ele><time>2026-04-06T09:28:12.583Z</time></trkpt><trkpt lat="44.284025" lon="8.211655"><ele>708.0</ele><time>2026-04-06T09:28:15.583Z</time></trkpt><trkpt lat="44.2840267" lon="8.2115617"><ele>708.0</ele><time>2026-04-06T09:28:19.583Z</time></trkpt><trkpt lat="44.284115" lon="8.211505"><ele>708.0</ele><time>2026-04-06T09:28:22.583Z</time></trkpt><trkpt lat="44.2841417" lon="8.211425"><ele>705.5</ele><time>2026-04-06T09:28:26.583Z</time></trkpt><trkpt lat="44.2840567" lon="8.2114533"><ele>703.0</ele><time>2026-04-06T09:28:29.582Z</time></trkpt><trkpt lat="44.2839867" lon="8.211395"><ele>700.5</ele><time>2026-04-06T09:28:32.583Z</time></trkpt><trkpt lat="44.2840483" lon="8.211345"><ele>698.0</ele><time>2026-04-06T09:28:36.583Z</time></trkpt><trkpt lat="44.2841117" lon="8.2113333"><ele>695.5</ele><time>2026-04-06T09:28:39.582Z</time></trkpt><trkpt lat="44.28418" lon="8.2112617"><ele>693.0</ele><time>2026-04-06T09:28:42.583Z</time></trkpt><trkpt lat="44.28426" lon="8.211265"><ele>693.0</ele><time>2026-04-06T09:28:45.583Z</time></trkpt><trkpt lat="44.28433" lon="8.2112433"><ele>693.0</ele><time>2026-04-06T09:28:47.583Z</time></trkpt><trkpt lat="44.2843917" lon="8.2112183"><ele>693.0</ele><time>2026-04-06T09:28:49.583Z</time></trkpt><trkpt lat="44.2844633" lon="8.211225"><ele>693.0</ele><time>2026-04-06T09:28:51.583Z</time></trkpt><trkpt lat="44.28453" lon="8.2112133"><ele>693.0</ele><time>2026-04-06T09:28:53.582Z</time></trkpt><trkpt lat="44.2845983" lon="8.211195"><ele>693.0</ele><time>2026-04-06T09:28:56.583Z</time></trkpt><trkpt lat="44.2845383" lon="8.2111283"><ele>693.0</ele><time>2026-04-06T09:29:19.582Z</time></trkpt><trkpt lat="44.284445" lon="8.211105"><ele>693.0</ele><time>2026-04-06T09:29:21.583Z</time></trkpt><trkpt lat="44.2843333" lon="8.2110533"><ele>693.0</ele><time>2026-04-06T09:29:23.582Z</time></trkpt><trkpt lat="44.2842417" lon="8.2109933"><ele>693.0</ele><time>2026-04-06T09:29:25.583Z</time></trkpt><trkpt lat="44.28416" lon="8.21096"><ele>693.0</ele><time>2026-04-06T09:29:27.583Z</time></trkpt><trkpt lat="44.2840883" lon="8.2108833"><ele>693.0</ele><time>2026-04-06T09:29:29.583Z</time></trkpt><trkpt lat="44.2840217" lon="8.2107833"><ele>693.0</ele><time>2026-04-06T09:29:31.583Z</time></trkpt><trkpt lat="44.2839617" lon="8.2106633"><ele>693.0</ele><time>2026-04-06T09:29:33.583Z</time></trkpt><trkpt lat="44.2839067" lon="8.210555"><ele>693.0</ele><time>2026-04-06T09:29:35.583Z</time></trkpt><trkpt lat="44.2838583" lon="8.2104317"><ele>693.0</ele><time>2026-04-06T09:29:37.583Z</time></trkpt><trkpt lat="44.28386" lon="8.2103033"><ele>693.0</ele><time>2026-04-06T09:29:39.583Z</time></trkpt><trkpt lat="44.2838833" lon="8.210165"><ele>693.0</ele><time>2026-04-06T09:29:41.583Z</time></trkpt><trkpt lat="44.28391" lon="8.210085"><ele>693.0</ele><time>2026-04-06T09:29:42.582Z</time></trkpt><trkpt lat="44.28394" lon="8.210005"><ele>693.0</ele><time>2026-04-06T09:29:43.583Z</time></trkpt><trkpt lat="44.2839517" lon="8.2098567"><ele>693.0</ele><time>2026-04-06T09:29:45.583Z</time></trkpt><trkpt lat="44.2839383" lon="8.20971"><ele>693.0</ele><time>2026-04-06T09:29:47.583Z</time></trkpt><trkpt lat="44.2839" lon="8.2095733"><ele>693.0</ele><time>2026-04-06T09:29:49.582Z</time></trkpt><trkpt lat="44.2838767" lon="8.2094117"><ele>692.0</ele><time>2026-04-06T09:29:51.583Z</time></trkpt><trkpt lat="44.283855" lon="8.20926"><ele>691.0</ele><time>2026-04-06T09:29:53.582Z</time></trkpt><trkpt lat="44.283825" lon="8.2091017"><ele>690.0</ele><time>2026-04-06T09:29:55.583Z</time></trkpt><trkpt lat="44.2837717" lon="8.20897"><ele>689.0</ele><time>2026-04-06T09:29:57.582Z</time></trkpt><trkpt lat="44.2837233" lon="8.2088583"><ele>688.0</ele><time>2026-04-06T09:29:59.583Z</time></trkpt><trkpt lat="44.28368" lon="8.2087667"><ele>688.2</ele><time>2026-04-06T09:30:01.583Z</time></trkpt><trkpt lat="44.28368" lon="8.2086367"><ele>688.4</ele><time>2026-04-06T09:30:03.583Z</time></trkpt><trkpt lat="44.2837217" lon="8.2085117"><ele>688.6</ele><time>2026-04-06T09:30:05.583Z</time></trkpt><trkpt lat="44.2837283" lon="8.2083933"><ele>688.8000000000001</ele><time>2026-04-06T09:30:07.583Z</time></trkpt><trkpt lat="44.2836867" lon="8.208265"><ele>689.0</ele><time>2026-04-06T09:30:09.583Z</time></trkpt><trkpt lat="44.28365" lon="8.2081483"><ele>689.0</ele><time>2026-04-06T09:30:11.582Z</time></trkpt><trkpt lat="44.283615" lon="8.2080633"><ele>689.0</ele><time>2026-04-06T09:30:13.583Z</time></trkpt><trkpt lat="44.2836117" lon="8.2079567"><ele>689.0</ele><time>2026-04-06T09:30:16.583Z</time></trkpt><trkpt lat="44.28363" lon="8.2078517"><ele>689.0</ele><time>2026-04-06T09:30:19.583Z</time></trkpt><trkpt lat="44.2836367" lon="8.20773"><ele>689.0</ele><time>2026-04-06T09:30:22.584Z</time></trkpt><trkpt lat="44.2836367" lon="8.20762"><ele>689.0</ele><time>2026-04-06T09:30:24.584Z</time></trkpt><trkpt lat="44.2836433" lon="8.2075183"><ele>689.0</ele><time>2026-04-06T09:30:26.584Z</time></trkpt><trkpt lat="44.2836483" lon="8.2074"><ele>689.0</ele><time>2026-04-06T09:30:28.584Z</time></trkpt><trkpt lat="44.2836283" lon="8.207285"><ele>689.0</ele><time>2026-04-06T09:30:30.584Z</time></trkpt><trkpt lat="44.2836133" lon="8.2071583"><ele>689.0</ele><time>2026-04-06T09:30:32.583Z</time></trkpt><trkpt lat="44.2836017" lon="8.2070517"><ele>689.0</ele><time>2026-04-06T09:30:34.584Z</time></trkpt><trkpt lat="44.2835983" lon="8.2069517"><ele>689.0</ele><time>2026-04-06T09:30:36.584Z</time></trkpt><trkpt lat="44.2836017" lon="8.206855"><ele>689.1666666666666</ele><time>2026-04-06T09:30:38.584Z</time></trkpt><trkpt lat="44.2836117" lon="8.20675"><ele>689.3333333333333</ele><time>2026-04-06T09:30:40.584Z</time></trkpt><trkpt lat="44.283625" lon="8.2066333"><ele>689.5</ele><time>2026-04-06T09:30:43.584Z</time></trkpt><trkpt lat="44.2836317" lon="8.206545"><ele>689.6666666666666</ele><time>2026-04-06T09:30:46.584Z</time></trkpt><trkpt lat="44.2836817" lon="8.2063967"><ele>689.8333333333334</ele><time>2026-04-06T09:32:07.584Z</time></trkpt><trkpt lat="44.2836717" lon="8.2062817"><ele>690.0</ele><time>2026-04-06T09:32:09.584Z</time></trkpt><trkpt lat="44.2836683" lon="8.2061567"><ele>690.0</ele><time>2026-04-06T09:32:11.584Z</time></trkpt><trkpt lat="44.2836683" lon="8.20601"><ele>690.0</ele><time>2026-04-06T09:32:13.584Z</time></trkpt><trkpt lat="44.2836567" lon="8.2058783"><ele>690.0</ele><time>2026-04-06T09:32:15.584Z</time></trkpt><trkpt lat="44.28364" lon="8.2057783"><ele>690.0</ele><time>2026-04-06T09:32:17.584Z</time></trkpt><trkpt lat="44.2836133" lon="8.2056683"><ele>690.0</ele><time>2026-04-06T09:32:20.584Z</time></trkpt><trkpt lat="44.2835983" lon="8.20557"><ele>690.0</ele><time>2026-04-06T09:32:23.584Z</time></trkpt><trkpt lat="44.2836017" lon="8.20548"><ele>687.8333333333334</ele><time>2026-04-06T09:32:27.584Z</time></trkpt><trkpt lat="44.2835983" lon="8.2053883"><ele>685.6666666666666</ele><time>2026-04-06T09:32:34.583Z</time></trkpt><trkpt lat="44.28361" lon="8.2052983"><ele>683.5</ele><time>2026-04-06T09:32:51.583Z</time></trkpt><trkpt lat="44.2836233" lon="8.2052"><ele>681.3333333333333</ele><time>2026-04-06T09:32:54.584Z</time></trkpt><trkpt lat="44.2836217" lon="8.2051017"><ele>679.1666666666666</ele><time>2026-04-06T09:32:58.584Z</time></trkpt><trkpt lat="44.2835583" lon="8.2050917"><ele>677.0</ele><time>2026-04-06T09:33:02.583Z</time></trkpt><trkpt lat="44.2834367" lon="8.2050617"><ele>677.0</ele><time>2026-04-06T09:33:49.583Z</time></trkpt><trkpt lat="44.2833733" lon="8.2050717"><ele>677.0</ele><time>2026-04-06T09:34:00.583Z</time></trkpt><trkpt lat="44.2833033" lon="8.20507"><ele>677.0</ele><time>2026-04-06T09:34:06.582Z</time></trkpt><trkpt lat="44.283205" lon="8.2050733"><ele>677.0</ele><time>2026-04-06T09:34:11.584Z</time></trkpt><trkpt lat="44.2831233" lon="8.2050683"><ele>677.0</ele><time>2026-04-06T09:34:14.583Z</time></trkpt><trkpt lat="44.2830367" lon="8.205075"><ele>677.0</ele><time>2026-04-06T09:34:19.583Z</time></trkpt><trkpt lat="44.28296" lon="8.2051033"><ele>678.5714285714286</ele><time>2026-04-06T09:34:23.583Z</time></trkpt><trkpt lat="44.2828983" lon="8.205125"><ele>680.1428571428571</ele><time>2026-04-06T09:34:26.583Z</time></trkpt><trkpt lat="44.2828283" lon="8.20511"><ele>681.7142857142858</ele><time>2026-04-06T09:34:30.583Z</time></trkpt><trkpt lat="44.282755" lon="8.2050867"><ele>683.2857142857142</ele><time>2026-04-06T09:34:35.583Z</time></trkpt><trkpt lat="44.2826917" lon="8.2050867"><ele>684.8571428571429</ele><time>2026-04-06T09:34:39.583Z</time></trkpt><trkpt lat="44.2826367" lon="8.20513"><ele>686.4285714285714</ele><time>2026-04-06T09:34:43.582Z</time></trkpt><trkpt lat="44.28255" lon="8.205165"><ele>688.0</ele><time>2026-04-06T09:34:49.583Z</time></trkpt><trkpt lat="44.2824867" lon="8.2051983"><ele>688.0</ele><time>2026-04-06T09:34:53.583Z</time></trkpt><trkpt lat="44.2824217" lon="8.2052233"><ele>688.0</ele><time>2026-04-06T09:34:57.583Z</time></trkpt><trkpt lat="44.2823467" lon="8.2052383"><ele>688.0</ele><time>2026-04-06T09:35:01.583Z</time></trkpt><trkpt lat="44.28229" lon="8.2052783"><ele>688.0</ele><time>2026-04-06T09:35:04.583Z</time></trkpt><trkpt lat="44.2822367" lon="8.205365"><ele>688.0</ele><time>2026-04-06T09:35:07.583Z</time></trkpt><trkpt lat="44.2822117" lon="8.2054933"><ele>688.0</ele><time>2026-04-06T09:35:10.583Z</time></trkpt><trkpt lat="44.2821817" lon="8.205595"><ele>690.0</ele><time>2026-04-06T09:35:12.583Z</time></trkpt><trkpt lat="44.282165" lon="8.2057067"><ele>692.0</ele><time>2026-04-06T09:35:15.583Z</time></trkpt><trkpt lat="44.2821283" lon="8.2058"><ele>694.0</ele><time>2026-04-06T09:35:18.582Z</time></trkpt><trkpt lat="44.2820933" lon="8.2059017"><ele>696.0</ele><time>2026-04-06T09:35:21.583Z</time></trkpt><trkpt lat="44.2820417" lon="8.2060183"><ele>698.0</ele><time>2026-04-06T09:35:24.583Z</time></trkpt><trkpt lat="44.2819983" lon="8.2061067"><ele>700.0</ele><time>2026-04-06T09:35:26.583Z</time></trkpt><trkpt lat="44.28195" lon="8.2062033"><ele>700.0</ele><time>2026-04-06T09:35:29.583Z</time></trkpt><trkpt lat="44.28191" lon="8.2063183"><ele>700.0</ele><time>2026-04-06T09:35:32.583Z</time></trkpt><trkpt lat="44.28188" lon="8.206415"><ele>700.0</ele><time>2026-04-06T09:35:35.583Z</time></trkpt><trkpt lat="44.2818517" lon="8.206505"><ele>700.0</ele><time>2026-04-06T09:35:38.583Z</time></trkpt><trkpt lat="44.2818" lon="8.2065833"><ele>700.0</ele><time>2026-04-06T09:35:41.583Z</time></trkpt><trkpt lat="44.2817467" lon="8.2066417"><ele>700.0</ele><time>2026-04-06T09:35:43.583Z</time></trkpt><trkpt lat="44.2817" lon="8.2067367"><ele>699.6666666666667</ele><time>2026-04-06T09:35:46.583Z</time></trkpt><trkpt lat="44.2816533" lon="8.206815"><ele>699.3333333333334</ele><time>2026-04-06T09:35:49.583Z</time></trkpt><trkpt lat="44.281565" lon="8.2069167"><ele>699.0</ele><time>2026-04-06T09:35:52.583Z</time></trkpt><trkpt lat="44.2814883" lon="8.2069683"><ele>698.6666666666666</ele><time>2026-04-06T09:35:55.583Z</time></trkpt><trkpt lat="44.2814117" lon="8.2069933"><ele>698.3333333333333</ele><time>2026-04-06T09:35:57.583Z</time></trkpt><trkpt lat="44.2813483" lon="8.2070183"><ele>698.0</ele><time>2026-04-06T09:35:59.583Z</time></trkpt><trkpt lat="44.2812933" lon="8.20707"><ele>698.0</ele><time>2026-04-06T09:36:01.582Z</time></trkpt><trkpt lat="44.2812417" lon="8.2071267"><ele>698.0</ele><time>2026-04-06T09:36:03.583Z</time></trkpt><trkpt lat="44.2811967" lon="8.2071967"><ele>698.0</ele><time>2026-04-06T09:36:05.583Z</time></trkpt><trkpt lat="44.2811233" lon="8.2073"><ele>698.0</ele><time>2026-04-06T09:36:08.583Z</time></trkpt><trkpt lat="44.2810683" lon="8.2073667"><ele>698.0</ele><time>2026-04-06T09:36:11.583Z</time></trkpt><trkpt lat="44.2810067" lon="8.20744"><ele>698.0</ele><time>2026-04-06T09:36:14.582Z</time></trkpt><trkpt lat="44.28098" lon="8.2075467"><ele>700.4285714285713</ele><time>2026-04-06T09:36:17.583Z</time></trkpt><trkpt lat="44.2810017" lon="8.20766"><ele>702.8571428571429</ele><time>2026-04-06T09:36:20.583Z</time></trkpt><trkpt lat="44.281005" lon="8.2077533"><ele>705.2857142857142</ele><time>2026-04-06T09:36:23.583Z</time></trkpt><trkpt lat="44.2809717" lon="8.2078617"><ele>707.7142857142857</ele><time>2026-04-06T09:36:26.583Z</time></trkpt><trkpt lat="44.2809067" lon="8.20793"><ele>710.1428571428571</ele><time>2026-04-06T09:36:28.583Z</time></trkpt><trkpt lat="44.2808517" lon="8.207985"><ele>712.5714285714286</ele><time>2026-04-06T09:36:30.583Z</time></trkpt><trkpt lat="44.2808067" lon="8.2080467"><ele>715.0</ele><time>2026-04-06T09:36:32.583Z</time></trkpt><trkpt lat="44.2807433" lon="8.2081067"><ele>715.3333333333334</ele><time>2026-04-06T09:36:35.583Z</time></trkpt><trkpt lat="44.2806867" lon="8.2081617"><ele>715.6666666666667</ele><time>2026-04-06T09:36:38.583Z</time></trkpt><trkpt lat="44.28063" lon="8.208215"><ele>716.0</ele><time>2026-04-06T09:36:41.583Z</time></trkpt><trkpt lat="44.2805683" lon="8.20829"><ele>716.3333333333334</ele><time>2026-04-06T09:36:45.583Z</time></trkpt><trkpt lat="44.2805" lon="8.208375"><ele>716.6666666666666</ele><time>2026-04-06T09:36:49.583Z</time></trkpt><trkpt lat="44.280455" lon="8.208455"><ele>717.0</ele><time>2026-04-06T09:36:52.583Z</time></trkpt><trkpt lat="44.2804083" lon="8.20858"><ele>717.0</ele><time>2026-04-06T09:36:55.583Z</time></trkpt><trkpt lat="44.2803867" lon="8.208685"><ele>717.0</ele><time>2026-04-06T09:36:57.583Z</time></trkpt><trkpt lat="44.2803567" lon="8.20877"><ele>717.0</ele><time>2026-04-06T09:36:59.583Z</time></trkpt><trkpt lat="44.2803217" lon="8.2088567"><ele>717.0</ele><time>2026-04-06T09:37:01.583Z</time></trkpt><trkpt lat="44.280295" lon="8.2089483"><ele>717.0</ele><time>2026-04-06T09:37:03.583Z</time></trkpt><trkpt lat="44.2802533" lon="8.209035"><ele>717.0</ele><time>2026-04-06T09:37:05.583Z</time></trkpt><trkpt lat="44.280195" lon="8.209135"><ele>719.6</ele><time>2026-04-06T09:37:07.583Z</time></trkpt><trkpt lat="44.28014" lon="8.20924"><ele>722.2</ele><time>2026-04-06T09:37:09.583Z</time></trkpt><trkpt lat="44.2800533" lon="8.209385"><ele>724.8</ele><time>2026-04-06T09:37:11.582Z</time></trkpt><trkpt lat="44.27998" lon="8.20945"><ele>727.4</ele><time>2026-04-06T09:37:13.583Z</time></trkpt><trkpt lat="44.2798917" lon="8.2094683"><ele>730.0</ele><time>2026-04-06T09:37:15.583Z</time></trkpt><trkpt lat="44.27983" lon="8.2094433"><ele>731.6666666666667</ele><time>2026-04-06T09:37:17.583Z</time></trkpt><trkpt lat="44.2797483" lon="8.2094383"><ele>733.3333333333334</ele><time>2026-04-06T09:37:19.583Z</time></trkpt><trkpt lat="44.2796633" lon="8.209425"><ele>735.0</ele><time>2026-04-06T09:37:21.583Z</time></trkpt><trkpt lat="44.2796017" lon="8.2093733"><ele>736.6666666666666</ele><time>2026-04-06T09:37:23.583Z</time></trkpt><trkpt lat="44.2795433" lon="8.20931"><ele>738.3333333333333</ele><time>2026-04-06T09:37:25.583Z</time></trkpt><trkpt lat="44.279495" lon="8.2092483"><ele>740.0</ele><time>2026-04-06T09:37:27.582Z</time></trkpt><trkpt lat="44.2794367" lon="8.2091483"><ele>740.0</ele><time>2026-04-06T09:37:30.583Z</time></trkpt><trkpt lat="44.2793917" lon="8.209075"><ele>740.0</ele><time>2026-04-06T09:37:32.583Z</time></trkpt><trkpt lat="44.279345" lon="8.2090133"><ele>740.0</ele><time>2026-04-06T09:37:34.583Z</time></trkpt><trkpt lat="44.2792117" lon="8.20895"><ele>740.0</ele><time>2026-04-06T09:37:39.583Z</time></trkpt><trkpt lat="44.2791467" lon="8.2089367"><ele>740.0</ele><time>2026-04-06T09:37:41.582Z</time></trkpt><trkpt lat="44.279055" lon="8.20893"><ele>740.0</ele><time>2026-04-06T09:37:44.583Z</time></trkpt><trkpt lat="44.2789917" lon="8.2089283"><ele>741.1666666666666</ele><time>2026-04-06T09:37:46.582Z</time></trkpt><trkpt lat="44.2789217" lon="8.2088817"><ele>742.3333333333333</ele><time>2026-04-06T09:37:49.583Z</time></trkpt><trkpt lat="44.278845" lon="8.2088333"><ele>743.5</ele><time>2026-04-06T09:37:52.583Z</time></trkpt><trkpt lat="44.2787733" lon="8.2087733"><ele>744.6666666666666</ele><time>2026-04-06T09:37:55.583Z</time></trkpt><trkpt lat="44.2787017" lon="8.2087217"><ele>745.8333333333334</ele><time>2026-04-06T09:37:58.583Z</time></trkpt><trkpt lat="44.27863" lon="8.20866"><ele>747.0</ele><time>2026-04-06T09:38:01.583Z</time></trkpt><trkpt lat="44.2785617" lon="8.208605"><ele>747.0</ele><time>2026-04-06T09:38:04.582Z</time></trkpt><trkpt lat="44.2784883" lon="8.2085533"><ele>747.0</ele><time>2026-04-06T09:38:07.582Z</time></trkpt><trkpt lat="44.2784067" lon="8.2085"><ele>747.0</ele><time>2026-04-06T09:38:10.583Z</time></trkpt><trkpt lat="44.2783333" lon="8.208445"><ele>747.0</ele><time>2026-04-06T09:38:13.583Z</time></trkpt><trkpt lat="44.27826" lon="8.2084033"><ele>747.0</ele><time>2026-04-06T09:38:16.583Z</time></trkpt><trkpt lat="44.2781783" lon="8.2083883"><ele>747.0</ele><time>2026-04-06T09:38:19.583Z</time></trkpt><trkpt lat="44.2780917" lon="8.2083817"><ele>747.5714285714286</ele><time>2026-04-06T09:38:22.583Z</time></trkpt><trkpt lat="44.2780167" lon="8.208375"><ele>748.1428571428571</ele><time>2026-04-06T09:38:25.583Z</time></trkpt><trkpt lat="44.2779483" lon="8.2083333"><ele>748.7142857142858</ele><time>2026-04-06T09:38:27.582Z</time></trkpt><trkpt lat="44.2778817" lon="8.208365"><ele>749.2857142857142</ele><time>2026-04-06T09:38:32.583Z</time></trkpt><trkpt lat="44.277865" lon="8.2084567"><ele>749.8571428571429</ele><time>2026-04-06T09:38:35.583Z</time></trkpt><trkpt lat="44.2778833" lon="8.2085483"><ele>750.4285714285714</ele><time>2026-04-06T09:38:39.583Z</time></trkpt><trkpt lat="44.277935" lon="8.2086333"><ele>751.0</ele><time>2026-04-06T09:38:43.583Z</time></trkpt><trkpt lat="44.27798" lon="8.2087017"><ele>751.0000000000001</ele><time>2026-04-06T09:38:46.583Z</time></trkpt><trkpt lat="44.2780317" lon="8.2087767"><ele>751.0</ele><time>2026-04-06T09:38:49.583Z</time></trkpt><trkpt lat="44.2780983" lon="8.2088567"><ele>751.0</ele><time>2026-04-06T09:38:52.583Z</time></trkpt><trkpt lat="44.27815" lon="8.20891"><ele>751.0</ele><time>2026-04-06T09:38:54.583Z</time></trkpt><trkpt lat="44.2781867" lon="8.2089817"><ele>751.0</ele><time>2026-04-06T09:38:56.583Z</time></trkpt><trkpt lat="44.27823" lon="8.2090583"><ele>751.0000000000001</ele><time>2026-04-06T09:38:58.583Z</time></trkpt><trkpt lat="44.27827" lon="8.2091333"><ele>751.0</ele><time>2026-04-06T09:39:00.583Z</time></trkpt><trkpt lat="44.27832" lon="8.20924"><ele>752.8571428571429</ele><time>2026-04-06T09:39:03.582Z</time></trkpt><trkpt lat="44.2783667" lon="8.2093033"><ele>754.7142857142858</ele><time>2026-04-06T09:39:05.583Z</time></trkpt><trkpt lat="44.278425" lon="8.2093817"><ele>756.5714285714287</ele><time>2026-04-06T09:39:08.583Z</time></trkpt><trkpt lat="44.2784617" lon="8.2094767"><ele>758.4285714285714</ele><time>2026-04-06T09:39:11.583Z</time></trkpt><trkpt lat="44.278445" lon="8.2095833"><ele>760.2857142857142</ele><time>2026-04-06T09:39:15.583Z</time></trkpt><trkpt lat="44.2783733" lon="8.2095783"><ele>762.1428571428572</ele><time>2026-04-06T09:39:21.583Z</time></trkpt><trkpt lat="44.2783217" lon="8.2095267"><ele>764.0</ele><time>2026-04-06T09:39:26.583Z</time></trkpt><trkpt lat="44.2782617" lon="8.209485"><ele>764.0</ele><time>2026-04-06T09:39:29.583Z</time></trkpt><trkpt lat="44.2781883" lon="8.20944"><ele>764.0</ele><time>2026-04-06T09:39:33.584Z</time></trkpt><trkpt lat="44.2781183" lon="8.2093967"><ele>764.0</ele><time>2026-04-06T09:39:36.584Z</time></trkpt><trkpt lat="44.2780533" lon="8.2093367"><ele>764.0</ele><time>2026-04-06T09:39:40.583Z</time></trkpt><trkpt lat="44.2779783" lon="8.2093083"><ele>764.0</ele><time>2026-04-06T09:39:44.583Z</time></trkpt><trkpt lat="44.2779083" lon="8.209265"><ele>764.0</ele><time>2026-04-06T09:39:47.584Z</time></trkpt><trkpt lat="44.277815" lon="8.2092383"><ele>766.0</ele><time>2026-04-06T09:39:50.584Z</time></trkpt><trkpt lat="44.2777433" lon="8.2092417"><ele>768.0</ele><time>2026-04-06T09:39:52.584Z</time></trkpt><trkpt lat="44.277665" lon="8.2092467"><ele>770.0</ele><time>2026-04-06T09:39:55.584Z</time></trkpt><trkpt lat="44.2775783" lon="8.209255"><ele>772.0</ele><time>2026-04-06T09:39:58.584Z</time></trkpt><trkpt lat="44.2774867" lon="8.2092567"><ele>774.0000000000001</ele><time>2026-04-06T09:40:01.584Z</time></trkpt><trkpt lat="44.2774117" lon="8.2092667"><ele>776.0</ele><time>2026-04-06T09:40:04.584Z</time></trkpt><trkpt lat="44.277345" lon="8.20929"><ele>776.6666666666667</ele><time>2026-04-06T09:40:07.584Z</time></trkpt><trkpt lat="44.2772667" lon="8.209315"><ele>777.3333333333334</ele><time>2026-04-06T09:40:10.584Z</time></trkpt><trkpt lat="44.2771883" lon="8.2093583"><ele>778.0</ele><time>2026-04-06T09:40:13.584Z</time></trkpt><trkpt lat="44.2771033" lon="8.2093967"><ele>778.6666666666667</ele><time>2026-04-06T09:40:16.584Z</time></trkpt><trkpt lat="44.2770417" lon="8.2094267"><ele>779.3333333333334</ele><time>2026-04-06T09:40:18.584Z</time></trkpt><trkpt lat="44.27696" lon="8.2094733"><ele>780.0</ele><time>2026-04-06T09:40:21.584Z</time></trkpt><trkpt lat="44.2768767" lon="8.2095217"><ele>780.0</ele><time>2026-04-06T09:40:24.584Z</time></trkpt><trkpt lat="44.2767983" lon="8.209575"><ele>780.0</ele><time>2026-04-06T09:40:27.584Z</time></trkpt><trkpt lat="44.2767467" lon="8.2096433"><ele>780.0</ele><time>2026-04-06T09:40:29.583Z</time></trkpt><trkpt lat="44.2766917" lon="8.2097167"><ele>780.0</ele><time>2026-04-06T09:40:31.583Z</time></trkpt><trkpt lat="44.27664" lon="8.209785"><ele>780.0</ele><time>2026-04-06T09:40:32.583Z</time></trkpt><trkpt lat="44.276585" lon="8.20989"><ele>780.0</ele><time>2026-04-06T09:40:34.584Z</time></trkpt><trkpt lat="44.2765017" lon="8.21001"><ele>779.4</ele><time>2026-04-06T09:40:36.584Z</time></trkpt><trkpt lat="44.2764583" lon="8.2101333"><ele>778.8</ele><time>2026-04-06T09:40:38.584Z</time></trkpt><trkpt lat="44.2764567" lon="8.2102267"><ele>778.2</ele><time>2026-04-06T09:40:40.584Z</time></trkpt><trkpt lat="44.2764433" lon="8.21033"><ele>777.6</ele><time>2026-04-06T09:40:42.584Z</time></trkpt><trkpt lat="44.2764" lon="8.2104667"><ele>777.0</ele><time>2026-04-06T09:40:44.584Z</time></trkpt><trkpt lat="44.2763517" lon="8.2106167"><ele>778.2</ele><time>2026-04-06T09:40:46.583Z</time></trkpt><trkpt lat="44.2763083" lon="8.2107633"><ele>779.4000000000001</ele><time>2026-04-06T09:40:48.584Z</time></trkpt><trkpt lat="44.27627" lon="8.2109033"><ele>780.5999999999999</ele><time>2026-04-06T09:40:50.584Z</time></trkpt><trkpt lat="44.276235" lon="8.2110383"><ele>781.8</ele><time>2026-04-06T09:40:52.583Z</time></trkpt><trkpt lat="44.27619" lon="8.211175"><ele>783.0</ele><time>2026-04-06T09:40:54.584Z</time></trkpt><trkpt lat="44.2761633" lon="8.2112567"><ele>783.0</ele><time>2026-04-06T09:40:55.584Z</time></trkpt><trkpt lat="44.27613" lon="8.21135"><ele>783.0</ele><time>2026-04-06T09:40:56.584Z</time></trkpt><trkpt lat="44.2760933" lon="8.2114417"><ele>783.0</ele><time>2026-04-06T09:40:57.584Z</time></trkpt><trkpt lat="44.2760667" lon="8.21153"><ele>783.0</ele><time>2026-04-06T09:40:58.584Z</time></trkpt><trkpt lat="44.27602" lon="8.21166"><ele>783.0</ele><time>2026-04-06T09:41:00.584Z</time></trkpt><trkpt lat="44.275965" lon="8.2117617"><ele>783.0</ele><time>2026-04-06T09:41:02.584Z</time></trkpt><trkpt lat="44.275915" lon="8.211845"><ele>782.0</ele><time>2026-04-06T09:41:04.584Z</time></trkpt><trkpt lat="44.2758367" lon="8.211905"><ele>781.0</ele><time>2026-04-06T09:41:06.584Z</time></trkpt><trkpt lat="44.2757533" lon="8.2119567"><ele>780.0</ele><time>2026-04-06T09:41:08.584Z</time></trkpt><trkpt lat="44.2756767" lon="8.2120167"><ele>779.0</ele><time>2026-04-06T09:41:10.584Z</time></trkpt><trkpt lat="44.2756" lon="8.21207"><ele>778.0</ele><time>2026-04-06T09:41:12.584Z</time></trkpt><trkpt lat="44.2755133" lon="8.2121"><ele>777.0</ele><time>2026-04-06T09:41:14.584Z</time></trkpt><trkpt lat="44.275425" lon="8.2121217"><ele>777.0</ele><time>2026-04-06T09:41:16.584Z</time></trkpt><trkpt lat="44.275335" lon="8.2121383"><ele>777.0</ele><time>2026-04-06T09:41:18.583Z</time></trkpt><trkpt lat="44.27525" lon="8.212175"><ele>777.0</ele><time>2026-04-06T09:41:20.584Z</time></trkpt><trkpt lat="44.27515" lon="8.2121967"><ele>777.0</ele><time>2026-04-06T09:41:22.584Z</time></trkpt><trkpt lat="44.2750483" lon="8.212215"><ele>777.0</ele><time>2026-04-06T09:41:24.583Z</time></trkpt><trkpt lat="44.2749383" lon="8.2122417"><ele>777.0</ele><time>2026-04-06T09:41:26.584Z</time></trkpt><trkpt lat="44.274835" lon="8.212255"><ele>777.0</ele><time>2026-04-06T09:41:28.584Z</time></trkpt><trkpt lat="44.2747433" lon="8.2122783"><ele>777.0</ele><time>2026-04-06T09:41:30.583Z</time></trkpt><trkpt lat="44.27466" lon="8.212295"><ele>777.0</ele><time>2026-04-06T09:41:32.583Z</time></trkpt><trkpt lat="44.27458" lon="8.2122967"><ele>777.0</ele><time>2026-04-06T09:41:34.584Z</time></trkpt><trkpt lat="44.2745" lon="8.212305"><ele>777.0</ele><time>2026-04-06T09:41:36.584Z</time></trkpt><trkpt lat="44.27441" lon="8.2123"><ele>777.3333333333334</ele><time>2026-04-06T09:41:38.584Z</time></trkpt><trkpt lat="44.274325" lon="8.2122833"><ele>777.6666666666667</ele><time>2026-04-06T09:41:40.583Z</time></trkpt><trkpt lat="44.274245" lon="8.2122883"><ele>778.0</ele><time>2026-04-06T09:41:42.584Z</time></trkpt><trkpt lat="44.274165" lon="8.2122917"><ele>778.3333333333334</ele><time>2026-04-06T09:41:44.584Z</time></trkpt><trkpt lat="44.2740767" lon="8.2122917"><ele>778.6666666666667</ele><time>2026-04-06T09:41:46.584Z</time></trkpt><trkpt lat="44.273995" lon="8.2122867"><ele>779.0</ele><time>2026-04-06T09:41:48.584Z</time></trkpt><trkpt lat="44.2739233" lon="8.2122883"><ele>780.4285714285714</ele><time>2026-04-06T09:41:50.584Z</time></trkpt><trkpt lat="44.2738467" lon="8.2123067"><ele>781.8571428571429</ele><time>2026-04-06T09:41:53.584Z</time></trkpt><trkpt lat="44.2738733" lon="8.2123983"><ele>783.2857142857142</ele><time>2026-04-06T09:41:59.584Z</time></trkpt><trkpt lat="44.2739417" lon="8.212455"><ele>784.7142857142858</ele><time>2026-04-06T09:42:03.584Z</time></trkpt><trkpt lat="44.273995" lon="8.2125167"><ele>786.1428571428571</ele><time>2026-04-06T09:42:06.584Z</time></trkpt><trkpt lat="44.2740533" lon="8.212555"><ele>787.5714285714286</ele><time>2026-04-06T09:42:09.583Z</time></trkpt><trkpt lat="44.2741217" lon="8.2126133"><ele>789.0</ele><time>2026-04-06T09:42:14.584Z</time></trkpt><trkpt lat="44.27418" lon="8.2126767"><ele>790.1666666666666</ele><time>2026-04-06T09:42:17.584Z</time></trkpt><trkpt lat="44.2742417" lon="8.212725"><ele>791.3333333333333</ele><time>2026-04-06T09:42:20.584Z</time></trkpt><trkpt lat="44.2743167" lon="8.212765"><ele>792.5</ele><time>2026-04-06T09:42:23.584Z</time></trkpt><trkpt lat="44.274375" lon="8.21281"><ele>793.6666666666666</ele><time>2026-04-06T09:42:25.584Z</time></trkpt><trkpt lat="44.2744667" lon="8.21285"><ele>794.8333333333333</ele><time>2026-04-06T09:42:28.583Z</time></trkpt><trkpt lat="44.2745383" lon="8.21287"><ele>796.0</ele><time>2026-04-06T09:42:31.584Z</time></trkpt><trkpt lat="44.2746217" lon="8.2129167"><ele>795.9999999999999</ele><time>2026-04-06T09:42:34.584Z</time></trkpt><trkpt lat="44.2747083" lon="8.2129567"><ele>796.0</ele><time>2026-04-06T09:42:37.584Z</time></trkpt><trkpt lat="44.2748" lon="8.21298"><ele>796.0</ele><time>2026-04-06T09:42:40.583Z</time></trkpt><trkpt lat="44.2748867" lon="8.2130033"><ele>796.0</ele><time>2026-04-06T09:42:43.584Z</time></trkpt><trkpt lat="44.2749667" lon="8.21302"><ele>795.9999999999999</ele><time>2026-04-06T09:42:46.584Z</time></trkpt><trkpt lat="44.2750433" lon="8.2130567"><ele>796.0</ele><time>2026-04-06T09:42:49.584Z</time></trkpt><trkpt lat="44.2751183" lon="8.2130933"><ele>796.8571428571428</ele><time>2026-04-06T09:42:52.584Z</time></trkpt><trkpt lat="44.2751967" lon="8.213145"><ele>797.7142857142857</ele><time>2026-04-06T09:42:55.584Z</time></trkpt><trkpt lat="44.2752533" lon="8.2131883"><ele>798.5714285714286</ele><time>2026-04-06T09:42:57.584Z</time></trkpt><trkpt lat="44.2753417" lon="8.21322"><ele>799.4285714285713</ele><time>2026-04-06T09:43:00.583Z</time></trkpt><trkpt lat="44.2754033" lon="8.213245"><ele>800.2857142857143</ele><time>2026-04-06T09:43:02.584Z</time></trkpt><trkpt lat="44.2754683" lon="8.2132717"><ele>801.1428571428571</ele><time>2026-04-06T09:43:04.583Z</time></trkpt><trkpt lat="44.2755267" lon="8.2133083"><ele>802.0</ele><time>2026-04-06T09:43:06.584Z</time></trkpt><trkpt lat="44.2755867" lon="8.2133517"><ele>806.6666666666666</ele><time>2026-04-06T09:43:08.583Z</time></trkpt><trkpt lat="44.2756717" lon="8.21341"><ele>811.3333333333333</ele><time>2026-04-06T09:43:11.582Z</time></trkpt><trkpt lat="44.2757317" lon="8.21344"><ele>816.0</ele><time>2026-04-06T09:43:13.582Z</time></trkpt><trkpt lat="44.2757983" lon="8.21345"><ele>820.6666666666667</ele><time>2026-04-06T09:43:15.583Z</time></trkpt><trkpt lat="44.2758633" lon="8.2134467"><ele>825.3333333333334</ele><time>2026-04-06T09:43:17.583Z</time></trkpt><trkpt lat="44.2759433" lon="8.213435"><ele>830.0</ele><time>2026-04-06T09:43:20.583Z</time></trkpt><trkpt lat="44.2760217" lon="8.213415"><ele>830.0</ele><time>2026-04-06T09:43:23.583Z</time></trkpt><trkpt lat="44.2760917" lon="8.2133917"><ele>830.0</ele><time>2026-04-06T09:43:26.583Z</time></trkpt><trkpt lat="44.2761517" lon="8.2133583"><ele>830.0</ele><time>2026-04-06T09:43:29.583Z</time></trkpt><trkpt lat="44.2762217" lon="8.2133017"><ele>830.0</ele><time>2026-04-06T09:43:32.583Z</time></trkpt><trkpt lat="44.2762967" lon="8.2132633"><ele>830.0</ele><time>2026-04-06T09:43:35.582Z</time></trkpt><trkpt lat="44.2763533" lon="8.21322"><ele>830.0</ele><time>2026-04-06T09:43:37.583Z</time></trkpt><trkpt lat="44.2764267" lon="8.2131617"><ele>830.0</ele><time>2026-04-06T09:43:40.583Z</time></trkpt><trkpt lat="44.2765083" lon="8.21311"><ele>830.8333333333334</ele><time>2026-04-06T09:43:43.582Z</time></trkpt><trkpt lat="44.27659" lon="8.21305"><ele>831.6666666666667</ele><time>2026-04-06T09:43:46.583Z</time></trkpt><trkpt lat="44.276665" lon="8.2129917"><ele>832.5</ele><time>2026-04-06T09:43:49.583Z</time></trkpt><trkpt lat="44.2767333" lon="8.21295"><ele>833.3333333333333</ele><time>2026-04-06T09:43:52.583Z</time></trkpt><trkpt lat="44.27682" lon="8.21292"><ele>834.1666666666666</ele><time>2026-04-06T09:43:55.583Z</time></trkpt><trkpt lat="44.2769017" lon="8.212875"><ele>835.0</ele><time>2026-04-06T09:43:58.582Z</time></trkpt><trkpt lat="44.27697" lon="8.2128183"><ele>835.0000000000001</ele><time>2026-04-06T09:44:01.583Z</time></trkpt><trkpt lat="44.27704" lon="8.2127783"><ele>835.0</ele><time>2026-04-06T09:44:04.583Z</time></trkpt><trkpt lat="44.2771083" lon="8.2127517"><ele>835.0</ele><time>2026-04-06T09:44:07.583Z</time></trkpt><trkpt lat="44.2771683" lon="8.2127183"><ele>835.0</ele><time>2026-04-06T09:44:10.583Z</time></trkpt><trkpt lat="44.2772233" lon="8.2126717"><ele>835.0</ele><time>2026-04-06T09:44:13.583Z</time></trkpt><trkpt lat="44.2772733" lon="8.2126167"><ele>835.0000000000001</ele><time>2026-04-06T09:44:16.582Z</time></trkpt><trkpt lat="44.2773283" lon="8.21255"><ele>835.0</ele><time>2026-04-06T09:44:20.583Z</time></trkpt><trkpt lat="44.27742" lon="8.212505"><ele>838.6</ele><time>2026-04-06T09:47:42.583Z</time></trkpt><trkpt lat="44.2774967" lon="8.21242"><ele>842.2</ele><time>2026-04-06T09:47:45.583Z</time></trkpt><trkpt lat="44.2775767" lon="8.2123933"><ele>845.8</ele><time>2026-04-06T09:47:47.583Z</time></trkpt><trkpt lat="44.2776583" lon="8.2124067"><ele>849.4</ele><time>2026-04-06T09:47:49.583Z</time></trkpt><trkpt lat="44.2777617" lon="8.2124467"><ele>853.0</ele><time>2026-04-06T09:47:51.583Z</time></trkpt><trkpt lat="44.27788" lon="8.2124983"><ele>852.9999999999999</ele><time>2026-04-06T09:47:53.583Z</time></trkpt><trkpt lat="44.277945" lon="8.21254"><ele>853.0</ele><time>2026-04-06T09:47:54.583Z</time></trkpt><trkpt lat="44.278" lon="8.2125867"><ele>853.0</ele><time>2026-04-06T09:47:55.583Z</time></trkpt><trkpt lat="44.2780883" lon="8.2126383"><ele>853.0</ele><time>2026-04-06T09:47:57.582Z</time></trkpt><trkpt lat="44.2781733" lon="8.21263"><ele>852.9999999999999</ele><time>2026-04-06T09:47:59.583Z</time></trkpt><trkpt lat="44.27829" lon="8.2125983"><ele>853.0</ele><time>2026-04-06T09:48:01.583Z</time></trkpt><trkpt lat="44.2784267" lon="8.2125867"><ele>851.9999999999999</ele><time>2026-04-06T09:48:03.583Z</time></trkpt><trkpt lat="44.2784967" lon="8.212575"><ele>851.0</ele><time>2026-04-06T09:48:04.583Z</time></trkpt><trkpt lat="44.2785633" lon="8.2125533"><ele>850.0</ele><time>2026-04-06T09:48:05.583Z</time></trkpt><trkpt lat="44.278635" lon="8.2125283"><ele>849.0</ele><time>2026-04-06T09:48:06.583Z</time></trkpt><trkpt lat="44.2787117" lon="8.2125033"><ele>847.9999999999999</ele><time>2026-04-06T09:48:07.583Z</time></trkpt><trkpt lat="44.278795" lon="8.2124917"><ele>847.0</ele><time>2026-04-06T09:48:08.583Z</time></trkpt><trkpt lat="44.2788767" lon="8.2124767"><ele>844.6666666666666</ele><time>2026-04-06T09:48:09.583Z</time></trkpt><trkpt lat="44.2789517" lon="8.2124717"><ele>842.3333333333333</ele><time>2026-04-06T09:48:10.582Z</time></trkpt><trkpt lat="44.2790267" lon="8.212465"><ele>840.0</ele><time>2026-04-06T09:48:11.583Z</time></trkpt><trkpt lat="44.2790917" lon="8.212475"><ele>837.6666666666667</ele><time>2026-04-06T09:48:12.583Z</time></trkpt><trkpt lat="44.2792117" lon="8.2124667"><ele>835.3333333333334</ele><time>2026-04-06T09:48:14.583Z</time></trkpt><trkpt lat="44.279305" lon="8.2125033"><ele>833.0</ele><time>2026-04-06T09:48:16.583Z</time></trkpt><trkpt lat="44.2793283" lon="8.2126367"><ele>833.0</ele><time>2026-04-06T09:48:18.583Z</time></trkpt><trkpt lat="44.279345" lon="8.212795"><ele>833.0</ele><time>2026-04-06T09:48:20.583Z</time></trkpt><trkpt lat="44.2793633" lon="8.2129117"><ele>833.0</ele><time>2026-04-06T09:48:22.583Z</time></trkpt><trkpt lat="44.27939" lon="8.2129917"><ele>833.0</ele><time>2026-04-06T09:48:24.582Z</time></trkpt><trkpt lat="44.279435" lon="8.213085"><ele>833.0</ele><time>2026-04-06T09:48:26.583Z</time></trkpt><trkpt lat="44.2795183" lon="8.2131967"><ele>836.0</ele><time>2026-04-06T09:48:28.583Z</time></trkpt><trkpt lat="44.2796067" lon="8.2132967"><ele>839.0</ele><time>2026-04-06T09:48:30.583Z</time></trkpt><trkpt lat="44.2796933" lon="8.2132983"><ele>842.0</ele><time>2026-04-06T09:48:32.583Z</time></trkpt><trkpt lat="44.279785" lon="8.213305"><ele>845.0</ele><time>2026-04-06T09:48:34.582Z</time></trkpt><trkpt lat="44.27989" lon="8.2133717"><ele>848.0</ele><time>2026-04-06T09:48:36.582Z</time></trkpt><trkpt lat="44.2799783" lon="8.2134333"><ele>842.0</ele><time>2026-04-06T09:48:38.583Z</time></trkpt><trkpt lat="44.280065" lon="8.2134817"><ele>836.0</ele><time>2026-04-06T09:48:40.583Z</time></trkpt><trkpt lat="44.2801567" lon="8.2135367"><ele>830.0</ele><time>2026-04-06T09:48:42.583Z</time></trkpt><trkpt lat="44.2802617" lon="8.2135633"><ele>824.0</ele><time>2026-04-06T09:48:44.583Z</time></trkpt><trkpt lat="44.2803683" lon="8.2135617"><ele>818.0</ele><time>2026-04-06T09:48:46.582Z</time></trkpt><trkpt lat="44.28048" lon="8.2135667"><ele>818.0</ele><time>2026-04-06T09:48:48.583Z</time></trkpt><trkpt lat="44.2805567" lon="8.21359"><ele>818.0</ele><time>2026-04-06T09:48:50.583Z</time></trkpt><trkpt lat="44.2804917" lon="8.2135183"><ele>818.0</ele><time>2026-04-06T09:48:55.582Z</time></trkpt><trkpt lat="44.2804233" lon="8.2135167"><ele>818.0</ele><time>2026-04-06T09:48:57.582Z</time></trkpt><trkpt lat="44.280355" lon="8.213505"><ele>818.0</ele><time>2026-04-06T09:48:59.583Z</time></trkpt><trkpt lat="44.2802817" lon="8.2134833"><ele>818.0</ele><time>2026-04-06T09:49:03.584Z</time></trkpt><trkpt lat="44.2802367" lon="8.2134083"><ele>818.0</ele><time>2026-04-06T09:49:06.584Z</time></trkpt><trkpt lat="44.28022" lon="8.2133183"><ele>818.0</ele><time>2026-04-06T09:49:08.583Z</time></trkpt><trkpt lat="44.2802" lon="8.2132233"><ele>818.0</ele><time>2026-04-06T09:49:10.583Z</time></trkpt><trkpt lat="44.280155" lon="8.2131483"><ele>818.0</ele><time>2026-04-06T09:49:12.584Z</time></trkpt><trkpt lat="44.280105" lon="8.2130733"><ele>818.0</ele><time>2026-04-06T09:49:14.584Z</time></trkpt><trkpt lat="44.2800617" lon="8.2129767"><ele>818.0</ele><time>2026-04-06T09:49:17.584Z</time></trkpt><trkpt lat="44.28007" lon="8.2128867"><ele>818.0</ele><time>2026-04-06T09:49:19.584Z</time></trkpt><trkpt lat="44.2801283" lon="8.2128433"><ele>818.0</ele><time>2026-04-06T09:49:21.584Z</time></trkpt><trkpt lat="44.2801917" lon="8.2127617"><ele>816.8</ele><time>2026-04-06T09:49:23.584Z</time></trkpt><trkpt lat="44.2802633" lon="8.2126917"><ele>815.5999999999999</ele><time>2026-04-06T09:49:25.584Z</time></trkpt><trkpt lat="44.2803317" lon="8.2125967"><ele>814.4000000000001</ele><time>2026-04-06T09:49:27.584Z</time></trkpt><trkpt lat="44.2804117" lon="8.2124683"><ele>813.2</ele><time>2026-04-06T09:49:29.584Z</time></trkpt><trkpt lat="44.280485" lon="8.2123433"><ele>812.0</ele><time>2026-04-06T09:49:31.584Z</time></trkpt><trkpt lat="44.280555" lon="8.21222"><ele>807.1666666666667</ele><time>2026-04-06T09:49:33.584Z</time></trkpt><trkpt lat="44.2806083" lon="8.2120817"><ele>802.3333333333334</ele><time>2026-04-06T09:49:35.584Z</time></trkpt><trkpt lat="44.2806367" lon="8.2119467"><ele>797.5</ele><time>2026-04-06T09:49:37.583Z</time></trkpt><trkpt lat="44.2806583" lon="8.2118333"><ele>792.6666666666667</ele><time>2026-04-06T09:49:39.584Z</time></trkpt><trkpt lat="44.2807083" lon="8.2119067"><ele>787.8333333333334</ele><time>2026-04-06T09:49:46.584Z</time></trkpt><trkpt lat="44.2807433" lon="8.212005"><ele>783.0</ele><time>2026-04-06T09:49:49.584Z</time></trkpt><trkpt lat="44.2807983" lon="8.2119417"><ele>783.0</ele><time>2026-04-06T09:49:54.584Z</time></trkpt><trkpt lat="44.2808733" lon="8.2118233"><ele>783.0</ele><time>2026-04-06T09:49:56.584Z</time></trkpt><trkpt lat="44.28096" lon="8.2117033"><ele>783.0</ele><time>2026-04-06T09:49:58.584Z</time></trkpt><trkpt lat="44.2810517" lon="8.2115833"><ele>783.0</ele><time>2026-04-06T09:50:00.584Z</time></trkpt><trkpt lat="44.2811017" lon="8.2115267"><ele>783.0</ele><time>2026-04-06T09:50:01.584Z</time></trkpt><trkpt lat="44.28119" lon="8.211415"><ele>781.8</ele><time>2026-04-06T09:50:03.584Z</time></trkpt><trkpt lat="44.28127" lon="8.211285"><ele>780.5999999999999</ele><time>2026-04-06T09:50:05.584Z</time></trkpt><trkpt lat="44.2813533" lon="8.2111767"><ele>779.4000000000001</ele><time>2026-04-06T09:50:07.584Z</time></trkpt><trkpt lat="44.281455" lon="8.211115"><ele>778.2</ele><time>2026-04-06T09:50:09.583Z</time></trkpt><trkpt lat="44.2815483" lon="8.2110733"><ele>777.0</ele><time>2026-04-06T09:50:11.583Z</time></trkpt><trkpt lat="44.2816433" lon="8.211"><ele>775.6</ele><time>2026-04-06T09:50:13.584Z</time></trkpt><trkpt lat="44.2817367" lon="8.210895"><ele>774.2</ele><time>2026-04-06T09:50:15.584Z</time></trkpt><trkpt lat="44.2817833" lon="8.210835"><ele>772.8</ele><time>2026-04-06T09:50:16.584Z</time></trkpt><trkpt lat="44.2818567" lon="8.2107017"><ele>771.4</ele><time>2026-04-06T09:50:18.584Z</time></trkpt><trkpt lat="44.2819117" lon="8.210595"><ele>770.0</ele><time>2026-04-06T09:50:20.584Z</time></trkpt><trkpt lat="44.2819417" lon="8.210495"><ele>770.0000000000001</ele><time>2026-04-06T09:50:22.584Z</time></trkpt><trkpt lat="44.2819633" lon="8.21039"><ele>770.0</ele><time>2026-04-06T09:50:24.584Z</time></trkpt><trkpt lat="44.2819983" lon="8.2103067"><ele>770.0</ele><time>2026-04-06T09:50:26.584Z</time></trkpt><trkpt lat="44.282025" lon="8.21019"><ele>770.0</ele><time>2026-04-06T09:50:28.584Z</time></trkpt><trkpt lat="44.28207" lon="8.2100433"><ele>770.0000000000001</ele><time>2026-04-06T09:50:30.584Z</time></trkpt><trkpt lat="44.2821033" lon="8.209955"><ele>770.0</ele><time>2026-04-06T09:50:31.584Z</time></trkpt><trkpt lat="44.2821267" lon="8.20987"><ele>768.4</ele><time>2026-04-06T09:50:32.584Z</time></trkpt><trkpt lat="44.282145" lon="8.2097817"><ele>766.8</ele><time>2026-04-06T09:50:33.584Z</time></trkpt><trkpt lat="44.2821617" lon="8.2096117"><ele>765.2</ele><time>2026-04-06T09:50:35.584Z</time></trkpt><trkpt lat="44.2821633" lon="8.209515"><ele>763.6</ele><time>2026-04-06T09:50:36.584Z</time></trkpt><trkpt lat="44.2821567" lon="8.20942"><ele>762.0</ele><time>2026-04-06T09:50:37.584Z</time></trkpt><trkpt lat="44.28214" lon="8.20923"><ele>762.0</ele><time>2026-04-06T09:50:39.584Z</time></trkpt><trkpt lat="44.2821183" lon="8.20907"><ele>762.0</ele><time>2026-04-06T09:50:41.584Z</time></trkpt><trkpt lat="44.2820967" lon="8.208935"><ele>762.0</ele><time>2026-04-06T09:50:43.584Z</time></trkpt><trkpt lat="44.282085" lon="8.2088017"><ele>762.0</ele><time>2026-04-06T09:50:45.584Z</time></trkpt><trkpt lat="44.2820917" lon="8.2087117"><ele>762.0</ele><time>2026-04-06T09:50:46.584Z</time></trkpt><trkpt lat="44.282105" lon="8.20862"><ele>762.0</ele><time>2026-04-06T09:50:47.583Z</time></trkpt><trkpt lat="44.28211" lon="8.2084617"><ele>759.8333333333334</ele><time>2026-04-06T09:50:49.584Z</time></trkpt><trkpt lat="44.2821033" lon="8.20829"><ele>757.6666666666666</ele><time>2026-04-06T09:50:51.584Z</time></trkpt><trkpt lat="44.2820967" lon="8.2081967"><ele>755.5</ele><time>2026-04-06T09:50:52.584Z</time></trkpt><trkpt lat="44.28209" lon="8.2080967"><ele>753.3333333333333</ele><time>2026-04-06T09:50:53.583Z</time></trkpt><trkpt lat="44.28208" lon="8.2080067"><ele>751.1666666666666</ele><time>2026-04-06T09:50:54.584Z</time></trkpt><trkpt lat="44.2820683" lon="8.2078533"><ele>749.0</ele><time>2026-04-06T09:50:56.584Z</time></trkpt><trkpt lat="44.2820867" lon="8.2076883"><ele>746.0</ele><time>2026-04-06T09:50:58.584Z</time></trkpt><trkpt lat="44.2821333" lon="8.20754"><ele>743.0</ele><time>2026-04-06T09:51:00.584Z</time></trkpt><trkpt lat="44.28218" lon="8.2074683"><ele>740.0</ele><time>2026-04-06T09:51:01.584Z</time></trkpt><trkpt lat="44.282245" lon="8.2073633"><ele>737.0</ele><time>2026-04-06T09:51:03.584Z</time></trkpt><trkpt lat="44.282265" lon="8.20724"><ele>734.0</ele><time>2026-04-06T09:51:05.584Z</time></trkpt><trkpt lat="44.28228" lon="8.2071"><ele>733.0</ele><time>2026-04-06T09:51:07.584Z</time></trkpt><trkpt lat="44.2822617" lon="8.2069717"><ele>732.0</ele><time>2026-04-06T09:51:09.584Z</time></trkpt><trkpt lat="44.2822517" lon="8.2068317"><ele>731.0</ele><time>2026-04-06T09:51:11.584Z</time></trkpt><trkpt lat="44.282275" lon="8.2066783"><ele>730.0</ele><time>2026-04-06T09:51:13.583Z</time></trkpt><trkpt lat="44.2823183" lon="8.2065317"><ele>729.0</ele><time>2026-04-06T09:51:15.584Z</time></trkpt><trkpt lat="44.2823533" lon="8.2064233"><ele>727.1666666666666</ele><time>2026-04-06T09:51:17.584Z</time></trkpt><trkpt lat="44.2824067" lon="8.2062967"><ele>725.3333333333334</ele><time>2026-04-06T09:51:19.584Z</time></trkpt><trkpt lat="44.2824517" lon="8.2061683"><ele>723.5</ele><time>2026-04-06T09:51:21.584Z</time></trkpt><trkpt lat="44.28252" lon="8.2061117"><ele>721.6666666666667</ele><time>2026-04-06T09:51:23.584Z</time></trkpt><trkpt lat="44.2825883" lon="8.2060933"><ele>719.8333333333334</ele><time>2026-04-06T09:51:25.583Z</time></trkpt><trkpt lat="44.282655" lon="8.2060517"><ele>718.0</ele><time>2026-04-06T09:51:27.584Z</time></trkpt><trkpt lat="44.2827367" lon="8.206085"><ele>718.0</ele><time>2026-04-06T09:51:30.584Z</time></trkpt><trkpt lat="44.2828017" lon="8.206185"><ele>718.0</ele><time>2026-04-06T09:51:32.583Z</time></trkpt><trkpt lat="44.2828533" lon="8.2063083"><ele>718.0</ele><time>2026-04-06T09:51:34.584Z</time></trkpt><trkpt lat="44.2828867" lon="8.2063883"><ele>718.0</ele><time>2026-04-06T09:51:35.583Z</time></trkpt><trkpt lat="44.282925" lon="8.206495"><ele>718.0</ele><time>2026-04-06T09:51:36.583Z</time></trkpt><trkpt lat="44.282955" lon="8.2065783"><ele>718.0</ele><time>2026-04-06T09:51:37.584Z</time></trkpt><trkpt lat="44.2829783" lon="8.2066617"><ele>720.75</ele><time>2026-04-06T09:51:38.583Z</time></trkpt><trkpt lat="44.2829967" lon="8.2068317"><ele>723.5</ele><time>2026-04-06T09:51:40.584Z</time></trkpt><trkpt lat="44.283015" lon="8.2069933"><ele>726.25</ele><time>2026-04-06T09:51:42.584Z</time></trkpt><trkpt lat="44.2830167" lon="8.20716"><ele>729.0</ele><time>2026-04-06T09:51:44.584Z</time></trkpt><trkpt lat="44.2830217" lon="8.207305"><ele>728.2</ele><time>2026-04-06T09:51:46.583Z</time></trkpt><trkpt lat="44.2829983" lon="8.2074467"><ele>727.4000000000001</ele><time>2026-04-06T09:51:48.583Z</time></trkpt><trkpt lat="44.2829767" lon="8.2075717"><ele>726.6</ele><time>2026-04-06T09:51:50.584Z</time></trkpt><trkpt lat="44.2829367" lon="8.2077017"><ele>725.8</ele><time>2026-04-06T09:51:52.584Z</time></trkpt><trkpt lat="44.282895" lon="8.207845"><ele>725.0</ele><time>2026-04-06T09:51:54.584Z</time></trkpt><trkpt lat="44.282865" lon="8.20801"><ele>725.0</ele><time>2026-04-06T09:51:56.584Z</time></trkpt><trkpt lat="44.2828483" lon="8.2081033"><ele>725.0</ele><time>2026-04-06T09:51:57.584Z</time></trkpt><trkpt lat="44.282835" lon="8.2081917"><ele>725.0</ele><time>2026-04-06T09:51:58.584Z</time></trkpt><trkpt lat="44.2828083" lon="8.2083217"><ele>725.0</ele><time>2026-04-06T09:52:00.583Z</time></trkpt><trkpt lat="44.2828017" lon="8.2084133"><ele>725.0</ele><time>2026-04-06T09:52:02.584Z</time></trkpt><trkpt lat="44.282785" lon="8.208505"><ele>725.0</ele><time>2026-04-06T09:52:05.584Z</time></trkpt><trkpt lat="44.2828383" lon="8.2086017"><ele>725.0</ele><time>2026-04-06T09:52:20.584Z</time></trkpt><trkpt lat="44.2828733" lon="8.2086933"><ele>725.0</ele><time>2026-04-06T09:52:23.584Z</time></trkpt><trkpt lat="44.2829183" lon="8.2087983"><ele>725.0</ele><time>2026-04-06T09:52:27.584Z</time></trkpt><trkpt lat="44.2829583" lon="8.2088967"><ele>725.0</ele><time>2026-04-06T09:52:29.583Z</time></trkpt><trkpt lat="44.2830067" lon="8.208995"><ele>725.0</ele><time>2026-04-06T09:52:31.584Z</time></trkpt><trkpt lat="44.283075" lon="8.209145"><ele>718.8333333333333</ele><time>2026-04-06T09:52:33.584Z</time></trkpt><trkpt lat="44.2831083" lon="8.2092467"><ele>712.6666666666666</ele><time>2026-04-06T09:52:34.584Z</time></trkpt><trkpt lat="44.2831467" lon="8.2093567"><ele>706.5</ele><time>2026-04-06T09:52:35.583Z</time></trkpt><trkpt lat="44.2831867" lon="8.2094333"><ele>700.3333333333334</ele><time>2026-04-06T09:52:36.584Z</time></trkpt><trkpt lat="44.2832333" lon="8.209505"><ele>694.1666666666667</ele><time>2026-04-06T09:52:37.584Z</time></trkpt><trkpt lat="44.2833167" lon="8.20963"><ele>688.0</ele><time>2026-04-06T09:52:39.583Z</time></trkpt><trkpt lat="44.2833733" lon="8.2097517"><ele>688.8</ele><time>2026-04-06T09:52:41.584Z</time></trkpt><trkpt lat="44.2834183" lon="8.2098417"><ele>689.5999999999999</ele><time>2026-04-06T09:52:44.584Z</time></trkpt><trkpt lat="44.2834617" lon="8.2099733"><ele>690.4000000000001</ele><time>2026-04-06T09:52:47.584Z</time></trkpt><trkpt lat="44.283485" lon="8.2101017"><ele>691.2</ele><time>2026-04-06T09:52:49.584Z</time></trkpt><trkpt lat="44.28351" lon="8.210235"><ele>692.0</ele><time>2026-04-06T09:52:51.584Z</time></trkpt><trkpt lat="44.28354" lon="8.2103683"><ele>692.0</ele><time>2026-04-06T09:52:53.584Z</time></trkpt><trkpt lat="44.28355" lon="8.2104883"><ele>692.0</ele><time>2026-04-06T09:52:55.584Z</time></trkpt><trkpt lat="44.2836" lon="8.2105617"><ele>692.0</ele><time>2026-04-06T09:52:57.584Z</time></trkpt><trkpt lat="44.2836667" lon="8.2105533"><ele>692.0</ele><time>2026-04-06T09:52:59.584Z</time></trkpt><trkpt lat="44.2837417" lon="8.210565"><ele>692.0</ele><time>2026-04-06T09:53:01.583Z</time></trkpt><trkpt lat="44.283805" lon="8.2105617"><ele>692.0</ele><time>2026-04-06T09:53:04.583Z</time></trkpt><trkpt lat="44.2837217" lon="8.210545"><ele>692.0</ele><time>2026-04-06T09:53:10.583Z</time></trkpt><trkpt lat="44.28366" lon="8.2104883"><ele>692.0</ele><time>2026-04-06T09:53:14.583Z</time></trkpt><trkpt lat="44.2836633" lon="8.2103517"><ele>692.0</ele><time>2026-04-06T09:53:17.583Z</time></trkpt><trkpt lat="44.28367" lon="8.21026"><ele>692.0</ele><time>2026-04-06T09:53:19.583Z</time></trkpt><trkpt lat="44.2836683" lon="8.21016"><ele>692.0</ele><time>2026-04-06T09:53:21.583Z</time></trkpt><trkpt lat="44.283675" lon="8.2100267"><ele>692.0</ele><time>2026-04-06T09:53:24.583Z</time></trkpt><trkpt lat="44.2836617" lon="8.2098967"><ele>692.0</ele><time>2026-04-06T09:53:26.583Z</time></trkpt><trkpt lat="44.2836617" lon="8.2097267"><ele>691.2</ele><time>2026-04-06T09:53:28.584Z</time></trkpt><trkpt lat="44.28366" lon="8.2096317"><ele>690.4000000000001</ele><time>2026-04-06T09:53:29.584Z</time></trkpt><trkpt lat="44.2836567" lon="8.209525"><ele>689.5999999999999</ele><time>2026-04-06T09:53:30.583Z</time></trkpt><trkpt lat="44.283715" lon="8.2093133"><ele>688.8</ele><time>2026-04-06T09:53:32.583Z</time></trkpt><trkpt lat="44.283745" lon="8.2092067"><ele>688.0</ele><time>2026-04-06T09:53:34.583Z</time></trkpt><trkpt lat="44.2837733" lon="8.209125"><ele>688.0</ele><time>2026-04-06T09:53:36.583Z</time></trkpt><trkpt lat="44.2837567" lon="8.2090367"><ele>688.0</ele><time>2026-04-06T09:53:39.583Z</time></trkpt><trkpt lat="44.2837183" lon="8.2089283"><ele>688.0</ele><time>2026-04-06T09:53:42.583Z</time></trkpt><trkpt lat="44.28368" lon="8.20883"><ele>688.0</ele><time>2026-04-06T09:53:45.583Z</time></trkpt><trkpt lat="44.2836517" lon="8.20874"><ele>688.0</ele><time>2026-04-06T09:53:47.583Z</time></trkpt><trkpt lat="44.283625" lon="8.2086167"><ele>688.0</ele><time>2026-04-06T09:53:49.582Z</time></trkpt><trkpt lat="44.2836283" lon="8.20846"><ele>688.2</ele><time>2026-04-06T09:53:51.583Z</time></trkpt><trkpt lat="44.283645" lon="8.2082967"><ele>688.4</ele><time>2026-04-06T09:53:53.583Z</time></trkpt><trkpt lat="44.28362" lon="8.208165"><ele>688.6</ele><time>2026-04-06T09:53:55.583Z</time></trkpt><trkpt lat="44.2836067" lon="8.208025"><ele>688.8000000000001</ele><time>2026-04-06T09:53:57.583Z</time></trkpt><trkpt lat="44.2836267" lon="8.207915"><ele>689.0</ele><time>2026-04-06T09:53:59.583Z</time></trkpt><trkpt lat="44.2836583" lon="8.2078033"><ele>689.0</ele><time>2026-04-06T09:54:02.583Z</time></trkpt><trkpt lat="44.28368" lon="8.2077117"><ele>689.0</ele><time>2026-04-06T09:54:04.583Z</time></trkpt><trkpt lat="44.2836933" lon="8.20761"><ele>689.0</ele><time>2026-04-06T09:54:06.583Z</time></trkpt><trkpt lat="44.2837067" lon="8.2075017"><ele>689.0</ele><time>2026-04-06T09:54:08.582Z</time></trkpt><trkpt lat="44.2837217" lon="8.20738"><ele>689.0</ele><time>2026-04-06T09:54:10.583Z</time></trkpt><trkpt lat="44.2837217" lon="8.207255"><ele>689.0</ele><time>2026-04-06T09:54:12.583Z</time></trkpt><trkpt lat="44.2837117" lon="8.2071533"><ele>689.8333333333333</ele><time>2026-04-06T09:54:14.583Z</time></trkpt><trkpt lat="44.2837083" lon="8.20704"><ele>690.6666666666666</ele><time>2026-04-06T09:54:16.583Z</time></trkpt><trkpt lat="44.2837233" lon="8.2069417"><ele>691.5</ele><time>2026-04-06T09:54:18.583Z</time></trkpt><trkpt lat="44.2837233" lon="8.2068467"><ele>692.3333333333334</ele><time>2026-04-06T09:54:20.583Z</time></trkpt><trkpt lat="44.2837483" lon="8.2067283"><ele>693.1666666666667</ele><time>2026-04-06T09:54:22.583Z</time></trkpt><trkpt lat="44.2837683" lon="8.2066167"><ele>694.0</ele><time>2026-04-06T09:54:24.583Z</time></trkpt><trkpt lat="44.28379" lon="8.2065033"><ele>693.3333333333334</ele><time>2026-04-06T09:54:26.583Z</time></trkpt><trkpt lat="44.28379" lon="8.2063833"><ele>692.6666666666667</ele><time>2026-04-06T09:54:28.583Z</time></trkpt><trkpt lat="44.28378" lon="8.2062233"><ele>692.0</ele><time>2026-04-06T09:54:30.583Z</time></trkpt><trkpt lat="44.2837783" lon="8.2061333"><ele>691.3333333333334</ele><time>2026-04-06T09:54:31.583Z</time></trkpt><trkpt lat="44.2837733" lon="8.206045"><ele>690.6666666666666</ele><time>2026-04-06T09:54:32.583Z</time></trkpt><trkpt lat="44.2837683" lon="8.205955"><ele>690.0</ele><time>2026-04-06T09:54:33.584Z</time></trkpt><trkpt lat="44.2837467" lon="8.2057883"><ele>687.8333333333334</ele><time>2026-04-06T09:54:35.583Z</time></trkpt><trkpt lat="44.2837333" lon="8.205635"><ele>685.6666666666666</ele><time>2026-04-06T09:54:37.583Z</time></trkpt><trkpt lat="44.28372" lon="8.2055267"><ele>683.5</ele><time>2026-04-06T09:54:39.584Z</time></trkpt><trkpt lat="44.283705" lon="8.2054367"><ele>681.3333333333333</ele><time>2026-04-06T09:54:41.583Z</time></trkpt><trkpt lat="44.283705" lon="8.205335"><ele>679.1666666666666</ele><time>2026-04-06T09:54:43.582Z</time></trkpt><trkpt lat="44.2836883" lon="8.2052467"><ele>677.0</ele><time>2026-04-06T09:54:45.583Z</time></trkpt><trkpt lat="44.2836933" lon="8.2051483"><ele>677.0</ele><time>2026-04-06T09:54:48.583Z</time></trkpt><trkpt lat="44.2837183" lon="8.205045"><ele>677.0</ele><time>2026-04-06T09:54:56.583Z</time></trkpt><trkpt lat="44.2837733" lon="8.204975"><ele>677.0</ele><time>2026-04-06T09:54:58.583Z</time></trkpt><trkpt lat="44.2838517" lon="8.204895"><ele>677.0</ele><time>2026-04-06T09:55:00.583Z</time></trkpt><trkpt lat="44.2839483" lon="8.2048283"><ele>677.0</ele><time>2026-04-06T09:55:02.583Z</time></trkpt><trkpt lat="44.2840333" lon="8.2047583"><ele>670.6</ele><time>2026-04-06T09:55:04.583Z</time></trkpt><trkpt lat="44.2841133" lon="8.2046567"><ele>664.2</ele><time>2026-04-06T09:55:06.583Z</time></trkpt><trkpt lat="44.28416" lon="8.2045967"><ele>657.8</ele><time>2026-04-06T09:55:07.583Z</time></trkpt><trkpt lat="44.2842533" lon="8.204495"><ele>651.4</ele><time>2026-04-06T09:55:09.583Z</time></trkpt><trkpt lat="44.2843517" lon="8.2044083"><ele>645.0</ele><time>2026-04-06T09:55:11.582Z</time></trkpt><trkpt lat="44.2844067" lon="8.2043083"><ele>645.0</ele><time>2026-04-06T09:55:13.583Z</time></trkpt><trkpt lat="44.28447" lon="8.20424"><ele>645.0</ele><time>2026-04-06T09:55:15.583Z</time></trkpt><trkpt lat="44.2845333" lon="8.2042817"><ele>645.0</ele><time>2026-04-06T09:55:17.583Z</time></trkpt><trkpt lat="44.2845783" lon="8.2043767"><ele>645.0</ele><time>2026-04-06T09:55:19.583Z</time></trkpt><trkpt lat="44.2845783" lon="8.2044767"><ele>645.0</ele><time>2026-04-06T09:55:21.583Z</time></trkpt><trkpt lat="44.28458" lon="8.2045933"><ele>645.0</ele><time>2026-04-06T09:55:23.583Z</time></trkpt><trkpt lat="44.2845883" lon="8.20472"><ele>645.0</ele><time>2026-04-06T09:55:25.583Z</time></trkpt><trkpt lat="44.2846317" lon="8.2048167"><ele>645.0</ele><time>2026-04-06T09:55:27.583Z</time></trkpt><trkpt lat="44.2847033" lon="8.2048283"><ele>645.0</ele><time>2026-04-06T09:55:29.583Z</time></trkpt><trkpt lat="44.284765" lon="8.2047517"><ele>645.0</ele><time>2026-04-06T09:55:32.582Z</time></trkpt><trkpt lat="44.28481" lon="8.2046667"><ele>645.0</ele><time>2026-04-06T09:55:34.583Z</time></trkpt><trkpt lat="44.2848483" lon="8.20459"><ele>645.0</ele><time>2026-04-06T09:55:36.583Z</time></trkpt><trkpt lat="44.28489" lon="8.204515"><ele>645.0</ele><time>2026-04-06T09:55:38.583Z</time></trkpt><trkpt lat="44.2849533" lon="8.2044417"><ele>644.8333333333334</ele><time>2026-04-06T09:55:40.583Z</time></trkpt><trkpt lat="44.2850433" lon="8.2043717"><ele>644.6666666666666</ele><time>2026-04-06T09:55:42.583Z</time></trkpt><trkpt lat="44.2851183" lon="8.20429"><ele>644.5</ele><time>2026-04-06T09:55:44.583Z</time></trkpt><trkpt lat="44.28516" lon="8.2042217"><ele>644.3333333333333</ele><time>2026-04-06T09:55:46.583Z</time></trkpt><trkpt lat="44.28515" lon="8.2041267"><ele>644.1666666666666</ele><time>2026-04-06T09:55:49.583Z</time></trkpt><trkpt lat="44.2851183" lon="8.204035"><ele>644.0</ele><time>2026-04-06T09:55:51.582Z</time></trkpt><trkpt lat="44.2850833" lon="8.203935"><ele>643.8333333333333</ele><time>2026-04-06T09:55:53.583Z</time></trkpt><trkpt lat="44.2850533" lon="8.2038383"><ele>643.6666666666666</ele><time>2026-04-06T09:55:55.583Z</time></trkpt><trkpt lat="44.2850367" lon="8.20374"><ele>643.5</ele><time>2026-04-06T09:55:57.583Z</time></trkpt><trkpt lat="44.2850133" lon="8.2036367"><ele>643.3333333333334</ele><time>2026-04-06T09:55:59.583Z</time></trkpt><trkpt lat="44.2849767" lon="8.2035433"><ele>643.1666666666667</ele><time>2026-04-06T09:56:01.583Z</time></trkpt><trkpt lat="44.2849317" lon="8.203445"><ele>643.0</ele><time>2026-04-06T09:56:04.583Z</time></trkpt><trkpt lat="44.2849" lon="8.2033483"><ele>643.0</ele><time>2026-04-06T09:56:07.583Z</time></trkpt><trkpt lat="44.2848917" lon="8.20317"><ele>643.0</ele><time>2026-04-06T09:56:17.583Z</time></trkpt><trkpt lat="44.2849567" lon="8.2031433"><ele>643.0</ele><time>2026-04-06T09:56:19.583Z</time></trkpt><trkpt lat="44.2850267" lon="8.2031083"><ele>643.0</ele><time>2026-04-06T09:56:21.583Z</time></trkpt><trkpt lat="44.2851467" lon="8.20306"><ele>643.0</ele><time>2026-04-06T09:56:24.583Z</time></trkpt><trkpt lat="44.2852317" lon="8.2030267"><ele>644.3333333333334</ele><time>2026-04-06T09:56:26.583Z</time></trkpt><trkpt lat="44.28532" lon="8.20299"><ele>645.6666666666667</ele><time>2026-04-06T09:56:28.583Z</time></trkpt><trkpt lat="44.28539" lon="8.2029683"><ele>647.0</ele><time>2026-04-06T09:56:30.583Z</time></trkpt><trkpt lat="44.2854683" lon="8.203025"><ele>648.3333333333334</ele><time>2026-04-06T09:56:34.583Z</time></trkpt><trkpt lat="44.2855383" lon="8.2030233"><ele>649.6666666666666</ele><time>2026-04-06T09:56:40.582Z</time></trkpt><trkpt lat="44.2856383" lon="8.20298"><ele>651.0</ele><time>2026-04-06T09:57:24.582Z</time></trkpt><trkpt lat="44.2855721" lon="8.2029774"><ele>656.0</ele><time>2026-04-06T09:59:07.812Z</time></trkpt><trkpt lat="44.2856565" lon="8.2029616"><ele>651.0</ele><time>2026-04-06T10:10:02.841Z</time></trkpt></trkseg></trk></gpx>